[[{"header":{"parameterUnit":"m.s-1","parameterCategory":1,"la1":31.0,"la2":29.5877,"lo1":-88.7671,"lo2":-86.6584,"dy":0.0162,"dx":0.0185,"nx":115,"ny":88,"refTime":"2026-04-09T18:00:00:Z","depth":0,"parameterNumber":2,"parameterNumberName":"U-component_of_WINDS"},"data":[0.0,0.0,0.0,0.0,0.0,0.0,0.0,0.0,0.0,0.0,0.0,0.0,0.0,0.0,0.0,0.0,0.0,0.0,0.0,0.0,0.0,0.0,0.0,0.0,0.0,0.0,0.0,0.0,0.0,0.0,0.0,0.0,0.0,0.0,0.0,0.0,0.0,0.0,0.0,0.0,0.0,0.0,0.0,0.0,0.0,0.0,0.0,0.0,0.0,0.0,0.0,0.0,0.0,0.0,0.0,0.0,0.0,0.0,0.0,0.0,0.0,0.0,0.0,0.0,0.0,0.0,0.0,0.0,0.0,0.0,0.0,0.0,0.0,0.0,0.0,0.0,0.0,0.0,0.0,0.0,0.0,0.0,0.0,0.0,0.0,0.0,0.0,0.0,0.0,0.0,0.0,0.0,0.0,0.0,0.0,0.0,0.0,0.0,0.0,0.0,0.0,0.0,0.0,0.0,0.0,0.0,0.0,0.0,0.0,0.0,0.0,0.0,0.0,0.0,0.0,0.0,0.0,0.0,0.0,0.0,0.0,0.0,0.0,0.0,0.0,0.0,0.0,0.0,0.0,0.0,0.0,0.0,0.0,0.0,0.0,0.0,0.0,0.0,0.0,0.0,0.0,0.0,0.0,0.0,0.0,0.0,0.0,0.0,0.0,0.0,0.0,0.0,0.0,0.0,0.0,0.0,0.0,0.0,0.0,0.0,0.0,0.0,0.0,0.0,0.0,0.0,0.0,0.0,0.0,0.0,0.0,0.0,0.0,0.0,0.0,0.0,0.0,0.0,0.0,0.0,0.0,0.0,0.0,0.0,0.0,0.0,0.0,0.0,0.0,0.0,0.0,0.0,0.0,0.0,0.0,0.0,0.0,0.0,0.0,0.0,0.0,0.0,0.0,0.0,0.0,0.0,0.0,0.0,0.0,0.0,0.0,0.0,0.0,0.0,0.0,0.0,0.0,0.0,0.0,0.0,0.0,0.0,0.0,0.0,0.0,0.0,0.0,0.0,0.0,0.0,0.0,0.0,0.0,0.0,0.0,0.0,0.0,0.0,0.0,0.0,0.0,0.0,0.0,0.0,0.0,0.0,0.0,0.0,0.0,0.0,0.0,0.0,0.0,0.0,0.0,0.0,0.0,0.0,0.0,0.0,0.0,0.0,0.0,0.0,0.0,0.0,0.0,0.0,0.0,0.0,0.0,0.0,0.0,0.0,0.0,0.0,0.0,0.0,0.0,0.0,0.0,0.0,0.0,0.0,0.0,0.0,0.0,0.0,0.0,0.0,0.0,0.0,0.0,0.0,0.0,0.0,0.0,0.0,0.0,0.0,0.0,0.0,0.0,0.0,0.0,0.0,0.0,0.0,0.0,0.0,0.0,0.0,0.0,0.0,0.0,0.0,0.0,0.0,0.0,0.0,0.0,0.0,0.0,0.0,0.0,0.0,0.0,0.0,0.0,0.0,0.0,0.0,0.0,0.0,0.0,0.0,0.0,0.0,0.0,0.0,0.0,0.0,0.0,0.0,0.0,0.0,0.0,0.0,0.0,0.0,0.0,0.0,0.0,0.0,0.0,0.0,0.0,0.0,0.0,0.0,0.0,0.0,0.0,0.0,0.0,0.0,0.0,0.0,0.0,0.0,0.0,0.0,0.0,0.0,0.0,0.0,0.0,0.0,0.0,0.0,0.0,0.0,0.0,0.0,0.0,0.0,0.0,0.0,0.0,0.0,0.0,0.0,0.0,0.0,0.0,0.0,0.0,0.0,0.0,0.0,0.0,0.0,0.0,0.0,0.0,0.0,0.0,0.0,0.0,0.0,0.0,0.0,0.0,0.0,0.0,0.0,0.0,0.0,0.0,0.0,0.0,0.0,0.0,0.0,0.0,0.0,0.0,0.0,0.0,0.0,0.0,0.0,0.0,0.0,0.0,0.0,0.0,0.0,0.0,0.0,0.0,0.0,0.0,0.0,0.0,0.0,0.0,0.0,0.0,0.0,0.0,0.0,0.0,0.0,0.0,0.0,0.0,0.0,0.0,0.0,0.0,0.0,0.0,0.0,0.0,0.0,0.0,0.0,0.0,0.0,0.0,0.0,0.0,0.0,0.0,0.0,0.0,0.0,0.0,0.0,0.0,0.0,0.0,0.0,0.0,0.0,0.0,0.0,0.0,0.0,0.0,0.0,0.0,0.0,0.0,0.0,0.0,0.0,0.0,0.0,0.0,0.0,0.0,0.0,0.0,0.0,0.0,0.0,0.0,0.0,0.0,0.0,0.0,0.0,0.0,0.0,0.0,0.0,0.0,0.0,0.0,0.0,0.0,0.0,0.0,0.0,0.0,0.0,0.0,0.0,0.0,0.0,0.0,0.0,0.0,0.0,0.0,0.0,0.0,0.0,0.0,0.0,0.0,0.0,0.0,0.0,0.0,0.0,0.0,0.0,0.0,0.0,0.0,0.0,0.0,0.0,0.0,0.0,0.0,0.0,0.0,0.0,0.0,0.0,0.0,0.0,0.0,0.0,0.0,0.0,0.0,0.0,0.0,0.0,0.0,0.0,0.0,0.0,0.0,0.0,0.0,0.0,0.0,0.0,0.0,0.0,0.0,0.0,0.0,0.0,0.0,0.0,0.0,0.0,0.0,0.0,0.0,0.0,0.0,0.0,0.0,0.0,0.0,0.0,0.0,0.0,0.0,0.0,0.0,0.0,0.0,0.0,0.0,0.0,0.0,0.0,0.0,0.0,0.0,0.0,0.0,0.0,0.0,0.0,0.0,0.0,0.0,0.0,0.0,0.0,0.0,0.0,0.0,0.0,0.0,0.0,0.0,0.0,0.0,0.0,0.0,0.0,0.0,0.0,0.0,0.0,0.0,0.0,0.0,0.0,0.0,0.0,0.0,0.0,0.0,0.0,0.0,0.0,0.0,0.0,0.0,0.0,0.0,0.0,0.0,0.0,0.0,0.0,0.0,0.0,0.0,0.0,0.0,0.0,0.0,0.0,0.0,0.0,0.0,0.0,0.0,0.0,0.0,0.0,0.0,0.0,0.0,0.0,0.0,0.0,0.0,0.0,0.0,0.0,0.0,0.0,0.0,0.0,0.0,0.0,0.0,0.0,0.0,0.0,0.0,0.0,0.0,0.0,0.0,0.0,0.0,0.0,0.0,0.0,0.0,0.0,0.0,0.0,0.0,0.0,0.0,0.0,0.0,0.0,0.0,0.0,0.0,0.0,0.0,0.0,0.0,0.0,0.0,0.0,0.0,0.0,0.0,0.0,0.0,0.0,0.0,0.0,0.0,0.0,0.0,0.0,0.0,0.0,0.0,0.0,0.0,0.0,0.0,0.0,0.0,0.0,0.0,0.0,0.0,0.0,0.0,0.0,0.0,0.0,0.0,0.0,0.0,0.0,0.0,0.0,0.0,0.0,0.0,0.0,0.0,0.0,0.0,0.0,0.0,0.0,0.0,0.0,0.0,0.0,0.0,0.0,0.0,0.0,0.0,0.0,0.0,0.0,0.0,0.0,0.0,0.0,0.0,0.0,0.0,0.0,0.0,0.0,0.0,0.0,0.0,0.0,0.0,0.0,0.0,0.0,0.0,0.0,0.0,0.0,0.0,0.0,0.0,0.0,0.0,0.0,0.0,0.0,0.0,0.0,0.0,0.0,0.0,0.0,0.0,0.0,0.0,0.0,0.0,0.0,0.0,0.0,0.0,0.0,0.0,0.0,0.0,0.0,0.0,0.0,0.0,0.0,0.0,0.0,0.0,0.0,0.0,0.0,0.0,0.0,0.0,0.0,0.0,0.0,0.0,0.0,0.0,0.0,0.0,0.0,0.0,0.0,0.0,0.0,0.0,0.0,0.0,0.0,0.0,0.0,0.0,0.0,0.0,0.0,0.0,0.0,0.0,0.0,0.0,0.0,0.0,0.0,0.0,0.0,0.0,0.0,0.0,0.0,0.0,0.0,0.0,0.0,0.0,0.0,0.0,0.0,0.0,0.0,0.0,0.0,0.0,0.0,0.0,0.0,0.0,0.0,0.0,0.0,0.0,0.0,0.0,0.0,0.0,0.0,0.0,0.0,0.0,0.0,0.0,0.0,0.0,0.0,0.0,0.0,0.0,0.0,0.0,0.0,0.0,0.0,0.0,0.0,0.0,0.0,0.0,0.0,0.0,0.0,0.0,0.0,0.0,0.0,0.0,0.0,0.0,0.0,0.0,0.0,0.0,0.0,0.0,0.0,0.0,0.0,0.0,0.0,0.0,0.0,0.0,0.0,0.0,0.0,-1.0094,0.0,0.0,0.0,0.0,0.0,0.0,0.0,0.0,0.0,0.0,0.0,0.0,0.0,0.0,0.0,0.0,0.0,0.0,0.0,0.0,0.0,0.0,0.0,0.0,0.0,0.0,0.0,0.0,0.0,0.0,0.0,0.0,0.0,0.0,0.0,0.0,0.0,0.0,0.0,0.0,0.0,0.0,0.0,0.0,0.0,0.0,0.0,0.0,0.0,0.0,0.0,0.0,0.0,0.0,0.0,0.0,0.0,0.0,0.0,0.0,0.0,0.0,0.0,0.0,0.0,0.0,0.0,0.0,0.0,0.0,0.0,0.0,0.0,0.0,0.0,0.0,0.0,0.0,0.0,0.0,0.0,0.0,0.0,0.0,0.0,0.0,0.0,0.0,0.0,0.0,0.0,0.0,0.0,0.0,0.0,0.0,0.0,0.0,0.0,0.0,0.0,0.0,0.0,0.0,0.0,0.0,0.0,0.0,0.0,0.0,-1.0094,-1.0094,-1.0094,-1.0094,-1.0094,0.0,0.0,0.0,0.0,0.0,0.0,0.0,0.0,0.0,0.0,0.0,0.0,0.0,0.0,0.0,0.0,0.0,0.0,0.0,0.0,0.0,0.0,0.0,0.0,0.0,0.0,0.0,0.0,0.0,0.0,0.0,0.0,0.0,0.0,0.0,0.0,0.0,0.0,0.0,0.0,0.0,0.0,0.0,0.0,0.0,0.0,0.0,0.0,0.0,0.0,0.0,0.0,0.0,0.0,0.0,0.0,0.0,0.0,0.0,0.0,0.0,0.0,0.0,0.0,0.0,0.0,0.0,0.0,0.0,0.0,0.0,0.0,0.0,0.0,0.0,0.0,0.0,0.0,0.0,0.0,0.0,0.0,0.0,0.0,0.0,0.0,0.0,0.0,0.0,0.0,0.0,0.0,0.0,0.0,0.0,0.0,0.0,0.0,0.0,0.0,0.0,0.0,0.0,0.0,0.0,0.0,0.0,0.0,0.0,0.0,0.0,0.0,-1.0404,-1.0385,-1.0385,0.0,0.0,0.0,0.0,0.0,0.0,0.0,0.0,0.0,0.0,0.0,0.0,0.0,0.0,0.0,0.0,0.0,0.0,0.0,0.0,0.0,0.0,0.0,0.0,0.0,0.0,0.0,0.0,0.0,0.0,0.0,0.0,0.0,0.0,0.0,0.0,0.0,0.0,0.0,0.0,0.0,0.0,0.0,0.0,0.0,0.0,0.0,0.0,0.0,0.0,0.0,0.0,0.0,0.0,0.0,0.0,0.0,0.0,0.0,0.0,0.0,0.0,0.0,0.0,0.0,0.0,0.0,0.0,0.0,0.0,0.0,0.0,0.0,0.0,0.0,0.0,0.0,0.0,0.0,0.0,0.0,0.0,0.0,0.0,0.0,0.0,0.0,0.0,0.0,0.0,0.0,0.0,0.0,0.0,0.0,0.0,0.0,0.0,0.0,0.0,0.0,0.0,0.0,0.0,0.0,0.0,0.0,0.0,0.0,0.0,-1.0464,-1.1254,-1.1291,0.0,-1.1295,0.0,0.0,0.0,0.0,0.0,0.0,0.0,0.0,0.0,0.0,0.0,0.0,0.0,0.0,0.0,0.0,0.0,0.0,0.0,0.0,0.0,0.0,0.0,0.0,0.0,0.0,0.0,0.0,0.0,0.0,0.0,0.0,0.0,0.0,0.0,0.0,0.0,0.0,0.0,0.0,0.0,0.0,0.0,0.0,0.0,0.0,0.0,0.0,0.0,0.0,0.0,0.0,0.0,0.0,0.0,0.0,0.0,0.0,0.0,0.0,0.0,0.0,0.0,0.0,0.0,0.0,0.0,0.0,0.0,0.0,0.0,0.0,0.0,0.0,0.0,0.0,0.0,0.0,0.0,0.0,0.0,0.0,0.0,0.0,0.0,0.0,0.0,0.0,0.0,0.0,0.0,0.0,0.0,0.0,0.0,0.0,0.0,0.0,0.0,0.0,0.0,0.0,0.0,0.0,0.0,0.0,0.0,0.0,0.0,0.0,-1.1041,-1.1387,-1.1406,-1.1406,0.0,0.0,0.0,0.0,0.0,0.0,0.0,0.0,0.0,0.0,0.0,0.0,0.0,0.0,0.0,0.0,0.0,0.0,0.0,0.0,0.0,0.0,0.0,0.0,0.0,0.0,0.0,0.0,0.0,0.0,0.0,0.0,0.0,0.0,0.0,0.0,0.0,0.0,0.0,0.0,0.0,0.0,0.0,0.0,0.0,0.0,0.0,0.0,0.0,0.0,0.0,0.0,0.0,0.0,0.0,0.0,0.0,0.0,0.0,0.0,0.0,0.0,0.0,0.0,0.0,0.0,0.0,0.0,0.0,0.0,0.0,0.0,0.0,0.0,0.0,0.0,0.0,0.0,0.0,0.0,0.0,0.0,0.0,0.0,0.0,0.0,0.0,0.0,0.0,0.0,0.0,0.0,0.0,0.0,0.0,0.0,0.0,0.0,0.0,0.0,0.0,0.0,0.0,0.0,0.0,0.0,0.0,0.0,0.0,0.0,-1.1194,-1.1504,-1.1738,-1.1757,-1.1661,-1.1406,0.0,0.0,0.0,0.0,0.0,0.0,0.0,0.0,0.0,0.0,0.0,0.0,0.0,0.0,0.0,0.0,0.0,0.0,0.0,0.0,0.0,0.0,0.0,0.0,0.0,0.0,0.0,0.0,0.0,0.0,0.0,0.0,0.0,0.0,0.0,0.0,0.0,0.0,0.0,0.0,0.0,0.0,0.0,0.0,0.0,0.0,0.0,0.0,0.0,0.0,0.0,0.0,0.0,0.0,0.0,0.0,0.0,0.0,0.0,0.0,0.0,0.0,0.0,0.0,0.0,0.0,0.0,0.0,0.0,0.0,0.0,0.0,0.0,0.0,0.0,0.0,0.0,0.0,0.0,0.0,0.0,0.0,0.0,0.0,0.0,0.0,0.0,0.0,0.0,0.0,0.0,0.0,0.0,0.0,0.0,0.0,0.0,0.0,0.0,0.0,0.0,0.0,0.0,0.0,0.0,0.0,0.0,0.0,-1.243,-1.1793,-1.1793,-1.2601,-1.2642,-1.2238,0.0,0.0,0.0,0.0,0.0,0.0,0.0,0.0,0.0,0.0,0.0,0.0,0.0,0.0,0.0,0.0,0.0,0.0,0.0,0.0,0.0,0.0,0.0,0.0,0.0,0.0,0.0,0.0,0.0,0.0,0.0,0.0,0.0,0.0,0.0,0.0,0.0,0.0,0.0,0.0,0.0,0.0,0.0,0.0,0.0,0.0,0.0,0.0,0.0,0.0,0.0,0.0,0.0,0.0,0.0,0.0,0.0,0.0,0.0,0.0,0.0,0.0,0.0,0.0,0.0,0.0,0.0,0.0,0.0,0.0,0.0,0.0,0.0,0.0,0.0,0.0,0.0,0.0,0.0,0.0,0.0,0.0,0.0,0.0,0.0,0.0,0.0,0.0,0.0,0.0,0.0,0.0,0.0,0.0,0.0,0.0,0.0,0.0,0.0,0.0,0.0,0.0,0.0,0.0,0.0,0.0,0.0,0.0,0.0,-1.1004,-1.1252,-1.2039,-1.3296,-1.2403,-1.1945,0.0,0.0,0.0,0.0,0.0,0.0,0.0,0.0,0.0,0.0,0.0,0.0,0.0,0.0,0.0,0.0,0.0,0.0,0.0,0.0,0.0,0.0,0.0,0.0,0.0,0.0,0.0,0.0,0.0,0.0,0.0,0.0,0.0,0.0,0.0,0.0,0.0,0.0,0.0,0.0,0.0,0.0,0.0,0.0,0.0,0.0,0.0,0.0,0.0,0.0,0.0,0.0,0.0,0.0,0.0,0.0,0.0,0.0,0.0,0.0,0.0,0.0,0.0,0.0,0.0,0.0,0.0,0.0,0.0,0.0,0.0,0.0,0.0,0.0,0.0,0.0,0.0,0.0,0.0,0.0,0.0,0.0,0.0,0.0,0.0,0.0,0.0,0.0,0.0,0.0,0.0,0.0,0.0,0.0,0.0,0.0,0.0,0.0,0.0,0.0,0.0,0.0,0.0,0.0,0.0,0.0,0.0,0.0,0.0,-1.0883,0.0,-1.2512,-1.3251,-1.2289,-1.1727,0.0,0.0,0.0,0.0,0.0,0.0,0.0,0.0,0.0,0.0,0.0,0.0,0.0,0.0,0.0,0.0,0.0,0.0,0.0,0.0,0.0,0.0,0.0,0.0,0.0,0.0,0.0,0.0,0.0,0.0,0.0,0.0,0.0,0.0,0.0,0.0,0.0,0.0,0.0,0.0,0.0,0.0,0.0,0.0,0.0,0.0,0.0,0.0,0.0,0.0,0.0,0.0,0.0,0.0,0.0,0.0,0.0,0.0,0.0,0.0,0.0,0.0,0.0,0.0,0.0,0.0,0.0,0.0,0.0,0.0,0.0,0.0,0.0,0.0,0.0,0.0,0.0,0.0,0.0,0.0,0.0,0.0,0.0,0.0,0.0,0.0,0.0,0.0,0.0,0.0,0.0,0.0,0.0,0.0,0.0,0.0,0.0,0.0,0.0,0.0,0.0,0.0,0.0,0.0,0.0,0.0,0.0,0.0,-1.0897,-1.2386,-1.3127,-1.3153,-1.2455,-1.2364,-1.1626,0.0,0.0,0.0,0.0,0.0,0.0,0.0,0.0,0.0,0.0,0.0,0.0,0.0,0.0,0.0,0.0,0.0,0.0,0.0,0.0,0.0,0.0,0.0,0.0,0.0,0.0,0.0,0.0,0.0,0.0,0.0,0.0,0.0,0.0,0.0,0.0,0.0,0.0,0.0,0.0,0.0,0.0,0.0,0.0,0.0,0.0,0.0,0.0,0.0,0.0,0.0,0.0,0.0,0.0,0.0,0.0,0.0,0.0,0.0,0.0,0.0,0.0,0.0,0.0,0.0,0.0,0.0,0.0,0.0,0.0,0.0,0.0,0.0,0.0,0.0,0.0,0.0,0.0,0.0,0.0,0.0,0.0,0.0,0.0,0.0,0.0,0.0,0.0,0.0,0.0,0.0,0.0,0.0,0.0,0.0,0.0,0.0,0.0,0.0,0.0,0.0,0.0,0.0,0.0,0.0,0.0,0.0,0.0,0.0,-1.154,-1.2313,-1.2822,-1.3028,-1.2068,-1.1501,0.0,0.0,0.0,0.0,0.0,0.0,0.0,0.0,0.0,0.0,0.0,0.0,0.0,0.0,0.0,0.0,0.0,0.0,0.0,0.0,0.0,0.0,0.0,0.0,0.0,0.0,0.0,0.0,0.0,0.0,0.0,0.0,0.0,0.0,0.0,0.0,0.0,0.0,0.0,0.0,0.0,0.0,0.0,0.0,0.0,0.0,0.0,0.0,0.0,0.0,0.0,0.0,0.0,0.0,0.0,0.0,0.0,0.0,0.0,0.0,0.0,0.0,0.0,0.0,0.0,0.0,0.0,0.0,0.0,0.0,0.0,0.0,0.0,0.0,0.0,0.0,0.0,0.0,0.0,0.0,0.0,0.0,0.0,0.0,0.0,0.0,0.0,0.0,0.0,0.0,0.0,0.0,0.0,0.0,0.0,0.0,0.0,0.0,0.0,0.0,0.0,0.0,0.0,0.0,0.0,0.0,0.0,0.0,0.0,-1.1944,-1.2699,-1.3188,-1.3372,-1.2134,-1.1568,-1.1707,0.0,0.0,0.0,0.0,0.0,0.0,0.0,0.0,0.0,0.0,0.0,0.0,0.0,0.0,0.0,0.0,0.0,0.0,0.0,0.0,0.0,0.0,0.0,0.0,0.0,0.0,0.0,0.0,0.0,0.0,0.0,0.0,0.0,0.0,0.0,0.0,0.0,0.0,0.0,0.0,0.0,0.0,0.0,0.0,0.0,0.0,0.0,0.0,0.0,0.0,0.0,0.0,0.0,0.0,0.0,0.0,0.0,0.0,0.0,0.0,0.0,0.0,0.0,0.0,0.0,0.0,0.0,0.0,0.0,0.0,0.0,0.0,0.0,0.0,0.0,0.0,0.0,0.0,0.0,0.0,0.0,0.0,0.0,0.0,0.0,0.0,0.0,0.0,0.0,0.0,0.0,0.0,0.0,0.0,0.0,0.0,0.0,0.0,0.0,0.0,0.0,0.0,0.0,0.0,0.0,0.0,0.0,0.0,-1.323,-1.4059,-1.4114,-1.3419,-1.2545,-1.176,0.0,0.0,0.0,0.0,0.0,0.0,0.0,0.0,0.0,0.0,0.0,0.0,0.0,0.0,0.0,0.0,0.0,0.0,0.0,0.0,0.0,0.0,0.0,0.0,0.0,0.0,0.0,0.0,0.0,0.0,0.0,0.0,0.0,0.0,0.0,0.0,0.0,0.0,0.0,0.0,0.0,0.0,0.0,0.0,0.0,0.0,0.0,0.0,0.0,0.0,0.0,0.0,0.0,0.0,0.0,0.0,0.0,0.0,0.0,0.0,0.0,0.0,0.0,0.0,0.0,0.0,0.0,0.0,0.0,0.0,0.0,0.0,0.0,0.0,0.0,0.0,0.0,0.0,0.0,0.0,0.0,0.0,0.0,0.0,0.0,0.0,0.0,0.0,0.0,0.0,0.0,0.0,0.0,0.0,0.0,0.0,0.0,0.0,0.0,0.0,0.0,0.0,0.0,0.0,0.0,0.0,0.0,0.0,0.0,-1.2453,-1.3783,-1.4402,-1.415,-1.2829,-1.1999,0.0,0.0,0.0,0.0,0.0,0.0,0.0,0.0,0.0,0.0,0.0,0.0,0.0,0.0,0.0,0.0,0.0,0.0,0.0,0.0,0.0,0.0,0.0,0.0,0.0,0.0,0.0,0.0,0.0,0.0,0.0,0.0,0.0,0.0,0.0,0.0,0.0,0.0,0.0,0.0,0.0,0.0,0.0,0.0,0.0,0.0,0.0,0.0,0.0,0.0,0.0,0.0,0.0,0.0,0.0,0.0,0.0,0.0,0.0,0.0,0.0,0.0,0.0,0.0,0.0,0.0,0.0,0.0,0.0,0.0,0.0,0.0,0.0,0.0,0.0,0.0,0.0,0.0,0.0,0.0,0.0,0.0,0.0,0.0,0.0,0.0,0.0,0.0,0.0,0.0,0.0,0.0,0.0,0.0,0.0,0.0,0.0,0.0,0.0,0.0,0.0,0.0,0.0,0.0,0.0,0.0,0.0,0.0,-1.2444,-1.3104,-1.4035,-1.4488,-1.4488,-1.3594,-1.2787,0.0,0.0,0.0,0.0,0.0,0.0,0.0,0.0,0.0,0.0,0.0,0.0,0.0,0.0,0.0,0.0,0.0,0.0,0.0,0.0,0.0,0.0,0.0,0.0,0.0,0.0,0.0,0.0,0.0,0.0,0.0,0.0,0.0,0.0,0.0,0.0,0.0,0.0,0.0,0.0,0.0,0.0,0.0,0.0,0.0,0.0,0.0,0.0,0.0,0.0,0.0,0.0,0.0,0.0,0.0,0.0,0.0,0.0,0.0,0.0,0.0,0.0,0.0,0.0,0.0,0.0,0.0,0.0,0.0,0.0,0.0,0.0,0.0,0.0,0.0,0.0,0.0,0.0,0.0,0.0,0.0,0.0,0.0,0.0,0.0,0.0,0.0,0.0,0.0,0.0,0.0,0.0,0.0,0.0,0.0,0.0,0.0,0.0,0.0,0.0,0.0,0.0,0.0,0.0,0.0,0.0,0.0,0.0,-1.2926,-1.4328,-1.4457,-1.4488,-1.4488,-1.4402,-1.3673,0.0,0.0,0.0,0.0,0.0,0.0,0.0,0.0,0.0,0.0,0.0,0.0,0.0,0.0,0.0,0.0,0.0,0.0,0.0,0.0,0.0,0.0,0.0,0.0,0.0,0.0,0.0,0.0,0.0,0.0,0.0,0.0,0.0,0.0,0.0,0.0,0.0,0.0,0.0,0.0,0.0,0.0,0.0,0.0,0.0,0.0,0.0,0.0,0.0,0.0,0.0,0.0,0.0,0.0,0.0,0.0,0.0,0.0,0.0,0.0,0.0,0.0,0.0,0.0,0.0,0.0,0.0,0.0,0.0,0.0,0.0,0.0,0.0,0.0,0.0,0.0,0.0,0.0,0.0,0.0,0.0,0.0,0.0,0.0,0.0,0.0,0.0,0.0,0.0,0.0,0.0,0.0,0.0,0.0,0.0,0.0,0.0,0.0,0.0,0.0,0.0,0.0,0.0,0.0,0.0,0.0,0.0,0.0,-1.3225,-1.3537,-1.4169,-1.4488,-1.4488,-1.3875,-1.3091,0.0,0.0,0.0,0.0,0.0,0.0,0.0,0.0,0.0,0.0,0.0,0.0,0.0,0.0,0.0,0.0,0.0,0.0,0.0,0.0,0.0,0.0,0.0,0.0,0.0,0.0,0.0,0.0,0.0,0.0,0.0,0.0,0.0,0.0,0.0,0.0,0.0,0.0,0.0,0.0,0.0,0.0,0.0,0.0,0.0,0.0,0.0,0.0,-0.541,0.0,0.0,0.0,0.0,0.0,0.0,0.0,0.0,0.0,0.0,0.0,0.0,0.0,0.0,0.0,0.0,0.0,0.0,0.0,0.0,0.0,0.0,0.0,0.0,0.0,0.0,0.0,0.0,0.0,0.0,0.0,0.0,0.0,0.0,0.0,0.0,0.0,0.0,0.0,0.0,0.0,0.0,0.0,0.0,0.0,0.0,0.0,0.0,0.0,0.0,0.0,0.0,0.0,0.0,0.0,0.0,0.0,0.0,0.0,-1.3482,-1.3857,-1.4279,-1.4488,-1.4493,-1.4095,-1.3306,0.0,0.0,0.0,0.0,0.0,0.0,0.0,0.0,0.0,0.0,0.0,0.0,0.0,0.0,0.0,0.0,0.0,0.0,0.0,0.0,0.0,0.0,0.0,0.0,0.0,0.0,0.0,0.0,0.0,0.0,0.0,0.0,0.0,0.0,0.0,0.0,0.0,0.0,0.0,0.0,0.0,0.0,0.0,0.0,0.0,0.0,0.0,0.0,0.0,0.0,0.0,0.0,0.0,0.0,0.0,0.0,0.0,0.0,0.0,0.0,0.0,0.0,0.0,0.0,0.0,0.0,0.0,0.0,0.0,0.0,0.0,0.0,0.0,0.0,0.0,0.0,0.0,0.0,0.0,0.0,0.0,0.0,0.0,0.0,0.0,0.0,0.0,0.0,0.0,0.0,0.0,0.0,0.0,0.0,0.0,0.0,0.0,0.0,0.0,0.0,0.0,0.0,0.0,0.0,0.0,0.0,0.0,-1.2949,-1.3697,-1.4469,-1.4488,-1.4488,-1.4488,-1.4488,-1.3736,-1.2187,0.0,0.0,0.0,0.0,0.0,0.0,0.0,0.0,0.0,0.0,0.0,0.0,0.0,0.0,0.0,0.0,0.0,0.0,0.0,0.0,0.0,0.0,0.0,0.0,0.0,0.0,0.0,0.0,0.0,0.0,0.0,0.0,0.0,0.0,0.0,0.0,0.0,0.0,-0.8866,-0.9701,0.0,0.0,0.0,0.0,0.0,0.0,0.0,0.0,-0.7109,0.0,0.0,0.0,0.0,0.0,0.0,0.0,0.0,0.0,0.0,0.0,0.0,0.0,0.0,0.0,0.0,0.0,0.0,0.0,0.0,0.0,0.0,0.0,0.0,0.0,0.0,0.0,0.0,0.0,0.0,0.0,0.0,0.0,0.0,0.0,0.0,0.0,0.0,0.0,0.0,0.0,0.0,0.0,0.0,0.0,0.0,0.0,0.0,0.0,0.0,0.0,0.0,0.0,0.0,0.0,0.0,-1.3096,-1.3225,-1.3679,-1.4475,-1.4488,-1.4488,-1.4488,-1.4488,-1.3741,-1.2223,0.0,0.0,0.0,0.0,0.0,0.0,0.0,0.0,0.0,0.0,0.0,0.0,0.0,0.0,0.0,0.0,0.0,0.0,0.0,0.0,0.0,0.0,0.0,0.0,0.0,0.0,0.0,0.0,0.0,0.0,0.0,0.0,0.0,0.0,0.0,0.0,0.0,0.0,0.0,-0.9655,-1.0202,0.0,0.0,0.0,0.0,0.0,0.0,0.0,0.0,-0.6813,0.0,0.0,0.0,0.0,0.0,0.0,0.0,0.0,0.0,0.0,0.0,0.0,0.0,0.0,0.0,0.0,0.0,0.0,0.0,0.0,0.0,0.0,0.0,0.0,0.0,0.0,0.0,0.0,0.0,0.0,0.0,0.0,0.0,0.0,0.0,0.0,0.0,0.0,0.0,0.0,0.0,0.0,0.0,0.0,0.0,0.0,0.0,0.0,0.0,0.0,0.0,0.0,0.0,0.0,0.0,-1.2508,-1.3232,-1.3847,-1.4326,-1.4251,-1.4227,-1.4314,-1.3883,-1.3081,0.0,0.0,0.0,0.0,0.0,0.0,0.0,0.0,0.0,0.0,0.0,0.0,0.0,0.0,0.0,0.0,0.0,0.0,0.0,0.0,0.0,0.0,0.0,0.0,0.0,0.0,0.0,0.0,0.0,0.0,0.0,0.0,0.0,0.0,0.0,0.0,0.0,0.0,0.0,0.0,-0.9942,-1.019,-1.0195,0.0,0.0,0.0,0.0,0.0,0.0,-0.8004,-0.7729,0.0,0.0,0.0,0.0,0.0,0.0,0.0,0.0,0.0,0.0,0.0,0.0,0.0,0.0,0.0,0.0,0.0,0.0,0.0,0.0,0.0,0.0,0.0,0.0,0.0,0.0,0.0,0.0,0.0,0.0,0.0,0.0,0.0,0.0,0.0,0.0,0.0,0.0,0.0,0.0,0.0,0.0,0.0,0.0,0.0,0.0,0.0,0.0,0.0,0.0,0.0,0.0,0.0,0.0,0.0,-1.183,-1.2943,-1.3742,-1.4111,-1.3983,-1.3958,-1.4118,-1.3422,-1.2644,0.0,0.0,0.0,0.0,0.0,0.0,0.0,0.0,0.0,0.0,0.0,0.0,0.0,0.0,0.0,0.0,0.0,0.0,0.0,0.0,0.0,0.0,0.0,0.0,0.0,0.0,0.0,0.0,0.0,0.0,0.0,0.0,0.0,0.0,0.0,0.0,0.0,0.0,0.0,0.0,0.0,-1.0201,-1.0202,-1.0201,0.0,0.0,0.0,0.0,-0.9312,-0.9092,0.0,0.0,0.0,0.0,0.0,0.0,0.0,0.0,0.0,0.0,0.0,0.0,0.0,0.0,0.0,0.0,0.0,0.0,0.0,0.0,0.0,0.0,0.0,0.0,0.0,0.0,0.0,0.0,0.0,0.0,0.0,0.0,0.0,0.0,0.0,0.0,0.0,0.0,0.0,0.0,0.0,0.0,0.0,0.0,0.0,0.0,0.0,0.0,0.0,0.0,0.0,0.0,0.0,0.0,0.0,0.0,-1.1747,-1.2117,-1.2832,-1.3856,-1.392,-1.392,-1.3941,-1.3832,-1.3141,0.0,0.0,0.0,0.0,0.0,0.0,0.0,0.0,0.0,0.0,0.0,0.0,0.0,0.0,0.0,0.0,0.0,0.0,0.0,0.0,0.0,0.0,0.0,0.0,0.0,0.0,0.0,0.0,0.0,0.0,0.0,0.0,0.0,0.0,0.0,0.0,0.0,0.0,0.0,0.0,0.0,-1.0187,-1.0188,-1.0192,-1.0196,0.0,0.0,-0.9303,-0.9939,-0.9412,0.0,0.0,0.0,0.0,0.0,0.0,0.0,0.0,0.0,0.0,0.0,0.0,0.0,0.0,0.0,0.0,0.0,0.0,0.0,0.0,0.0,0.0,0.0,0.0,0.0,0.0,0.0,0.0,0.0,0.0,0.0,0.0,0.0,0.0,0.0,0.0,0.0,0.0,0.0,0.0,0.0,0.0,0.0,0.0,0.0,0.0,0.0,0.0,0.0,0.0,0.0,0.0,0.0,0.0,0.0,-1.0638,-1.1522,-1.2393,-1.3131,-1.3696,-1.365,-1.365,-1.3739,-1.3266,-1.2526,0.0,0.0,0.0,0.0,0.0,0.0,0.0,0.0,0.0,0.0,0.0,0.0,0.0,0.0,0.0,0.0,0.0,0.0,0.0,0.0,0.0,0.0,0.0,0.0,0.0,0.0,0.0,0.0,0.0,0.0,0.0,0.0,0.0,0.0,0.0,0.0,0.0,0.0,0.0,0.0,0.0,0.0,-1.019,-1.0186,0.0,0.0,0.0,-1.0347,-1.0219,0.0,0.0,0.0,0.0,0.0,0.0,0.0,0.0,0.0,0.0,0.0,0.0,0.0,0.0,0.0,0.0,0.0,0.0,0.0,0.0,0.0,0.0,0.0,0.0,0.0,0.0,0.0,0.0,0.0,0.0,0.0,0.0,0.0,0.0,0.0,0.0,0.0,0.0,0.0,0.0,0.0,0.0,0.0,0.0,0.0,0.0,0.0,0.0,0.0,0.0,0.0,0.0,0.0,0.0,0.0,0.0,0.0,-1.1323,-1.2688,-1.3437,-1.3548,-1.3454,-1.3454,-1.3523,-1.2926,0.0,0.0,0.0,0.0,0.0,0.0,0.0,0.0,0.0,0.0,0.0,0.0,0.0,0.0,0.0,0.0,0.0,0.0,0.0,0.0,0.0,0.0,0.0,0.0,0.0,0.0,0.0,-0.5062,0.0,0.0,0.0,0.0,0.0,0.0,0.0,0.0,0.0,0.0,0.0,0.0,0.0,0.0,-1.0498,-1.0495,-1.0672,-1.083,0.0,0.0,-1.1243,-1.0599,-1.0804,-1.0878,0.0,0.0,0.0,0.0,0.0,0.0,0.0,0.0,0.0,0.0,0.0,0.0,0.0,0.0,0.0,0.0,0.0,0.0,0.0,0.0,0.0,0.0,0.0,0.0,0.0,0.0,0.0,0.0,0.0,0.0,0.0,0.0,0.0,0.0,0.0,0.0,0.0,0.0,0.0,0.0,0.0,0.0,0.0,0.0,0.0,0.0,0.0,0.0,0.0,0.0,0.0,0.0,0.0,0.0,-1.0824,-1.1341,-1.268,-1.3405,-1.3421,-1.3405,-1.3396,-1.3405,-1.3371,-1.2688,0.0,0.0,0.0,0.0,0.0,0.0,0.0,0.0,0.0,0.0,0.0,0.0,0.0,0.0,0.0,0.0,0.0,0.0,0.0,0.0,0.0,0.0,0.0,0.0,0.0,0.0,0.0,0.0,0.0,0.0,0.0,0.0,0.0,0.0,0.0,0.0,0.0,0.0,0.0,0.0,0.0,-1.1315,-1.1337,-1.2013,-1.2523,0.0,0.0,-1.1364,-1.1329,-1.0681,-1.0192,-1.0186,0.0,0.0,0.0,0.0,0.0,0.0,0.0,0.0,0.0,0.0,0.0,0.0,0.0,0.0,0.0,0.0,0.0,0.0,0.0,0.0,0.0,0.0,0.0,0.0,0.0,0.0,0.0,0.0,0.0,0.0,0.0,0.0,0.0,0.0,0.0,0.0,0.0,0.0,0.0,0.0,0.0,0.0,0.0,0.0,0.0,0.0,0.0,0.0,0.0,0.0,0.0,0.0,0.0,-1.0714,-1.1186,-1.2641,-1.3396,-1.3396,-1.3396,-1.3396,-1.3396,-1.3396,-1.2692,0.0,0.0,0.0,0.0,0.0,0.0,0.0,0.0,0.0,0.0,0.0,0.0,0.0,0.0,0.0,0.0,0.0,0.0,0.0,0.0,0.0,0.0,0.0,0.0,0.0,0.0,0.0,0.0,-0.5695,-0.6137,-0.6135,0.0,0.0,0.0,0.0,0.0,0.0,0.0,0.0,0.0,0.0,-1.1405,-1.1408,-1.2146,0.0,0.0,-1.2854,-1.2633,-1.1569,-1.1581,-1.1346,-1.0318,-1.0175,0.0,0.0,0.0,0.0,0.0,0.0,0.0,0.0,0.0,0.0,0.0,0.0,0.0,0.0,0.0,0.0,0.0,0.0,0.0,0.0,0.0,0.0,0.0,0.0,0.0,0.0,0.0,0.0,0.0,0.0,0.0,0.0,0.0,0.0,0.0,0.0,0.0,0.0,0.0,0.0,0.0,0.0,0.0,0.0,0.0,0.0,0.0,0.0,0.0,0.0,0.0,0.0,-1.0759,-1.1113,-1.2609,-1.3396,-1.3396,-1.3396,-1.3286,-1.3074,-1.3269,-1.266,0.0,0.0,0.0,0.0,0.0,0.0,0.0,0.0,0.0,0.0,0.0,0.0,0.0,0.0,0.0,0.0,0.0,0.0,0.0,0.0,0.0,0.0,0.0,0.0,0.0,0.0,0.0,0.0,-0.6332,-0.6638,-0.6294,0.0,0.0,0.0,0.0,0.0,0.0,0.0,0.0,0.0,0.0,-1.18,-1.2034,-1.281,-1.3376,-1.3383,-1.3713,-1.3465,-1.2011,-1.2317,-1.2127,-1.041,0.0,0.0,0.0,0.0,0.0,0.0,0.0,0.0,0.0,0.0,0.0,0.0,0.0,0.0,0.0,0.0,0.0,0.0,0.0,0.0,0.0,0.0,0.0,0.0,0.0,0.0,0.0,-0.9739,0.0,0.0,-0.8722,0.0,0.0,0.0,0.0,0.0,0.0,0.0,0.0,0.0,0.0,0.0,0.0,0.0,0.0,0.0,0.0,0.0,0.0,0.0,0.0,0.0,0.0,-1.1096,-1.1113,-1.2617,-1.3396,-1.3396,-1.3396,-1.3074,-1.2398,-1.3032,-1.2685,-1.1171,0.0,0.0,0.0,0.0,0.0,0.0,0.0,0.0,0.0,0.0,0.0,0.0,0.0,0.0,0.0,0.0,0.0,0.0,0.0,0.0,0.0,0.0,0.0,0.0,0.0,0.0,-0.7114,-0.6907,-0.6266,0.0,0.0,0.0,0.0,0.0,0.0,0.0,0.0,0.0,0.0,-1.1829,-1.2681,-1.3417,-1.4331,-1.4891,-1.4926,-1.4357,-1.3632,-1.2813,-1.268,-1.2121,0.0,0.0,0.0,0.0,0.0,0.0,0.0,0.0,0.0,0.0,0.0,0.0,0.0,0.0,0.0,0.0,0.0,0.0,0.0,0.0,0.0,0.0,0.0,0.0,0.0,0.0,0.0,-1.1201,-1.0846,0.0,0.0,0.0,0.0,0.0,0.0,0.0,0.0,0.0,0.0,0.0,-1.2151,-1.2406,0.0,0.0,0.0,0.0,0.0,0.0,0.0,0.0,0.0,0.0,0.0,0.0,-1.1113,-1.118,-1.2617,-1.3396,-1.3396,-1.3396,-1.3278,-1.3049,-1.3261,-1.2931,-1.1932,0.0,0.0,0.0,0.0,0.0,0.0,0.0,0.0,0.0,0.0,0.0,0.0,0.0,0.0,0.0,0.0,0.0,0.0,0.0,0.0,0.0,0.0,0.0,0.0,0.0,-0.7033,0.0,0.0,0.0,0.0,0.0,0.0,0.0,0.0,0.0,0.0,0.0,-1.0819,-1.1067,-1.2384,-1.3427,-1.3686,-1.4538,-1.5133,0.0,0.0,0.0,0.0,0.0,0.0,0.0,0.0,0.0,0.0,0.0,0.0,0.0,0.0,-1.0271,-0.8003,-0.7613,-0.7825,-0.8428,0.0,0.0,0.0,0.0,0.0,0.0,0.0,0.0,0.0,0.0,0.0,0.0,0.0,0.0,-1.2702,0.0,-1.21,0.0,0.0,0.0,0.0,0.0,0.0,0.0,0.0,-1.2902,-1.334,-1.331,-1.3562,-1.3436,0.0,-1.3045,-1.2309,0.0,0.0,0.0,0.0,0.0,0.0,0.0,0.0,-1.1526,-1.157,-1.2762,-1.3396,-1.3396,-1.3396,-1.3278,-1.3024,-1.3024,-1.2795,-1.2297,-1.0866,-1.0047,0.0,0.0,0.0,0.0,0.0,0.0,0.0,0.0,0.0,0.0,0.0,0.0,0.0,0.0,0.0,0.0,0.0,0.0,0.0,0.0,0.0,0.0,0.0,-0.7457,0.0,0.0,0.0,0.0,0.0,0.0,0.0,0.0,0.0,-0.9449,-1.0414,-1.127,-1.1792,-1.2879,-1.3753,-1.4072,0.0,0.0,0.0,0.0,0.0,0.0,0.0,-1.2865,-1.2188,-1.1648,-1.1233,-1.0955,-1.0926,-1.1106,-1.1698,0.0,0.0,-0.9679,-0.9367,-0.9567,-1.0189,-0.987,-0.9723,-1.0506,-1.0248,-0.991,0.0,0.0,0.0,0.0,0.0,0.0,0.0,0.0,-1.4326,-1.4209,0.0,-1.3547,0.0,0.0,0.0,0.0,0.0,-1.3012,0.0,0.0,-1.4031,-1.4259,-1.4841,-1.4856,-1.4498,-1.3987,-1.5417,-1.5078,-1.3061,-1.1356,0.0,0.0,0.0,0.0,0.0,0.0,-1.2298,-1.2281,-1.2982,-1.3388,-1.3396,-1.3396,-1.3074,-1.2398,-1.2365,-1.2372,-1.2348,-1.2288,-1.1579,-1.0136,-0.9343,0.0,0.0,0.0,0.0,0.0,0.0,0.0,0.0,0.0,0.0,0.0,0.0,0.0,0.0,0.0,0.0,0.0,0.0,0.0,0.0,-0.7908,0.0,0.0,0.0,0.0,0.0,0.0,0.0,0.0,0.0,0.0,-1.0971,-1.1109,-1.1626,-1.3085,0.0,0.0,0.0,0.0,-1.4871,-1.492,-1.5041,-1.478,-1.3964,-1.3732,-1.3144,-1.1607,0.0,0.0,-1.0235,-1.0092,-1.0151,-1.0178,-1.0342,-1.0714,-1.2315,-1.237,-1.2393,-1.2503,-1.2392,-1.237,-1.1718,-1.1328,-1.1133,-1.9554,0.0,0.0,0.0,0.0,-1.7211,-1.7347,-1.7485,-1.6894,-1.6383,-1.5976,-1.5766,0.0,0.0,0.0,0.0,0.0,0.0,-1.5815,-1.5572,-1.6247,-1.6443,-1.6144,-1.6159,-1.583,-1.5244,-1.522,-1.4673,-1.3599,-1.3071,-1.236,-1.1466,0.0,0.0,0.0,0.0,-1.2305,-1.2083,-1.2747,-1.32,-1.3396,-1.3396,-1.3312,-1.3091,-1.3091,-1.3083,-1.3074,-1.2567,-1.2003,-1.1378,-1.0292,0.0,0.0,0.0,0.0,0.0,0.0,0.0,0.0,0.0,0.0,0.0,0.0,0.0,0.0,0.0,0.0,0.0,0.0,0.0,-0.7967,-0.7714,-0.7507,0.0,0.0,0.0,0.0,0.0,0.0,0.0,0.0,0.0,-1.2534,-1.2644,-1.2839,0.0,0.0,-1.4417,-1.4799,-1.4353,-1.3982,-1.3993,-1.3539,0.0,0.0,-1.2293,-1.1974,-1.2019,-1.1565,-1.1311,-1.1727,-1.1321,-1.1119,-1.1667,-1.188,-1.2122,-1.2471,-1.1669,-1.0965,-1.0917,-1.0948,-1.0874,-1.0677,-1.0624,-1.0605,-2.2278,-2.0374,-1.9597,-1.9119,-1.8924,-1.9178,-1.9208,-1.9091,-1.8954,-1.867,-1.8265,-1.8012,-1.7268,-1.6259,-1.6226,0.0,0.0,0.0,-1.7137,-1.6758,-1.7404,-1.7473,-1.7115,-1.71,-1.6891,-1.6533,-1.6032,-1.5519,-1.4948,-1.4839,-1.4206,-1.3109,0.0,0.0,-1.2341,-1.3122,-1.3411,-1.3183,-1.3451,-1.3678,-1.3819,-1.3557,-1.3396,-1.3396,-1.3396,-1.3396,-1.3396,-1.2973,-1.2478,-1.1915,-1.0965,-1.0053,0.0,0.0,0.0,0.0,0.0,0.0,0.0,0.0,0.0,0.0,0.0,-0.6295,-0.6926,0.0,0.0,0.0,-0.7226,-0.7883,-0.8147,-0.8254,0.0,0.0,0.0,0.0,0.0,0.0,0.0,-1.0635,-1.1788,-1.2747,-1.323,-1.3587,-1.3803,-1.3881,-1.4304,-1.4666,-1.4799,0.0,-1.4045,-1.4105,-1.3705,-1.3365,-1.3324,-1.2392,-1.1584,-1.1288,-1.0919,-1.0783,-1.1298,-1.1011,-1.0906,-1.1331,-1.1563,-1.1631,-1.1631,-1.0776,-1.0383,-1.1036,-1.1196,-1.1102,-1.0799,-1.0755,-1.0682,-2.4739,-2.4545,-2.2742,-2.159,-2.1002,-2.1545,-2.107,-1.9992,-2.0543,-2.0763,-2.0752,-2.0142,-1.9828,-1.9708,-1.8491,0.0,-1.7936,-1.7953,-1.7953,-1.7921,-1.7876,-1.7863,-1.7847,-1.7803,-1.7772,-1.7773,-1.7456,-1.715,-1.6757,-1.6463,-1.6016,-1.5393,-1.4729,-1.449,-1.4655,-1.4982,-1.513,-1.5098,-1.4725,-1.4512,-1.4441,-1.3777,-1.3396,-1.3396,-1.3396,-1.3396,-1.3396,-1.3379,-1.2958,-1.205,-1.1386,-1.0634,-0.9688,0.0,0.0,0.0,0.0,0.0,0.0,0.0,0.0,0.0,0.0,0.0,0.0,0.0,0.0,0.0,-0.9126,0.0,-0.807,-0.9315,0.0,0.0,0.0,-1.179,-1.1761,-1.1978,-1.2152,-1.2167,0.0,0.0,-1.3385,-1.404,-1.4488,-1.4488,-1.4488,-1.455,-1.4687,-1.4609,-1.4625,-1.4644,-1.4647,-1.4633,-1.4268,-1.3057,-1.159,-1.0286,-0.9739,-0.9806,-0.9881,-0.9879,-0.985,-0.9991,-0.9976,-1.0047,-1.0006,-1.0086,-1.057,-1.203,-1.2358,-1.2184,-1.144,-1.1251,-1.1028,-2.5839,-2.5307,-2.4866,-2.3999,-2.2892,-2.2598,-2.2283,-2.1969,-2.1605,-2.1455,-2.144,-2.1291,-2.0946,-2.0434,-2.012,-1.9986,-1.9986,-1.9986,-1.9986,-1.9956,-1.9465,-1.9211,-1.9181,-1.8717,-1.8463,-1.8418,-1.7886,-1.7539,-1.7429,-1.6893,-1.6774,-1.7044,-1.6443,-1.5754,-1.5089,-1.5437,-1.5492,-1.5177,-1.5081,-1.4719,-1.4136,-1.3646,-1.3396,-1.3396,-1.3396,-1.3396,-1.3396,-1.32,-1.3073,-1.2992,-1.1514,-1.0503,-1.0213,-0.9122,0.0,0.0,0.0,0.0,0.0,0.0,0.0,0.0,0.0,-0.7507,-0.7418,0.0,-0.8728,0.0,-0.8962,-0.9127,-0.9572,-0.9968,0.0,0.0,-1.1362,-1.1552,-1.1436,-1.2094,-1.2615,-1.2774,-1.3491,-1.4053,-1.4188,-1.4383,-1.4488,-1.4488,-1.4488,-1.4569,-1.4663,-1.4045,-1.3642,-1.3659,-1.328,-1.2771,-1.2799,-1.1916,-1.1158,-1.0758,-1.0153,-0.971,-0.9777,-0.9791,-0.9801,-0.9828,-0.9872,-0.9916,-0.9924,-0.9967,-1.0151,-1.0568,-1.0724,-1.0755,-1.0536,-1.0519,-1.0442,-2.7096,-2.6497,-2.6482,-2.6048,-2.5323,-2.4395,-2.3999,-2.3924,-2.3281,-2.2975,-2.293,-2.2398,-2.1754,-2.1156,-2.1156,-2.1156,-2.1141,-2.1156,-2.1156,-2.1126,-2.0468,-2.0139,-2.0124,-1.9465,-1.9154,-1.9121,-1.8461,-1.8147,-1.8117,-1.7474,-1.7189,-1.7249,-1.6891,-1.6428,-1.5921,-1.6543,-1.6869,-1.6844,-1.6192,-1.5213,-1.3883,-1.3605,-1.3558,-1.3693,-1.3567,-1.3542,-1.3711,-1.3521,-1.3317,-1.3034,-1.1926,-1.1171,-1.0887,-1.0097,-0.9462,0.0,0.0,0.0,0.0,0.0,0.0,0.0,0.0,0.0,0.0,0.0,-0.9542,-0.9846,-1.0218,-1.0611,-1.1086,-1.1428,-1.1794,-1.2187,-1.2363,-1.2391,-1.2324,-1.2868,-1.3283,-1.3377,-1.379,-1.411,-1.4214,-1.4307,-1.4368,-1.4375,-1.4447,-1.4522,-1.4558,-1.4132,-1.3844,-1.3826,-1.3453,-1.3018,-1.2711,-1.2265,-1.1723,-1.108,-1.0572,-1.0155,-0.9821,-0.9754,-0.9754,-0.9761,-0.9811,-0.986,-0.9866,-0.9929,-0.9971,-0.9999,-1.007,-1.0115,-1.0159,-1.0192,-1.0184,-2.8323,-2.775,-2.772,-2.7675,-2.7495,-2.6348,-2.5809,-2.5689,-2.5008,-2.4679,-2.4545,-2.343,-2.2583,-2.1949,-2.1934,-2.1934,-2.1934,-2.1879,-2.1814,-2.1784,-2.1122,-2.0797,-2.0673,-2.0094,-1.9798,-1.9678,-1.9106,-1.8837,-1.8822,-1.8147,-1.7563,-1.7084,-1.6995,-1.7026,-1.7194,-1.7898,-1.8423,-1.8718,-1.7411,-1.5842,-1.4079,-1.3962,-1.4061,-1.4331,-1.3949,-1.3821,-1.4028,-1.4047,-1.3624,-1.2771,-1.2418,-1.2057,-1.1626,-1.1042,-1.0333,0.0,-0.9611,0.0,0.0,0.0,0.0,0.0,0.0,0.0,0.0,-1.0227,-1.0548,-1.1221,-1.1992,-1.2432,-1.2432,-1.3015,-1.3396,-1.3405,-1.3509,-1.3553,-1.3561,-1.3731,-1.3842,-1.3853,-1.3853,-1.3853,-1.391,-1.4083,-1.4195,-1.422,-1.4381,-1.4493,-1.4493,-1.4475,-1.4433,-1.4488,-1.4488,-1.4095,-1.3574,-1.3335,-1.2779,-1.154,-1.1154,-1.0806,-1.0213,-0.9959,-0.9867,-0.9875,-0.9839,-0.9774,-0.9796,-0.9847,-0.9923,-0.9968,-0.997,-1.0027,-1.009,-1.0162,-1.0187,-2.9037,-2.8412,-2.8397,-2.8109,-2.7585,-2.733,-2.6911,-2.6348,-2.5681,-2.5098,-2.4605,-2.435,-2.3872,-2.3251,-2.3251,-2.3251,-2.3221,-2.2733,-2.2523,-2.2478,-2.1814,-2.1231,-2.0703,-2.0587,-2.0228,-1.9723,-1.9573,-1.9513,-1.9513,-1.8837,-1.87,-1.9106,-1.858,-1.8768,-1.9544,0.0,0.0,0.0,-1.7164,-1.6598,-1.6211,-1.5887,-1.5741,-1.5764,-1.4905,0.0,-1.3737,-1.3998,-1.3922,-1.3404,-1.2437,0.0,0.0,0.0,0.0,0.0,0.0,0.0,0.0,0.0,0.0,0.0,-1.0851,-1.0595,-1.0876,-1.1492,-1.1942,-1.2077,-1.2762,-1.3193,-1.321,-1.3303,-1.3396,-1.3396,-1.3421,-1.3438,-1.3438,-1.3479,-1.3543,-1.3648,-1.3671,-1.3731,-1.3948,-1.4072,-1.4206,-1.4218,-1.4375,-1.4482,-1.4482,-1.4482,-1.4488,-1.4488,-1.4488,-1.4457,-1.431,-1.3715,-1.328,-1.2797,-1.226,-1.1838,-1.1586,-1.1026,-1.0677,-1.0659,-1.0147,-0.9747,-0.9751,-0.9782,-0.9828,-0.9825,-0.9878,-0.9938,-1.0074,-1.0136,-1.019,-2.9654,0.0,-2.9086,-2.8723,0.0,-2.8109,-2.772,-2.7061,-2.6378,-2.5719,-2.5098,-2.5083,-2.4709,-2.4081,-2.4081,-2.3924,-2.358,-2.3281,-2.3152,-2.3122,-2.2493,-2.2029,-2.1665,-2.1021,-2.0543,-2.0183,-1.9872,-1.9723,-1.9693,-1.9378,-1.9196,-1.9196,-1.8867,-1.8806,-1.8994,-1.8143,-1.7549,-1.7219,-1.6906,-1.6444,-1.5834,-1.56,-1.5443,-1.5254,0.0,0.0,0.0,0.0,0.0,0.0,0.0,0.0,0.0,0.0,0.0,-1.1103,-1.1209,-1.1243,-1.1106,-1.1336,-1.1666,-1.2029,-1.2057,-1.1937,-1.1697,-1.2406,-1.2846,-1.2838,-1.3185,-1.3396,-1.3396,-1.3396,-1.3396,-1.3396,-1.3396,-1.3523,-1.3879,-1.3938,-1.4117,-1.4511,-1.4598,-1.4641,-1.4744,-1.4566,-1.4488,-1.4475,-1.4309,-1.4237,-1.4232,-1.4362,-1.4488,-1.4488,-1.4488,-1.4488,-1.4469,-1.42,-1.3721,-1.3372,-1.2963,-1.2559,-1.2155,-1.1783,-1.1508,-1.143,-1.0828,-1.0296,-1.0264,-1.0031,-0.9765,-0.9788,-0.9812,-0.9897,-0.9986,-1.0063,-1.0111,-3.0313,-2.9771,-2.9771,-2.9397,-2.8786,-2.8771,-2.8408,-2.772,0.0,0.0,0.0,-2.5779,-2.542,-2.4784,-2.4784,-2.4395,-2.3789,-2.3789,-2.3714,-2.358,-2.3092,-2.2808,-2.2643,-2.156,-2.0987,-2.0838,-2.0198,-1.9869,-1.9887,-1.9753,-1.9405,-1.8912,-1.8882,-1.8521,-1.7893,-1.7324,-1.6936,-1.6711,-1.6773,-1.6322,-1.5309,-1.5264,-1.5108,-1.4869,-1.4389,-1.396,-1.3571,-1.3509,-1.3156,-1.2533,-1.2587,-1.2534,-1.2308,-1.2194,-1.2024,-1.1822,-1.2018,-1.2024,-1.1811,-1.2071,-1.2272,-1.2432,-1.2858,-1.2943,-1.2535,-1.3049,-1.3456,-1.3574,-1.3591,-1.365,-1.376,-1.3777,-1.3786,-1.3786,-1.3786,-1.4048,-1.4588,-1.4689,-1.4919,-1.5477,-1.552,-1.5578,-1.554,-1.525,-1.4977,-1.4968,-1.4703,-1.4316,-1.4324,-1.4429,-1.4435,-1.4429,-1.4458,-1.4488,-1.4488,-1.4434,-1.419,-1.3673,-1.3505,-1.3206,-1.2719,-1.2412,-1.232,-1.232,-1.165,-1.1132,-1.0875,-1.0392,-0.9905,-0.9812,-0.9793,-0.9801,-0.986,-0.993,-0.9982,-3.0957,-3.0372,-3.0372,-3.0013,-2.9457,-2.9472,-2.9071,-2.8412,-2.7764,-2.7091,-2.6452,-2.6452,-2.6093,-2.5442,-2.5465,-2.5098,-2.447,-2.447,-2.4141,-2.361,-2.352,-2.3212,-2.2703,-2.2508,-2.2134,-2.153,-2.0868,-2.0572,-2.0494,-1.9974,-1.9648,-1.9573,-1.9558,-1.9211,-1.8612,-1.8478,-1.7863,-1.6741,-1.7103,-1.7198,-1.7042,-1.7027,-1.7008,-1.6926,-1.5981,-1.5228,-1.4622,-1.4562,-1.4251,-1.3605,-1.3063,-1.2758,-1.2708,-1.22,-1.1833,-1.1816,-1.1837,-1.1837,-1.1816,-1.2034,-1.2551,-1.3309,-1.3483,-1.3443,-1.3278,-1.3345,-1.3659,-1.425,-1.4325,-1.4605,-1.5199,-1.5233,-1.5189,-1.5223,-1.5266,-1.5334,-1.5443,-1.5433,-1.5511,-1.568,-1.5595,-1.5646,-1.5733,-1.5727,-1.5727,-1.5756,-1.5601,-1.578,-1.554,-1.492,-1.4322,-1.4264,-1.4405,-1.4494,-1.4447,-1.4332,-1.4247,-1.4348,-1.4144,-1.3999,-1.3964,-1.3474,-1.3149,-1.3128,-1.2462,-1.176,-1.115,-1.0834,-1.0466,-1.0001,-0.9821,-0.981,-0.9835,-0.9834,-0.9875,-3.1316,-3.1076,-3.1032,-3.0672,-3.0058,-2.9729,-2.9232,-2.8592,-2.8263,-2.7764,-2.718,-2.7151,-2.6791,-2.6168,-2.6138,-2.5779,-2.5128,-2.4769,-2.444,-2.4148,-2.3759,-2.3445,-2.3182,-2.2832,-2.2538,-2.2188,-2.156,-2.1246,-2.1166,-2.0572,-2.0243,-2.0213,-1.9869,-1.9558,-1.9241,-1.8882,-1.8386,-1.7788,-1.7288,-1.6876,-1.6539,-1.6539,-1.6369,-1.6004,-1.5507,-1.4946,-1.4302,-1.4246,-1.4109,-1.3797,-1.351,-1.3358,-1.3331,-1.3047,-1.287,-1.287,-1.2897,-1.2897,-1.2897,-1.2988,-1.3333,-1.3885,-1.3924,-1.3965,-1.4049,-1.4047,-1.4258,-1.4775,-1.4828,-1.5041,-1.5542,-1.5595,-1.5595,-1.5595,-1.5595,-1.5774,-1.6113,-1.6197,-1.635,-1.6712,-1.6813,-1.6786,-1.6786,-1.6533,-1.6331,-1.6324,-1.6146,-1.59,-1.5926,-1.5496,-1.4998,-1.4684,-1.4378,-1.4198,-1.4193,-1.4201,-1.4245,-1.4338,-1.4246,-1.4245,-1.432,-1.3968,-1.3823,-1.3738,-1.3205,-1.2682,-1.22,-1.1833,-1.1269,-1.0586,-1.0333,-1.0251,-0.9902,-0.976,-0.986,-3.1496,-3.1496,-3.1496,-3.1197,-3.0672,-3.0058,-2.949,-2.9026,-2.8876,-2.8468,-2.7854,-2.7675,-2.7315,-2.6866,-2.6836,-2.6452,-2.5824,-2.5277,-2.4889,-2.456,-2.4073,-2.3744,-2.3565,-2.3107,-2.2897,-2.2823,-2.2254,-2.1919,-2.1844,-2.1261,-2.0823,-2.0692,-2.0183,-1.9839,-1.9693,-1.9181,-1.8852,-1.8657,-1.7684,-1.6771,-1.6024,-1.6009,-1.5694,-1.508,-1.5035,-1.4782,-1.4288,-1.4109,-1.4021,-1.4019,-1.3872,-1.3797,-1.3797,-1.3797,-1.3797,-1.3797,-1.3797,-1.3797,-1.3797,-1.3797,-1.3971,-1.4304,-1.4341,-1.4477,-1.4827,-1.4883,-1.4979,-1.52,-1.5245,-1.5392,-1.5833,-1.5976,-1.5983,-1.5983,-1.6072,-1.6373,-1.6841,-1.6942,-1.7151,-1.7698,-1.7789,-1.7755,-1.7698,-1.7304,-1.6976,-1.6868,-1.6451,-1.612,-1.6106,-1.6143,-1.5858,-1.5392,-1.4699,-1.4151,-1.3984,-1.3969,-1.4076,-1.4116,-1.4072,-1.4065,-1.4092,-1.4111,-1.4118,-1.403,-1.3805,-1.3377,-1.3227,-1.28,-1.2095,-1.1379,-1.1173,-1.092,-1.0217,-0.9887,-0.9841,-3.1496,-3.1496,-3.1496,-3.1466,-3.1301,-3.0673,-3.0372,-3.0223,-2.9729,-2.9131,-2.8487,-2.7884,-2.7585,-2.751,-2.748,-2.7106,-2.6512,-2.6437,-2.5764,-2.4724,-2.4545,-2.4186,-2.367,-2.355,-2.352,-2.3415,-2.2862,-2.2598,-2.2568,-2.1934,-2.1291,-2.0763,-2.0628,-2.0303,-1.9765,-1.9633,-1.9303,-1.8732,-1.8565,-1.7893,-1.6696,-1.6622,-1.6308,-1.5724,-1.5709,-1.5694,-1.5529,-1.502,-1.4707,-1.4676,-1.4154,-1.3812,-1.3827,-1.3812,-1.3812,-1.3827,-1.3827,-1.3797,-1.3812,-1.3797,-1.4122,-1.4658,-1.4759,-1.5014,-1.5582,-1.5673,-1.5662,-1.5684,-1.5639,-1.5943,-1.6599,-1.6913,-1.702,-1.7006,-1.7266,-1.7631,-1.7614,-1.771,-1.7715,-1.7777,-1.7789,-1.7789,-1.7783,-1.7665,-1.7648,-1.7563,-1.7439,-1.7326,-1.7304,-1.6946,-1.6591,-1.6331,-1.5618,-1.4714,-1.4184,-1.3761,-1.3896,-1.3963,-1.3798,-1.3791,-1.3878,-1.3927,-1.3927,-1.3931,-1.4031,-1.3798,-1.337,-1.3039,-1.2892,-1.2128,-1.1845,-1.17,-1.0961,-1.0382,-1.0079,-3.1496,-3.1496,-3.1496,-3.1496,-3.1451,-3.1197,-3.0853,-3.0477,-3.0238,-2.9774,-2.9205,-2.8876,-2.8349,-2.76,-2.7585,-2.7435,-2.718,-2.6767,-2.6333,-2.5764,-2.5367,-2.4829,-2.4246,-2.4208,-2.4014,-2.361,-2.334,-2.3221,-2.3116,-2.2577,-2.1969,-2.1286,-2.0912,-2.0572,-2.0288,-1.9884,-1.9558,-1.9301,-1.9303,-1.8822,-1.7953,-1.7488,-1.6996,-1.6413,-1.6353,-1.6144,-1.5814,-1.5529,-1.5394,-1.5394,-1.511,-1.4975,-1.499,-1.4975,-1.4975,-1.499,-1.499,-1.4975,-1.4975,-1.499,-1.5095,-1.5365,-1.538,-1.5529,-1.5769,-1.5814,-1.5927,-1.6216,-1.6169,-1.6284,-1.676,-1.7101,-1.7292,-1.7356,-1.7612,-1.7805,-1.7789,-1.7789,-1.7789,-1.7789,-1.7789,-1.7789,-1.7789,-1.7789,-1.7789,-1.7789,-1.7789,-1.7789,-1.7766,-1.7523,-1.7196,-1.676,-1.6275,-1.575,-1.5029,-1.4562,-1.4405,-1.4314,-1.3959,-1.3663,-1.3693,-1.3731,-1.3731,-1.3731,-1.3899,-1.3922,-1.3661,-1.3647,-1.3551,-1.2811,-1.2104,-1.183,-1.1626,-1.1374,-1.1204,-3.1496,-3.1496,-3.1496,-3.1496,-3.1496,-3.1496,-3.1212,-3.0821,-3.0748,-3.0432,-2.9891,-2.9861,-2.9232,-2.8229,-2.7974,-2.7779,-2.7555,-2.7091,-2.6776,-2.6557,-2.6093,-2.5525,-2.4903,-2.4664,-2.435,-2.3924,-2.367,-2.3595,-2.355,-2.3197,-2.2613,-2.1964,-2.1485,-2.1066,-2.0673,-2.0183,-1.9887,-1.9723,-1.9723,-1.9468,-1.8957,-1.8508,-1.7848,-1.7054,-1.6965,-1.6697,-1.6069,-1.6054,-1.5949,-1.5814,-1.5814,-1.5814,-1.5814,-1.5814,-1.5814,-1.5829,-1.5964,-1.5964,-1.5829,-1.6129,-1.6248,-1.6069,-1.6188,-1.6323,-1.6323,-1.6323,-1.6518,-1.6862,-1.6803,-1.6818,-1.7025,-1.7359,-1.7539,-1.7565,-1.7864,-1.8066,-1.8074,-1.8005,-1.7912,-1.7831,-1.7688,-1.7658,-1.767,-1.7715,-1.7789,-1.7789,-1.7789,-1.7789,-1.7789,-1.7766,-1.7574,-1.7094,-1.7004,-1.657,-1.5791,-1.5278,-1.5002,-1.4633,-1.4161,-1.3825,-1.3609,-1.3548,-1.3548,-1.3581,-1.3724,-1.3785,-1.3701,-1.382,-1.396,-1.3223,-1.2596,-1.2223,-1.2305,-1.2221,-1.2076,-3.1496,-3.1496,-3.1496,-3.1467,-3.1496,-3.1496,-3.1467,-3.1333,-3.1421,-3.1062,-3.0507,-3.0406,-3.0103,-2.9388,-2.8808,-2.8203,-2.7675,-2.754,-2.7195,-2.6701,-2.6587,-2.6198,-2.5555,-2.4903,-2.4605,-2.45,-2.3969,-2.3655,-2.361,-2.3565,-2.3251,-2.2673,-2.2538,-2.1934,-2.0976,-2.0718,-2.0329,-1.9824,-1.9783,-1.9675,-1.9633,-1.957,-1.8927,-1.7848,-1.7669,-1.7339,-1.6756,-1.6651,-1.6428,-1.5858,-1.5903,-1.5858,-1.5844,-1.5844,-1.5903,-1.5919,-1.6368,-1.6428,-1.6099,-1.6892,-1.7295,-1.6845,-1.716,-1.7564,-1.7429,-1.7429,-1.7519,-1.7654,-1.7626,-1.7645,-1.7738,-1.793,-1.808,-1.8126,-1.8486,-1.8674,-1.8721,-1.8426,-1.8137,-1.7872,-1.7599,-1.7477,-1.7386,-1.7612,-1.7681,-1.7721,-1.7755,-1.7755,-1.7755,-1.7766,-1.771,-1.7698,-1.758,-1.7253,-1.5984,-1.5678,-1.5322,-1.4975,-1.473,-1.4236,-1.3744,-1.3405,-1.3421,-1.3438,-1.354,-1.3625,-1.3663,-1.3736,-1.3835,-1.3528,-1.3212,-1.298,-1.2956,-1.2462,-1.2383,-3.1496,-3.1496,-3.1496,-3.1219,-3.0807,-3.1292,-3.1219,-3.0807,-3.1278,-3.1376,-3.1081,-3.0602,-3.0032,-2.9389,-2.9157,-2.8746,-2.8248,-2.7809,-2.7465,-2.724,-2.724,-2.6896,-2.6258,-2.5974,-2.563,-2.5196,-2.4545,-2.4007,-2.3625,-2.3595,-2.3505,-2.3236,-2.2882,-2.2433,-2.1979,-2.1545,-2.1006,-2.0408,-2.0348,-2.0139,-1.9753,-1.9723,-1.9438,-1.9001,-1.8551,-1.8027,-1.7385,-1.7339,-1.7219,-1.7012,-1.7026,-1.7011,-1.7026,-1.7011,-1.7026,-1.7041,-1.7235,-1.7234,-1.7086,-1.7429,-1.7609,-1.7413,-1.7533,-1.7743,-1.7699,-1.7728,-1.7878,-1.8222,-1.8326,-1.8493,-1.8771,-1.8554,-1.8192,-1.8253,-1.8557,-1.8829,-1.8777,-1.8687,-1.8555,-1.8389,-1.8003,-1.7636,-1.7562,-1.7373,-1.7171,-1.715,-1.7154,-1.7309,-1.7444,-1.7491,-1.7587,-1.7743,-1.7783,-1.7631,-1.7202,-1.657,-1.6157,-1.574,-1.5361,-1.4708,-1.4157,-1.365,-1.3557,-1.354,-1.3572,-1.3485,-1.3534,-1.3542,-1.3665,-1.3746,-1.346,-1.3409,-1.3574,-1.3148,-1.3155,-3.1383,-3.1309,-3.0895,-3.0539,-3.0359,-3.0569,-3.0389,-2.995,-3.045,-3.0703,-3.0584,-3.0117,-2.9602,-2.9203,-2.899,-2.8727,-2.8356,-2.7821,-2.7447,-2.7255,-2.7255,-2.7018,-2.6643,-2.6579,-2.6363,-2.5869,-2.5247,-2.4575,-2.3999,-2.3924,-2.3819,-2.3565,-2.3182,-2.2862,-2.2643,-2.2168,-2.158,-2.1072,-2.0612,-2.0221,-1.9986,-1.9798,-1.9723,-1.9648,-1.9241,-1.8717,-1.8057,-1.8027,-1.7893,-1.7743,-1.7699,-1.7699,-1.7699,-1.7699,-1.7699,-1.7713,-1.7908,-1.7923,-1.7818,-1.8071,-1.8252,-1.8057,-1.8253,-1.8358,-1.8341,-1.8341,-1.8597,-1.8912,-1.9049,-1.9258,-1.9444,-1.9076,-1.8694,-1.871,-1.8919,-1.9092,-1.9077,-1.9014,-1.8823,-1.854,-1.8176,-1.7953,-1.7888,-1.7652,-1.7543,-1.7449,-1.7447,-1.7518,-1.7458,-1.7468,-1.74,-1.7486,-1.7437,-1.7479,-1.7337,-1.6987,-1.6654,-1.6288,-1.6045,-1.5358,-1.4706,-1.4166,-1.376,-1.3701,-1.3574,-1.3464,-1.3396,-1.3396,-1.3519,-1.3693,-1.3659,-1.3544,-1.3726,-1.3916,-1.3734,-3.1145,-3.0888,-2.9614,-2.9532,-2.995,-2.9473,-2.9052,-2.9034,-2.9097,-2.9254,-2.9303,-2.902,-2.8961,-2.8805,-2.836,-2.803,-2.788,-2.7598,-2.7133,-2.6613,-2.6556,-2.6513,-2.6421,-2.6533,-2.6534,-2.637,-2.5851,-2.5201,-2.4529,-2.447,-2.4216,-2.3744,-2.358,-2.3251,-2.2748,-2.2515,-2.2137,-2.1605,-2.0704,-2.0271,-2.055,-2.0079,-1.9783,-1.9723,-1.9648,-1.9331,-1.8747,-1.8702,-1.8463,-1.7923,-1.7833,-1.7758,-1.7878,-1.7878,-1.7772,-1.7968,-1.8371,-1.8373,-1.8027,-1.8927,-1.9211,-1.8897,-1.9256,-1.9498,-1.9438,-1.9498,-1.9543,-1.9573,-1.9618,-1.9693,-1.9693,-1.9609,-1.9551,-1.9681,-1.9592,-1.9592,-1.9564,-1.9375,-1.8978,-1.8485,-1.8285,-1.8223,-1.8269,-1.8264,-1.8333,-1.8363,-1.8408,-1.8263,-1.787,-1.7771,-1.7513,-1.7161,-1.7194,-1.7382,-1.7359,-1.7271,-1.7019,-1.6779,-1.6595,-1.618,-1.5578,-1.5013,-1.4437,-1.4242,-1.3608,-1.3464,-1.3396,-1.3396,-1.3396,-1.3535,-1.3532,-1.3578,-1.3673,-1.3771,-1.3827,-3.0569,-3.0192,-2.9739,-2.9104,-2.8615,-2.8844,-2.8671,-2.8201,-2.8716,-2.8989,-2.8894,-2.8363,-2.8117,-2.8076,-2.787,-2.7544,-2.713,-2.707,-2.6793,-2.6356,-2.6273,-2.6092,-2.5907,-2.6294,-2.6287,-2.5879,-2.5646,-2.5184,-2.4635,-2.46,-2.447,-2.4246,-2.3812,-2.352,-2.3304,-2.3229,-2.293,-2.2448,-2.241,-2.1914,-2.0857,-2.0494,-2.0183,-1.9768,-1.9708,-1.957,-1.9408,-1.9375,-1.9286,-1.9031,-1.9076,-1.9076,-1.9061,-1.9061,-1.9076,-1.9091,-1.9241,-1.9331,-1.9166,-1.9405,-1.9633,-1.9468,-1.9585,-1.9693,-1.9723,-1.9723,-1.9723,-1.9723,-1.9723,-1.9723,-1.9723,-1.9723,-1.9723,-1.9723,-1.9723,-1.9723,-1.9693,-1.9604,-1.9476,-1.9252,-1.8844,-1.8587,-1.8467,-1.8432,-1.8236,-1.819,-1.819,-1.8084,-1.8097,-1.8064,-1.8196,-1.8116,-1.7868,-1.739,-1.7409,-1.7287,-1.7011,-1.6886,-1.6803,-1.6719,-1.6204,-1.5774,-1.5223,-1.4629,-1.3979,-1.3599,-1.3515,-1.3481,-1.3549,-1.343,-1.3445,-1.3478,-1.3486,-1.3549,-1.365,-3.0275,-2.9896,-2.916,-2.8551,-2.798,-2.8125,-2.7769,-2.7384,-2.7835,-2.8084,-2.792,-2.7517,-2.725,-2.725,-2.725,-2.7022,-2.6653,-2.6719,-2.647,-2.6014,-2.5808,-2.56,-2.5377,-2.5826,-2.5925,-2.553,-2.5445,-2.5119,-2.451,-2.4772,-2.4681,-2.4147,-2.3795,-2.3599,-2.357,-2.3578,-2.3369,-2.3101,-2.3062,-2.2565,-2.164,-2.1201,-2.0887,-2.0498,-2.0456,-2.0322,-2.0109,-2.0064,-1.9962,-1.9768,-1.9723,-1.9723,-1.9723,-1.9693,-1.9723,-1.9723,-1.9708,-1.9693,-1.9723,-1.9678,-1.9723,-1.9723,-1.9723,-1.9723,-1.9723,-1.9723,-1.9723,-1.9723,-1.9723,-1.9723,-1.9723,-1.9723,-1.9798,-2.0064,-1.9857,-1.9738,-1.9723,-1.9723,-1.9693,-1.9576,-1.9318,-1.9121,-1.8942,-1.8792,-1.8463,-1.8431,-1.8431,-1.83,-1.8428,-1.8387,-1.8516,-1.8455,-1.7929,-1.7615,-1.7548,-1.7316,-1.699,-1.6919,-1.691,-1.684,-1.6588,-1.6298,-1.5876,-1.5249,-1.4607,-1.4236,-1.411,-1.3962,-1.3938,-1.3709,-1.3532,-1.3404,-1.3446,-1.3471,-1.3535,-3.0266,-2.9889,-2.8191,-2.7921,-2.8213,-2.7224,-2.6759,-2.6631,-2.6602,-2.6679,-2.6611,-2.6645,-2.6555,-2.6521,-2.6611,-2.6573,-2.6508,-2.6514,-2.6316,-2.5804,-2.5449,-2.5274,-2.5329,-2.53,-2.5298,-2.5383,-2.5315,-2.4957,-2.4434,-2.4937,-2.4767,-2.3742,-2.369,-2.3574,-2.3421,-2.349,-2.3398,-2.3157,-2.2581,-2.2271,-2.2378,-2.1876,-2.1585,-2.1535,-2.1436,-2.1198,-2.0823,-2.0752,-2.0423,-1.9842,-1.9723,-1.9723,-1.9723,-1.9723,-1.9723,-1.9723,-1.9723,-1.9723,-1.9723,-1.9723,-1.9783,-1.9839,-1.9783,-1.9717,-1.9704,-1.9815,-1.9962,-2.0037,-2.0007,-1.9962,-1.9977,-1.9992,-2.0228,-2.0554,-2.0243,-1.9917,-1.9798,-1.9783,-1.9723,-1.9723,-1.9693,-1.966,-1.9603,-1.954,-1.9543,-1.9543,-1.9483,-1.9216,-1.8979,-1.8759,-1.8465,-1.8292,-1.8196,-1.7989,-1.7946,-1.7559,-1.7217,-1.6888,-1.6914,-1.6952,-1.6755,-1.6474,-1.6224,-1.5637,-1.5167,-1.4861,-1.4653,-1.4481,-1.4356,-1.4208,-1.3946,-1.3583,-1.3523,-1.3684,-1.3574,-2.9668,-2.9174,-2.8673,-2.8394,-2.8132,-2.7364,-2.709,-2.7005,-2.665,-2.6487,-2.6487,-2.6487,-2.6487,-2.6487,-2.6487,-2.6487,-2.6487,-2.6487,-2.6449,-2.6219,-2.5709,-2.5581,-2.5423,-2.4762,-2.47,-2.5079,-2.4807,-2.4486,-2.4343,-2.4599,-2.4483,-2.4143,-2.3642,-2.3267,-2.2902,-2.2811,-2.253,-2.2184,-2.1745,-2.1656,-2.1852,-2.1411,-2.1283,-2.161,-2.1257,-2.1175,-2.1381,-2.144,-2.0857,-1.9828,-1.9723,-1.9723,-1.9798,-1.9798,-1.9842,-1.9828,-1.9783,-1.9753,-1.9753,-1.9768,-1.9944,-2.0333,-2.0064,-1.9719,-1.972,-2.0167,-2.0624,-2.0991,-2.1171,-2.1126,-2.1141,-2.1126,-2.1261,-2.1291,-2.0872,-2.0483,-2.0363,-1.9989,-1.9723,-1.9723,-1.9783,-1.9813,-1.9783,-1.9783,-1.9753,-1.9738,-1.9693,-1.9648,-1.9378,-1.9301,-1.9091,-1.9061,-1.8953,-1.8607,-1.8279,-1.7874,-1.7423,-1.6955,-1.6909,-1.7049,-1.6712,-1.6285,-1.6018,-1.5628,-1.5316,-1.502,-1.4988,-1.4916,-1.4798,-1.4642,-1.4663,-1.4457,-1.4246,-1.4241,-1.3918,-2.9591,-2.9264,-2.9001,-2.8712,-2.836,-2.7607,-2.7329,-2.7216,-2.6751,-2.6487,-2.6487,-2.6487,-2.6487,-2.6487,-2.6487,-2.6487,-2.6487,-2.6487,-2.6487,-2.6436,-2.6122,-2.5808,-2.5339,-2.4589,-2.4583,-2.4867,-2.4443,-2.421,-2.4187,-2.4298,-2.4186,-2.3829,-2.3568,-2.323,-2.296,-2.2556,-2.2317,-2.2097,-2.1815,-2.1781,-2.1668,-2.1361,-2.138,-2.1585,-2.1282,-2.1269,-2.1318,-2.105,-2.0712,-2.0544,-2.0561,-2.0546,-2.0528,-2.0546,-2.0528,-2.0528,-2.0546,-2.0561,-2.0546,-2.0543,-2.0707,-2.0991,-2.0692,-2.0258,-2.0055,-2.0543,-2.1449,-2.2323,-2.2029,-2.1764,-2.1759,-2.1919,-2.2084,-2.2089,-2.1754,-2.1425,-2.1186,-2.0797,-2.0591,-2.0546,-2.0546,-2.0412,-2.0168,-2.0124,-1.9959,-1.9798,-1.9723,-1.9708,-1.9663,-1.9723,-1.9693,-1.9543,-1.9408,-1.9066,-1.8721,-1.8348,-1.7928,-1.742,-1.697,-1.7111,-1.6794,-1.6312,-1.6089,-1.5836,-1.5502,-1.5283,-1.5326,-1.527,-1.5081,-1.5054,-1.5253,-1.5131,-1.4767,-1.4675,-1.434,-2.9779,-2.9741,-2.9189,-2.8976,-2.8863,-2.7921,-2.7519,-2.7329,-2.6876,-2.6562,-2.6499,-2.6487,-2.6487,-2.6487,-2.6487,-2.6487,-2.6487,-2.6487,-2.6487,-2.6474,-2.6361,-2.6038,-2.5333,-2.5048,-2.4928,-2.4936,-2.433,-2.418,-2.4208,-2.429,-2.3913,-2.3551,-2.3394,-2.3267,-2.2978,-2.2596,-2.2445,-2.2327,-2.2218,-2.1993,-2.1691,-2.1496,-2.1482,-2.1643,-2.1662,-2.1389,-2.1,-2.0576,-2.0613,-2.1732,-2.1624,-2.1406,-2.151,-2.1685,-2.1486,-2.1391,-2.1277,-2.1302,-2.1406,-2.1213,-2.1545,-2.155,-2.154,-2.1326,-2.0726,-2.127,-2.2084,-2.3254,-2.2541,-2.2189,-2.2128,-2.2473,-2.2712,-2.2778,-2.2748,-2.2478,-2.2059,-2.1784,-2.1695,-2.1695,-2.1684,-2.138,-2.1032,-2.0767,-2.0583,-2.0139,-2.0022,-1.9914,-1.9842,-1.9723,-1.9723,-1.9678,-1.9558,-1.9453,-1.9139,-1.8822,-1.8418,-1.7971,-1.7327,-1.7121,-1.6961,-1.6595,-1.6361,-1.6084,-1.5695,-1.5625,-1.575,-1.5614,-1.5424,-1.5495,-1.5723,-1.5284,-1.4818,-1.4971,-1.4821,-2.9779,-2.9779,-2.9654,-2.9603,-2.9503,-2.8875,-2.8298,-2.7846,-2.7354,-2.6826,-2.6562,-2.6487,-2.6487,-2.6487,-2.6487,-2.6487,-2.6487,-2.6487,-2.6487,-2.6487,-2.6487,-2.6411,-2.6009,-2.5649,-2.5435,-2.531,-2.4863,-2.4637,-2.4602,-2.4305,-2.3976,-2.3826,-2.3394,-2.2946,-2.2595,-2.2525,-2.2099,-2.1822,-2.1774,-2.1785,-2.16,-2.1185,-2.1166,-2.1503,-2.1615,-2.1608,-2.1535,-2.1369,-2.1606,-2.1756,-2.1092,-2.0855,-2.1664,-2.1389,-2.1069,-2.1048,-2.1005,-2.0788,-2.0458,-2.0833,-2.1164,-2.162,-2.1388,-2.1447,-2.2702,-2.1901,-2.2392,-2.3251,-2.3329,-2.2929,-2.2908,-2.3208,-2.3203,-2.3146,-2.3182,-2.3231,-2.3035,-2.2288,-2.1874,-2.1784,-2.1784,-2.165,-2.1515,-2.1485,-2.1186,-2.0647,-2.0393,-2.0228,-2.0034,-1.9842,-1.9768,-1.9798,-1.9678,-1.9573,-1.9483,-1.9211,-1.8957,-1.8553,-1.7923,-1.7489,-1.7319,-1.6831,-1.6557,-1.6225,-1.5867,-1.588,-1.5904,-1.6035,-1.5863,-1.6031,-1.6095,-1.5722,-1.5408,-1.5434,-1.5303,-2.9628,-2.939,-2.939,-2.9239,-2.8938,-2.8398,-2.7996,-2.7645,-2.713,-2.6763,-2.6549,-2.6487,-2.6487,-2.6487,-2.6487,-2.6487,-2.6487,-2.6487,-2.6487,-2.6487,-2.6487,-2.6487,-2.6461,-2.6223,-2.5988,-2.5912,-2.5435,-2.5209,-2.5046,-2.4669,-2.4262,-2.4004,-2.3647,-2.3281,-2.2744,-2.2669,-2.2397,-2.204,-2.187,-2.1789,-2.1513,-2.1021,-2.0587,-2.0775,-2.0805,-2.0805,-2.0729,-2.0767,-2.0894,-2.0888,-2.0351,-2.0367,-2.1468,-2.1371,-2.1169,-2.1169,-2.1169,-2.1058,-2.0907,-2.0974,-2.1338,-2.1657,-2.1338,-2.1642,-2.2214,-2.1875,-2.1926,-2.2329,-2.2542,-2.2682,-2.2719,-2.2696,-2.2719,-2.2696,-2.2733,-2.286,-2.3025,-2.2797,-2.2577,-2.2577,-2.2667,-2.2478,-2.2343,-2.2148,-2.1814,-2.1291,-2.1156,-2.0976,-2.0464,-2.0258,-1.9974,-1.9902,-1.9768,-1.9693,-1.9693,-1.9588,-1.9483,-1.9094,-1.8612,-1.8281,-1.8096,-1.742,-1.6698,-1.6428,-1.6173,-1.5886,-1.5916,-1.6081,-1.6123,-1.6011,-1.5941,-1.5962,-1.5914,-1.5666,-1.5549,-2.9503,-2.9013,-2.8925,-2.8612,-2.8185,-2.7695,-2.7431,-2.7266,-2.6839,-2.6663,-2.6487,-2.6487,-2.6487,-2.6487,-2.6487,-2.6487,-2.6487,-2.6487,-2.6487,-2.6487,-2.6487,-2.6487,-2.6474,-2.6436,-2.6399,-2.6436,-2.6009,-2.5762,-2.5598,-2.5197,-2.4782,-2.433,-2.4155,-2.3816,-2.3358,-2.3208,-2.2957,-2.251,-2.2406,-2.2171,-2.1753,-2.1272,-2.0873,-2.0471,-2.0409,-2.0422,-2.0435,-2.0383,-2.0203,-1.9972,-1.9948,-2.0359,-2.0902,-2.1329,-2.1568,-2.1527,-2.1393,-2.121,-2.1039,-2.1264,-2.1448,-2.1568,-2.1527,-2.1393,-2.1311,-2.1441,-2.1537,-2.1708,-2.1965,-2.2297,-2.2,-2.2297,-2.2207,-2.2118,-2.2052,-2.2197,-2.2609,-2.3163,-2.3231,-2.3439,-2.3094,-2.2779,-2.2753,-2.2661,-2.2306,-2.2004,-2.1884,-2.163,-2.1102,-2.0759,-2.0535,-2.0333,-2.0273,-1.9857,-1.9768,-1.9702,-1.9645,-1.9447,-1.9059,-1.8922,-1.8713,-1.8162,-1.7459,-1.6891,-1.6563,-1.6278,-1.5992,-1.5989,-1.5974,-1.5844,-1.5826,-1.5874,-1.5864,-1.5813,-1.5751,-2.9741,-2.9603,-2.9126,-2.8825,-2.8662,-2.8185,-2.7657,-2.7318,-2.7165,-2.6901,-2.6512,-2.6487,-2.6487,-2.6487,-2.6487,-2.6487,-2.6487,-2.6487,-2.6487,-2.6487,-2.6487,-2.6487,-2.6487,-2.6487,-2.6487,-2.6487,-2.6336,-2.6273,-2.616,-2.5762,-2.5372,-2.5222,-2.4883,-2.4393,-2.3991,-2.3816,-2.3514,-2.3032,-2.2907,-2.2606,-2.2246,-2.1958,-2.1606,-2.1104,-2.1004,-2.1041,-2.1104,-2.1154,-2.1059,-2.0744,-2.0609,-2.0711,-2.0952,-2.1063,-2.1025,-2.093,-2.093,-2.0782,-2.0537,-2.0761,-2.0894,-2.093,-2.1037,-2.1113,-2.1089,-2.1097,-2.1358,-2.193,-2.2462,-2.2971,-2.3116,-2.276,-2.2997,-2.301,-2.285,-2.2789,-2.2696,-2.2762,-2.304,-2.334,-2.3142,-2.2898,-2.2776,-2.2739,-2.2576,-2.2359,-2.2325,-2.1984,-2.148,-2.1342,-2.1312,-2.1098,-2.0917,-2.0348,-1.9809,-1.9761,-1.9683,-1.9621,-1.9379,-1.9328,-1.9108,-1.8832,-1.8326,-1.7802,-1.7189,-1.6712,-1.6443,-1.6189,-1.6024,-1.6024,-1.5919,-1.5829,-1.5814,-1.5814,-1.5814,-2.9616,-2.9315,-2.9038,-2.8725,-2.8399,-2.7908,-2.7544,-2.7268,-2.7014,-2.6751,-2.6549,-2.6487,-2.6487,-2.6487,-2.6487,-2.6487,-2.6487,-2.6487,-2.6487,-2.6487,-2.6487,-2.6487,-2.6487,-2.6487,-2.6487,-2.6487,-2.6487,-2.6487,-2.6474,-2.6235,-2.5921,-2.5573,-2.531,-2.4958,-2.4456,-2.4104,-2.3904,-2.3577,-2.3271,-2.2995,-2.2681,-2.2498,-2.2046,-2.1656,-2.1518,-2.1481,-2.1481,-2.1481,-2.1481,-2.1405,-2.1245,-2.1289,-2.1337,-2.1203,-2.0914,-2.0476,-2.0347,-2.0348,-2.0266,-2.0616,-2.0836,-2.1158,-2.1145,-2.1198,-2.1264,-2.1289,-2.1393,-2.1786,-2.2035,-2.2417,-2.2323,-2.2523,-2.243,-2.2417,-2.247,-2.2525,-2.2483,-2.2468,-2.2735,-2.297,-2.2569,-2.2343,-2.2423,-2.2483,-2.2656,-2.271,-2.2673,-2.2284,-2.175,-2.1691,-2.1647,-2.1278,-2.0969,-2.0578,-2.0,-1.9801,-1.9721,-1.966,-1.9431,-1.9379,-1.9233,-1.8859,-1.8939,-1.8845,-1.8173,-1.7223,-1.7025,-1.6817,-1.6518,-1.6219,-1.6099,-1.5994,-1.5873,-1.5814,-1.5919,-2.9515,-2.9101,-2.8938,-2.8674,-2.8222,-2.7682,-2.7469,-2.7356,-2.7065,-2.6826,-2.6663,-2.6663,-2.6612,-2.6524,-2.6487,-2.6487,-2.6487,-2.6487,-2.6487,-2.6487,-2.6487,-2.6487,-2.6487,-2.6487,-2.6487,-2.6487,-2.6487,-2.6487,-2.6487,-2.6436,-2.6197,-2.5971,-2.582,-2.5511,-2.5008,-2.4657,-2.4343,-2.4004,-2.3584,-2.3271,-2.3007,-2.2669,-2.2284,-2.1882,-2.182,-2.1882,-2.1945,-2.197,-2.2052,-2.2043,-2.1905,-2.1791,-2.1926,-2.169,-2.1066,-2.0326,-2.015,-2.0413,-2.0691,-2.0882,-2.1102,-2.1392,-2.1446,-2.1471,-2.1536,-2.1544,-2.1675,-2.1656,-2.1889,-2.205,-2.2211,-2.1955,-2.1968,-2.198,-2.2037,-2.1979,-2.2282,-2.2372,-2.2298,-2.2266,-2.1866,-2.187,-2.2023,-2.1819,-2.1913,-2.2269,-2.2255,-2.2175,-2.1725,-2.1696,-2.1576,-2.1169,-2.0854,-2.0623,-2.0216,-1.9845,-1.9784,-1.974,-1.9321,-1.9004,-1.8901,-1.8726,-1.8858,-1.887,-1.8473,-1.7624,-1.755,-1.7413,-1.7116,-1.6772,-1.6428,-1.6353,-1.6548,-1.6473,-1.6442,-2.9754,-2.9641,-2.9101,-2.885,-2.8712,-2.8247,-2.8009,-2.7996,-2.7883,-2.7632,-2.7216,-2.713,-2.6914,-2.6587,-2.6487,-2.6487,-2.6487,-2.6487,-2.6487,-2.6487,-2.6487,-2.6487,-2.6487,-2.6487,-2.6487,-2.6487,-2.6487,-2.6487,-2.6487,-2.6487,-2.6461,-2.6323,-2.6248,-2.6109,-2.5548,-2.5272,-2.5172,-2.4707,-2.418,-2.3678,-2.3233,-2.3058,-2.2945,-2.2844,-2.2807,-2.2757,-2.2706,-2.2694,-2.2786,-2.2786,-2.2435,-2.2246,-2.22,-2.1773,-2.1506,-2.1317,-2.1292,-2.1345,-2.138,-2.1393,-2.1481,-2.1669,-2.1644,-2.1518,-2.1732,-2.202,-2.2192,-2.2234,-2.2543,-2.2732,-2.2694,-2.2819,-2.2869,-2.2794,-2.2698,-2.251,-2.2508,-2.2544,-2.2429,-2.2095,-2.1889,-2.1764,-2.1798,-2.141,-2.1161,-2.152,-2.1801,-2.1722,-2.1666,-2.1546,-2.1449,-2.1037,-2.0952,-2.0765,-2.0247,-1.9895,-1.9823,-1.9789,-1.9203,-1.87,-1.8685,-1.8605,-1.8282,-1.8229,-1.7969,-1.8034,-1.8009,-1.7861,-1.7629,-1.7238,-1.6764,-1.7025,-1.7503,-1.729,-1.6756,-2.9779,-2.9767,-2.9515,-2.9415,-2.934,-2.8812,-2.8524,-2.8461,-2.8235,-2.7984,-2.7708,-2.7394,-2.7014,-2.6625,-2.6487,-2.6487,-2.6487,-2.6487,-2.6487,-2.6487,-2.6487,-2.6487,-2.6487,-2.6487,-2.6487,-2.6487,-2.6487,-2.6487,-2.6487,-2.6487,-2.6487,-2.6487,-2.6487,-2.6399,-2.6034,-2.5737,-2.5498,-2.5159,-2.4732,-2.4161,-2.3747,-2.3572,-2.3434,-2.3145,-2.3133,-2.3133,-2.3158,-2.3095,-2.3095,-2.307,-2.2819,-2.2757,-2.2706,-2.2531,-2.2393,-2.2422,-2.2422,-2.2272,-2.202,-2.1983,-2.2083,-2.2334,-2.2368,-2.2431,-2.2472,-2.2556,-2.2732,-2.2757,-2.2945,-2.3083,-2.3095,-2.3095,-2.3095,-2.3095,-2.3095,-2.2995,-2.2782,-2.2769,-2.2686,-2.2275,-2.1911,-2.1882,-2.1798,-2.1586,-2.1259,-2.1206,-2.132,-2.1213,-2.1172,-2.1118,-2.1038,-2.0903,-2.0951,-2.102,-2.0378,-1.9865,-1.9853,-1.9685,-1.8922,-1.8565,-1.8606,-1.8473,-1.8152,-1.7869,-1.7738,-1.7913,-1.8232,-1.7981,-1.7491,-1.7238,-1.7028,-1.7225,-1.7361,-1.6832,-1.6371,-2.9779,-2.9779,-2.9779,-2.9779,-2.9754,-2.9327,-2.9139,-2.9051,-2.875,-2.8461,-2.8185,-2.7758,-2.7268,-2.6939,-2.6813,-2.6763,-2.6725,-2.6562,-2.6499,-2.6487,-2.6487,-2.6487,-2.6487,-2.6487,-2.6487,-2.6487,-2.6487,-2.6487,-2.6487,-2.6487,-2.6487,-2.6487,-2.6487,-2.6474,-2.6386,-2.6109,-2.5787,-2.5498,-2.5197,-2.4732,-2.4305,-2.4205,-2.3966,-2.3659,-2.3434,-2.3371,-2.3496,-2.3371,-2.3346,-2.3584,-2.3609,-2.3547,-2.3358,-2.3271,-2.3246,-2.3195,-2.3095,-2.3058,-2.2869,-2.2819,-2.2794,-2.2945,-2.3095,-2.2945,-2.2995,-2.3095,-2.3095,-2.3032,-2.307,-2.3095,-2.3095,-2.3095,-2.3095,-2.3095,-2.3095,-2.3095,-2.3083,-2.2995,-2.2932,-2.2706,-2.2393,-2.2184,-2.2074,-2.1868,-2.1522,-2.1108,-2.0886,-2.0767,-2.0701,-2.07,-2.057,-2.0479,-2.0512,-2.0614,-2.0285,-1.9852,-1.986,-1.9675,-1.8909,-1.8565,-1.8689,-1.8389,-1.7965,-1.7739,-1.7597,-1.7428,-1.7525,-1.7419,-1.7358,-1.7459,-1.746,-1.707,-1.6858,-1.6404,-1.6277,-2.9779,-2.9779,-2.9779,-2.9779,-2.9779,-2.9754,-2.9716,-2.9654,-2.9628,-2.9277,-2.8712,-2.831,-2.8009,-2.7821,-2.7406,-2.7218,-2.7218,-2.6725,-2.6603,-2.654,-2.6499,-2.6468,-2.6421,-2.6418,-2.6418,-2.6452,-2.6314,-2.6302,-2.6487,-2.6487,-2.6487,-2.6487,-2.6418,-2.6452,-2.6461,-2.6348,-2.6084,-2.5812,-2.5586,-2.5285,-2.4908,-2.4725,-2.4682,-2.4544,-2.4243,-2.4155,-2.4587,-2.4192,-2.4079,-2.4437,-2.4424,-2.4274,-2.4004,-2.3941,-2.391,-2.3835,-2.3572,-2.3697,-2.3898,-2.3509,-2.3158,-2.312,-2.3208,-2.3346,-2.3409,-2.3208,-2.3145,-2.3296,-2.3434,-2.3333,-2.3246,-2.3133,-2.3384,-2.3421,-2.3471,-2.3346,-2.3283,-2.3108,-2.3058,-2.3045,-2.2869,-2.2594,-2.2456,-2.2328,-2.1827,-2.1358,-2.1025,-2.0898,-2.045,-2.0348,-2.0144,-2.0029,-1.9953,-1.9965,-1.994,-1.9813,-1.9844,-1.9739,-1.928,-1.8982,-1.8926,-1.8464,-1.8116,-1.7781,-1.7628,-1.7202,-1.6999,-1.7416,-1.7759,-1.7961,-1.7814,-1.7174,-1.6869,-1.6664,-1.6655,-2.9779,-2.9779,-2.9779,-2.9779,-2.9779,-2.9779,-2.9779,-2.9779,-2.9779,-2.9465,-2.89,-2.8699,-2.8423,-2.8134,-2.7959,-2.7783,-2.7649,-2.6858,-2.6756,-2.6629,-2.6436,-2.6251,-2.6186,-2.598,-2.5838,-2.6129,-2.5943,-2.6013,-2.6452,-2.6267,-2.5978,-2.5908,-2.6047,-2.6418,-2.6487,-2.6452,-2.6323,-2.6248,-2.6097,-2.5871,-2.541,-2.5272,-2.5146,-2.4795,-2.4675,-2.4562,-2.4725,-2.4632,-2.4669,-2.4782,-2.487,-2.4732,-2.4569,-2.4519,-2.4506,-2.4449,-2.4161,-2.4387,-2.4587,-2.4173,-2.381,-2.4111,-2.4148,-2.4098,-2.4023,-2.4098,-2.4136,-2.4161,-2.4073,-2.3985,-2.4123,-2.4148,-2.4211,-2.4098,-2.3979,-2.3778,-2.3609,-2.3471,-2.3258,-2.3283,-2.3158,-2.2945,-2.2869,-2.2799,-2.2212,-2.1622,-2.1333,-2.1018,-2.0629,-2.0313,-2.025,-2.0075,-2.0024,-1.9936,-1.9924,-1.9874,-1.9811,-1.9698,-1.9572,-1.9384,-1.9171,-1.8958,-1.8604,-1.8166,-1.7865,-1.7723,-1.7733,-1.7946,-1.7943,-1.7681,-1.7355,-1.6957,-1.6816,-1.678,-1.6799,-2.8791,-2.8803,-2.8791,-2.9209,-2.974,-2.9779,-2.9779,-2.974,-2.9404,-2.909,-2.8656,-2.8669,-2.8699,-2.8487,-2.8002,-2.7841,-2.7382,-2.66,-2.635,-2.6036,-2.5747,-2.5597,-2.5457,-2.5254,-2.4991,-2.5395,-2.5099,-2.4957,-2.5358,-2.5569,-2.5134,-2.4921,-2.5205,-2.5534,-2.606,-2.6349,-2.6487,-2.6487,-2.6449,-2.6336,-2.5875,-2.5871,-2.5762,-2.536,-2.5197,-2.5234,-2.5272,-2.5234,-2.5209,-2.5335,-2.5372,-2.5234,-2.5134,-2.5059,-2.5046,-2.4976,-2.4901,-2.4926,-2.5059,-2.4675,-2.4456,-2.4587,-2.4675,-2.47,-2.4833,-2.4833,-2.4625,-2.4687,-2.4725,-2.4845,-2.4825,-2.4662,-2.4612,-2.4506,-2.4443,-2.4293,-2.4161,-2.4036,-2.3722,-2.3552,-2.3409,-2.3358,-2.3083,-2.297,-2.2606,-2.2092,-2.187,-2.1518,-2.1119,-2.0865,-2.079,-2.0577,-2.0338,-2.0213,-2.0087,-1.9974,-1.9861,-1.9786,-1.9685,-1.961,-1.9409,-1.9246,-1.9033,-1.8619,-1.8417,-1.8343,-1.825,-1.8172,-1.7647,-1.7074,-1.6885,-1.6828,-1.6655,-1.6629,-1.6604,-2.6689,-2.6554,-2.6648,-2.7851,-2.9495,-2.9753,-2.9675,-2.9287,-2.8557,-2.8112,-2.8028,-2.804,-2.8552,-2.8848,-2.7777,-2.7362,-2.6983,-2.575,-2.5138,-2.5199,-2.5037,-2.4679,-2.4513,-2.436,-2.4228,-2.3674,-2.3641,-2.3748,-2.3854,-2.4072,-2.3818,-2.3599,-2.377,-2.4217,-2.504,-2.599,-2.643,-2.6418,-2.6267,-2.6136,-2.6168,-2.613,-2.6021,-2.585,-2.5551,-2.5505,-2.5357,-2.5151,-2.5163,-2.5443,-2.5598,-2.5472,-2.5369,-2.5365,-2.5453,-2.5586,-2.5172,-2.5435,-2.6185,-2.5322,-2.5059,-2.5071,-2.5209,-2.5134,-2.4958,-2.4921,-2.5046,-2.5234,-2.5084,-2.4996,-2.4921,-2.4933,-2.5021,-2.5046,-2.5021,-2.4895,-2.4808,-2.4632,-2.4343,-2.4054,-2.3941,-2.3816,-2.3409,-2.3095,-2.2882,-2.2581,-2.2355,-2.2046,-2.1606,-2.143,-2.1355,-2.1041,-2.0752,-2.0742,-2.0552,-2.01,-1.9899,-1.9849,-1.9773,-1.9698,-1.9685,-1.961,-1.9359,-1.9033,-1.8945,-1.892,-1.8581,-1.824,-1.7928,-1.7652,-1.7061,-1.6832,-1.6647,-1.6588,-1.6688,-2.6483,-2.6483,-2.6483,-2.6935,-2.7597,-2.7637,-2.7597,-2.7545,-2.7209,-2.7046,-2.7046,-2.7046,-2.7168,-2.729,-2.7192,-2.6708,-2.6472,-2.5582,-2.4902,-2.5156,-2.4605,-2.4541,-2.4296,-2.3866,-2.3709,-2.3715,-2.347,-2.3182,-2.3588,-2.3368,-2.2968,-2.2702,-2.2649,-2.3073,-2.3818,-2.4445,-2.4469,-2.4505,-2.4552,-2.4767,-2.5406,-2.5511,-2.5511,-2.5511,-2.5258,-2.5013,-2.4755,-2.4484,-2.4578,-2.4732,-2.4803,-2.4826,-2.5022,-2.5149,-2.545,-2.5887,-2.5854,-2.6072,-2.6411,-2.6059,-2.5971,-2.5828,-2.5812,-2.5787,-2.5921,-2.5933,-2.5946,-2.585,-2.5749,-2.5774,-2.5937,-2.5925,-2.5975,-2.5988,-2.5946,-2.5661,-2.5498,-2.5247,-2.4983,-2.4682,-2.4506,-2.436,-2.4066,-2.3268,-2.2923,-2.2856,-2.2658,-2.248,-2.2088,-2.1979,-2.1907,-2.1518,-2.1282,-2.1257,-2.1066,-2.0505,-2.0321,-2.0388,-2.01,-1.9773,-1.9786,-1.9899,-1.9723,-1.9459,-1.9472,-1.9434,-1.8871,-1.8462,-1.8609,-1.8356,-1.7645,-1.7262,-1.7254,-1.7197,-1.7149,-2.5305,-2.5305,-2.5305,-2.5305,-2.5484,-2.6141,-2.6307,-2.5975,-2.5891,-2.5933,-2.5922,-2.5922,-2.6224,-2.6295,-2.6088,-2.5922,-2.5797,-2.4745,-2.4267,-2.4637,-2.4075,-2.3784,-2.3597,-2.342,-2.311,-2.3216,-2.2922,-2.2629,-2.2829,-2.2909,-2.2594,-2.2128,-2.1796,-2.2084,-2.2697,-2.3126,-2.3661,-2.3745,-2.3818,-2.3927,-2.4337,-2.448,-2.448,-2.4492,-2.4385,-2.4181,-2.3708,-2.3478,-2.3478,-2.3441,-2.3562,-2.3745,-2.4301,-2.46,-2.4814,-2.5276,-2.5452,-2.5369,-2.5287,-2.5287,-2.5214,-2.5728,-2.6233,-2.6487,-2.6487,-2.6373,-2.6386,-2.6411,-2.6452,-2.644,-2.6393,-2.6418,-2.6129,-2.6104,-2.5948,-2.5642,-2.5784,-2.5502,-2.5156,-2.4917,-2.4579,-2.4563,-2.4304,-2.366,-2.2941,-2.2963,-2.296,-2.2696,-2.2474,-2.2401,-2.2217,-2.1861,-2.1551,-2.1444,-2.1214,-2.08,-2.0754,-2.0926,-2.0521,-1.9975,-2.0151,-2.0302,-2.0088,-1.9771,-1.9401,-1.9082,-1.8859,-1.8662,-1.8422,-1.825,-1.7955,-1.7772,-1.7848,-1.7529,-1.7177,-2.3135,-2.3101,-2.3091,-2.3222,-2.3517,-2.5347,-2.5641,-2.4734,-2.4745,-2.4755,-2.4745,-2.4745,-2.5136,-2.5839,-2.5168,-2.4787,-2.467,-2.3681,-2.3477,-2.3337,-2.3311,-2.3064,-2.2916,-2.2755,-2.2697,-2.2271,-2.2071,-2.2217,-2.2001,-2.217,-2.2078,-2.1853,-2.1609,-2.167,-2.2053,-2.2587,-2.3068,-2.29,-2.2861,-2.3047,-2.3368,-2.3452,-2.3452,-2.3452,-2.3404,-2.3257,-2.2999,-2.2973,-2.3047,-2.3121,-2.3231,-2.3331,-2.3441,-2.3441,-2.3478,-2.3588,-2.3697,-2.3806,-2.3891,-2.3963,-2.4217,-2.4957,-2.5652,-2.6164,-2.6233,-2.6013,-2.5873,-2.6047,-2.6117,-2.6233,-2.6314,-2.5886,-2.5441,-2.537,-2.5252,-2.5356,-2.5683,-2.5501,-2.5146,-2.478,-2.4382,-2.4102,-2.3659,-2.3106,-2.2718,-2.2769,-2.2723,-2.2465,-2.2339,-2.2554,-2.2365,-2.208,-2.1782,-2.1529,-2.1228,-2.0722,-2.0543,-2.0521,-2.0584,-2.0252,-2.0474,-2.0291,-1.9809,-1.9321,-1.8967,-1.865,-1.8347,-1.8078,-1.7811,-1.7693,-1.7691,-1.7667,-1.7545,-1.6968,-1.6575,-2.3101,-2.3101,-2.3101,-2.3101,-2.3178,-2.382,-2.3887,-2.3594,-2.3594,-2.3594,-2.3594,-2.3594,-2.3973,-2.4016,-2.3724,-2.3637,-2.3517,-2.3309,-2.3178,-2.3101,-2.3091,-2.3013,-2.2935,-2.2847,-2.2676,-2.2461,-2.2305,-2.2217,-2.2004,-2.1934,-2.1943,-2.1858,-2.1787,-2.1719,-2.1845,-2.2141,-2.1993,-2.183,-2.1831,-2.2042,-2.2349,-2.244,-2.244,-2.244,-2.244,-2.2226,-2.1821,-2.168,-2.1642,-2.1576,-2.1499,-2.1642,-2.244,-2.2478,-2.259,-2.3441,-2.3514,-2.3514,-2.3478,-2.3478,-2.3588,-2.377,-2.4217,-2.4779,-2.4957,-2.4992,-2.485,-2.5205,-2.5394,-2.5429,-2.5323,-2.4992,-2.4671,-2.4492,-2.4337,-2.4361,-2.4612,-2.4494,-2.4128,-2.3986,-2.3645,-2.3553,-2.3067,-2.2685,-2.2375,-2.2509,-2.2422,-2.2128,-2.2072,-2.2266,-2.2219,-2.191,-2.1498,-2.1147,-2.0808,-2.0331,-2.019,-2.0079,-2.0257,-2.0176,-1.9802,-1.9535,-1.9211,-1.8884,-1.8468,-1.8111,-1.7797,-1.7512,-1.7298,-1.729,-1.7297,-1.7295,-1.7144,-1.6572,-1.6236,-2.3101,-2.3101,-2.3101,-2.3188,-2.3379,-2.3398,-2.3422,-2.352,-2.3257,-2.3101,-2.3101,-2.3135,-2.3101,-2.3222,-2.3178,-2.3178,-2.3178,-2.3135,-2.3101,-2.3101,-2.3101,-2.3081,-2.3091,-2.3081,-2.2935,-2.2779,-2.2734,-2.2656,-2.2393,-2.2363,-2.2402,-2.2412,-2.2266,-2.2139,-2.2144,-2.205,-2.1704,-2.1381,-2.1145,-2.1172,-2.1361,-2.152,-2.1451,-2.1499,-2.151,-2.1098,-2.0712,-2.0605,-2.0615,-2.0615,-2.0615,-2.0828,-2.1451,-2.1479,-2.1517,-2.2188,-2.2199,-2.2151,-2.2151,-2.2188,-2.2515,-2.2702,-2.2638,-2.2898,-2.3489,-2.3745,-2.4,-2.4289,-2.4337,-2.4373,-2.4217,-2.4036,-2.3818,-2.3562,-2.3368,-2.3147,-2.3147,-2.311,-2.3025,-2.2951,-2.2892,-2.2881,-2.2613,-2.223,-2.1991,-2.2005,-2.1775,-2.1393,-2.1419,-2.1697,-2.1642,-2.1417,-2.0984,-2.0544,-2.0221,-1.9995,-1.9882,-1.9939,-2.0259,-2.0033,-1.9363,-1.9069,-1.9052,-1.8556,-1.7933,-1.7644,-1.7352,-1.7048,-1.6827,-1.6848,-1.6743,-1.6497,-1.6402,-1.6137,-1.5981,-2.3101,-2.3101,-2.314,-2.3467,-2.3818,-2.3838,-2.4033,-2.4307,-2.3578,-2.3198,-2.3188,-2.3159,-2.3159,-2.311,-2.3101,-2.3101,-2.3101,-2.3101,-2.3101,-2.3101,-2.3101,-2.3101,-2.3101,-2.3091,-2.3042,-2.3071,-2.3042,-2.2916,-2.3033,-2.2935,-2.2877,-2.3062,-2.2764,-2.2568,-2.2519,-2.2314,-2.206,-2.1836,-2.1533,-2.14,-2.1027,-2.084,-2.0683,-2.0761,-2.0761,-2.0664,-2.0625,-2.0615,-2.0615,-2.0615,-2.0605,-2.0644,-2.0712,-2.075,-2.0789,-2.0789,-2.1059,-2.1049,-2.1088,-2.1126,-2.1375,-2.1413,-2.1145,-2.1451,-2.2086,-2.2489,-2.2787,-2.322,-2.3368,-2.3368,-2.3246,-2.3036,-2.2776,-2.2526,-2.2264,-2.2188,-2.2264,-2.2151,-2.1962,-2.1935,-2.1935,-2.1935,-2.1838,-2.1436,-2.1388,-2.1436,-2.1305,-2.0852,-2.0855,-2.1126,-2.102,-2.0905,-2.0566,-2.0128,-1.9756,-1.9593,-1.9563,-1.9717,-1.9932,-1.9748,-1.8977,-1.8891,-1.8991,-1.8298,-1.7553,-1.7267,-1.697,-1.6759,-1.6608,-1.6497,-1.6277,-1.5733,-1.5576,-1.5701,-1.5648,-2.3101,-2.313,-2.3496,-2.3887,-2.4248,-2.4268,-2.4316,-2.4404,-2.4219,-2.3945,-2.3672,-2.3613,-2.3467,-2.3218,-2.3208,-2.3208,-2.3188,-2.3276,-2.312,-2.314,-2.3149,-2.314,-2.3101,-2.3101,-2.3101,-2.3101,-2.3101,-2.3101,-2.3101,-2.3101,-2.3101,-2.3091,-2.2916,-2.2877,-2.2877,-2.2682,-2.2607,-2.2373,-2.2217,-2.1934,-2.1631,-2.1514,-2.1465,-2.1221,-2.1064,-2.0898,-2.0801,-2.0674,-2.0644,-2.0615,-2.0615,-2.0605,-2.0605,-2.0615,-2.0615,-2.0615,-2.0615,-2.0615,-2.0615,-2.0615,-2.0828,-2.0867,-2.0789,-2.0789,-2.0972,-2.1193,-2.1565,-2.2075,-2.2366,-2.2355,-2.228,-2.2027,-2.1811,-2.1479,-2.1231,-2.1336,-2.1451,-2.1221,-2.1039,-2.1001,-2.1011,-2.0972,-2.0934,-2.0895,-2.0789,-2.0769,-2.0778,-2.0602,-2.0529,-2.0626,-2.0405,-2.0277,-2.0176,-1.9808,-1.9442,-1.9141,-1.9106,-1.8882,-1.8867,-1.8685,-1.8537,-1.8455,-1.8348,-1.7769,-1.7194,-1.715,-1.7071,-1.6794,-1.6615,-1.6514,-1.6279,-1.5977,-1.5811,-1.5871,-1.5645,-2.3428,-2.3477,-2.3887,-2.4316,-2.4658,-2.4707,-2.4814,-2.4933,-2.5,-2.4766,-2.4346,-2.416,-2.3881,-2.3656,-2.3666,-2.3617,-2.3627,-2.3666,-2.3578,-2.3461,-2.3354,-2.3237,-2.3198,-2.314,-2.3101,-2.3101,-2.3101,-2.3101,-2.3101,-2.3101,-2.3101,-2.3101,-2.3101,-2.3101,-2.3101,-2.3071,-2.2984,-2.276,-2.2773,-2.2617,-2.2314,-2.2109,-2.1846,-2.1553,-2.1465,-2.1318,-2.1289,-2.1192,-2.1202,-2.1064,-2.1016,-2.0723,-2.0693,-2.0615,-2.0615,-2.0615,-2.0615,-2.0615,-2.0635,-2.0664,-2.0674,-2.0683,-2.0635,-2.0712,-2.0683,-2.0905,-2.0934,-2.1375,-2.1375,-2.1375,-2.1375,-2.1183,-2.1155,-2.0934,-2.0867,-2.0905,-2.0934,-2.0867,-2.075,-2.075,-2.076,-2.076,-2.075,-2.075,-2.0683,-2.0683,-2.0595,-2.0595,-2.0498,-2.0381,-2.0116,-1.9887,-1.9929,-1.9677,-1.9349,-1.8969,-1.8621,-1.8331,-1.8184,-1.8163,-1.8277,-1.7971,-1.767,-1.7543,-1.7474,-1.7494,-1.7344,-1.7096,-1.7041,-1.6992,-1.6709,-1.6367,-1.624,-1.6093,-1.5904,-2.3906,-2.4004,-2.4346,-2.4746,-2.5117,-2.5156,-2.5352,-2.5615,-2.5664,-2.5498,-2.5127,-2.4756,-2.456,-2.4424,-2.4368,-2.4414,-2.4355,-2.4189,-2.4072,-2.3945,-2.3877,-2.375,-2.3525,-2.3266,-2.3208,-2.313,-2.3101,-2.3101,-2.3101,-2.3101,-2.3101,-2.3101,-2.3101,-2.3101,-2.3101,-2.3091,-2.3033,-2.3013,-2.3003,-2.3052,-2.276,-2.2461,-2.2168,-2.2031,-2.1963,-2.1943,-2.1904,-2.1875,-2.1906,-2.1728,-2.1475,-2.1221,-2.1055,-2.0987,-2.0938,-2.0967,-2.0987,-2.0957,-2.0909,-2.0948,-2.0909,-2.084,-2.0762,-2.0723,-2.0742,-2.0791,-2.083,-2.0693,-2.0732,-2.0693,-2.0693,-2.0673,-2.0644,-2.0605,-2.0605,-2.0615,-2.0615,-2.0615,-2.0615,-2.0615,-2.0615,-2.0615,-2.0615,-2.0615,-2.0615,-2.0615,-2.0615,-2.0615,-2.0595,-2.0546,-2.039,-2.0204,-2.0135,-1.9804,-1.9404,-1.9062,-1.8721,-1.8682,-1.8603,-1.832,-1.8115,-1.8096,-1.8037,-1.792,-1.7871,-1.7803,-1.7754,-1.7598,-1.7529,-1.7465,-1.7119,-1.6807,-1.6602,-1.6442,-1.6287,-2.4512,-2.4881,-2.4912,-2.5195,-2.5518,-2.5596,-2.5615,-2.5674,-2.5684,-2.5625,-2.5566,-2.5488,-2.5156,-2.4434,-2.4414,-2.4482,-2.4629,-2.457,-2.4453,-2.4307,-2.4307,-2.4238,-2.4053,-2.373,-2.3467,-2.3315,-2.3237,-2.313,-2.3335,-2.3247,-2.313,-2.3179,-2.3169,-2.3149,-2.314,-2.3159,-2.3227,-2.3237,-2.3135,-2.3115,-2.313,-2.2867,-2.2734,-2.2559,-2.2402,-2.2178,-2.2002,-2.1904,-2.1926,-2.1855,-2.1816,-2.168,-2.1593,-2.1505,-2.1496,-2.1447,-2.1476,-2.1486,-2.1456,-2.1456,-2.1437,-2.1476,-2.1416,-2.1345,-2.1364,-2.1424,-2.1298,-2.0857,-2.0799,-2.0713,-2.0703,-2.0654,-2.0605,-2.0605,-2.0615,-2.0615,-2.0615,-2.0615,-2.0615,-2.0615,-2.0615,-2.0615,-2.0615,-2.0615,-2.0615,-2.0615,-2.0615,-2.0615,-2.0615,-2.0615,-2.0615,-2.0488,-2.0341,-2.0175,-1.9853,-1.9453,-1.915,-1.9121,-1.9023,-1.876,-1.8584,-1.849,-1.8403,-1.8232,-1.8086,-1.7988,-1.7949,-1.7861,-1.7861,-1.7725,-1.748,-1.7213,-1.7015,-1.6687,-1.6402]},{"header":{"parameterUnit":"m.s-1","parameterCategory":1,"la1":31.0,"la2":29.5877,"lo1":-88.7671,"lo2":-86.6584,"dy":0.0162,"dx":0.0185,"nx":115,"ny":88,"refTime":"2026-04-09T18:00:00:Z","depth":0,"parameterNumber":3,"parameterNumberName":"V-component_of_WINDS"},"data":[0.0,0.0,0.0,0.0,0.0,0.0,0.0,0.0,0.0,0.0,0.0,0.0,0.0,0.0,0.0,0.0,0.0,0.0,0.0,0.0,0.0,0.0,0.0,0.0,0.0,0.0,0.0,0.0,0.0,0.0,0.0,0.0,0.0,0.0,0.0,0.0,0.0,0.0,0.0,0.0,0.0,0.0,0.0,0.0,0.0,0.0,0.0,0.0,0.0,0.0,0.0,0.0,0.0,0.0,0.0,0.0,0.0,0.0,0.0,0.0,0.0,0.0,0.0,0.0,0.0,0.0,0.0,0.0,0.0,0.0,0.0,0.0,0.0,0.0,0.0,0.0,0.0,0.0,0.0,0.0,0.0,0.0,0.0,0.0,0.0,0.0,0.0,0.0,0.0,0.0,0.0,0.0,0.0,0.0,0.0,0.0,0.0,0.0,0.0,0.0,0.0,0.0,0.0,0.0,0.0,0.0,0.0,0.0,0.0,0.0,0.0,0.0,0.0,0.0,0.0,0.0,0.0,0.0,0.0,0.0,0.0,0.0,0.0,0.0,0.0,0.0,0.0,0.0,0.0,0.0,0.0,0.0,0.0,0.0,0.0,0.0,0.0,0.0,0.0,0.0,0.0,0.0,0.0,0.0,0.0,0.0,0.0,0.0,0.0,0.0,0.0,0.0,0.0,0.0,0.0,0.0,0.0,0.0,0.0,0.0,0.0,0.0,0.0,0.0,0.0,0.0,0.0,0.0,0.0,0.0,0.0,0.0,0.0,0.0,0.0,0.0,0.0,0.0,0.0,0.0,0.0,0.0,0.0,0.0,0.0,0.0,0.0,0.0,0.0,0.0,0.0,0.0,0.0,0.0,0.0,0.0,0.0,0.0,0.0,0.0,0.0,0.0,0.0,0.0,0.0,0.0,0.0,0.0,0.0,0.0,0.0,0.0,0.0,0.0,0.0,0.0,0.0,0.0,0.0,0.0,0.0,0.0,0.0,0.0,0.0,0.0,0.0,0.0,0.0,0.0,0.0,0.0,0.0,0.0,0.0,0.0,0.0,0.0,0.0,0.0,0.0,0.0,0.0,0.0,0.0,0.0,0.0,0.0,0.0,0.0,0.0,0.0,0.0,0.0,0.0,0.0,0.0,0.0,0.0,0.0,0.0,0.0,0.0,0.0,0.0,0.0,0.0,0.0,0.0,0.0,0.0,0.0,0.0,0.0,0.0,0.0,0.0,0.0,0.0,0.0,0.0,0.0,0.0,0.0,0.0,0.0,0.0,0.0,0.0,0.0,0.0,0.0,0.0,0.0,0.0,0.0,0.0,0.0,0.0,0.0,0.0,0.0,0.0,0.0,0.0,0.0,0.0,0.0,0.0,0.0,0.0,0.0,0.0,0.0,0.0,0.0,0.0,0.0,0.0,0.0,0.0,0.0,0.0,0.0,0.0,0.0,0.0,0.0,0.0,0.0,0.0,0.0,0.0,0.0,0.0,0.0,0.0,0.0,0.0,0.0,0.0,0.0,0.0,0.0,0.0,0.0,0.0,0.0,0.0,0.0,0.0,0.0,0.0,0.0,0.0,0.0,0.0,0.0,0.0,0.0,0.0,0.0,0.0,0.0,0.0,0.0,0.0,0.0,0.0,0.0,0.0,0.0,0.0,0.0,0.0,0.0,0.0,0.0,0.0,0.0,0.0,0.0,0.0,0.0,0.0,0.0,0.0,0.0,0.0,0.0,0.0,0.0,0.0,0.0,0.0,0.0,0.0,0.0,0.0,0.0,0.0,0.0,0.0,0.0,0.0,0.0,0.0,0.0,0.0,0.0,0.0,0.0,0.0,0.0,0.0,0.0,0.0,0.0,0.0,0.0,0.0,0.0,0.0,0.0,0.0,0.0,0.0,0.0,0.0,0.0,0.0,0.0,0.0,0.0,0.0,0.0,0.0,0.0,0.0,0.0,0.0,0.0,0.0,0.0,0.0,0.0,0.0,0.0,0.0,0.0,0.0,0.0,0.0,0.0,0.0,0.0,0.0,0.0,0.0,0.0,0.0,0.0,0.0,0.0,0.0,0.0,0.0,0.0,0.0,0.0,0.0,0.0,0.0,0.0,0.0,0.0,0.0,0.0,0.0,0.0,0.0,0.0,0.0,0.0,0.0,0.0,0.0,0.0,0.0,0.0,0.0,0.0,0.0,0.0,0.0,0.0,0.0,0.0,0.0,0.0,0.0,0.0,0.0,0.0,0.0,0.0,0.0,0.0,0.0,0.0,0.0,0.0,0.0,0.0,0.0,0.0,0.0,0.0,0.0,0.0,0.0,0.0,0.0,0.0,0.0,0.0,0.0,0.0,0.0,0.0,0.0,0.0,0.0,0.0,0.0,0.0,0.0,0.0,0.0,0.0,0.0,0.0,0.0,0.0,0.0,0.0,0.0,0.0,0.0,0.0,0.0,0.0,0.0,0.0,0.0,0.0,0.0,0.0,0.0,0.0,0.0,0.0,0.0,0.0,0.0,0.0,0.0,0.0,0.0,0.0,0.0,0.0,0.0,0.0,0.0,0.0,0.0,0.0,0.0,0.0,0.0,0.0,0.0,0.0,0.0,0.0,0.0,0.0,0.0,0.0,0.0,0.0,0.0,0.0,0.0,0.0,0.0,0.0,0.0,0.0,0.0,0.0,0.0,0.0,0.0,0.0,0.0,0.0,0.0,0.0,0.0,0.0,0.0,0.0,0.0,0.0,0.0,0.0,0.0,0.0,0.0,0.0,0.0,0.0,0.0,0.0,0.0,0.0,0.0,0.0,0.0,0.0,0.0,0.0,0.0,0.0,0.0,0.0,0.0,0.0,0.0,0.0,0.0,0.0,0.0,0.0,0.0,0.0,0.0,0.0,0.0,0.0,0.0,0.0,0.0,0.0,0.0,0.0,0.0,0.0,0.0,0.0,0.0,0.0,0.0,0.0,0.0,0.0,0.0,0.0,0.0,0.0,0.0,0.0,0.0,0.0,0.0,0.0,0.0,0.0,0.0,0.0,0.0,0.0,0.0,0.0,0.0,0.0,0.0,0.0,0.0,0.0,0.0,0.0,0.0,0.0,0.0,0.0,0.0,0.0,0.0,0.0,0.0,0.0,0.0,0.0,0.0,0.0,0.0,0.0,0.0,0.0,0.0,0.0,0.0,0.0,0.0,0.0,0.0,0.0,0.0,0.0,0.0,0.0,0.0,0.0,0.0,0.0,0.0,0.0,0.0,0.0,0.0,0.0,0.0,0.0,0.0,0.0,0.0,0.0,0.0,0.0,0.0,0.0,0.0,0.0,0.0,0.0,0.0,0.0,0.0,0.0,0.0,0.0,0.0,0.0,0.0,0.0,0.0,0.0,0.0,0.0,0.0,0.0,0.0,0.0,0.0,0.0,0.0,0.0,0.0,0.0,0.0,0.0,0.0,0.0,0.0,0.0,0.0,0.0,0.0,0.0,0.0,0.0,0.0,0.0,0.0,0.0,0.0,0.0,0.0,0.0,0.0,0.0,0.0,0.0,0.0,0.0,0.0,0.0,0.0,0.0,0.0,0.0,0.0,0.0,0.0,0.0,0.0,0.0,0.0,0.0,0.0,0.0,0.0,0.0,0.0,0.0,0.0,0.0,0.0,0.0,0.0,0.0,0.0,0.0,0.0,0.0,0.0,0.0,0.0,0.0,0.0,0.0,0.0,0.0,0.0,0.0,0.0,0.0,0.0,0.0,0.0,0.0,0.0,0.0,0.0,0.0,0.0,0.0,0.0,0.0,0.0,0.0,0.0,0.0,0.0,0.0,0.0,0.0,0.0,0.0,0.0,0.0,0.0,0.0,0.0,0.0,0.0,0.0,0.0,0.0,0.0,0.0,0.0,0.0,0.0,0.0,0.0,0.0,0.0,0.0,0.0,0.0,0.0,0.0,0.0,0.0,0.0,0.0,0.0,0.0,0.0,0.0,0.0,0.0,0.0,0.0,0.0,0.0,0.0,0.0,0.0,0.0,0.0,0.0,0.0,0.0,0.0,0.0,0.0,0.0,0.0,0.0,0.0,0.0,0.0,0.0,0.0,0.0,0.0,0.0,0.0,0.0,0.0,0.0,0.0,0.0,0.0,0.0,0.0,0.0,0.0,0.0,0.0,0.0,0.0,0.0,0.0,0.0,0.0,0.0,0.0,0.0,0.0,0.0,0.0,0.0,0.0,0.0,0.0,0.0,0.0,0.0,0.0,0.0,0.0,0.0,0.0,0.0,0.0,0.0,0.0,0.0,0.0,0.0,0.1803,0.0,0.0,0.0,0.0,0.0,0.0,0.0,0.0,0.0,0.0,0.0,0.0,0.0,0.0,0.0,0.0,0.0,0.0,0.0,0.0,0.0,0.0,0.0,0.0,0.0,0.0,0.0,0.0,0.0,0.0,0.0,0.0,0.0,0.0,0.0,0.0,0.0,0.0,0.0,0.0,0.0,0.0,0.0,0.0,0.0,0.0,0.0,0.0,0.0,0.0,0.0,0.0,0.0,0.0,0.0,0.0,0.0,0.0,0.0,0.0,0.0,0.0,0.0,0.0,0.0,0.0,0.0,0.0,0.0,0.0,0.0,0.0,0.0,0.0,0.0,0.0,0.0,0.0,0.0,0.0,0.0,0.0,0.0,0.0,0.0,0.0,0.0,0.0,0.0,0.0,0.0,0.0,0.0,0.0,0.0,0.0,0.0,0.0,0.0,0.0,0.0,0.0,0.0,0.0,0.0,0.0,0.0,0.0,0.0,0.0,0.1803,0.1803,0.1803,0.1803,0.1803,0.0,0.0,0.0,0.0,0.0,0.0,0.0,0.0,0.0,0.0,0.0,0.0,0.0,0.0,0.0,0.0,0.0,0.0,0.0,0.0,0.0,0.0,0.0,0.0,0.0,0.0,0.0,0.0,0.0,0.0,0.0,0.0,0.0,0.0,0.0,0.0,0.0,0.0,0.0,0.0,0.0,0.0,0.0,0.0,0.0,0.0,0.0,0.0,0.0,0.0,0.0,0.0,0.0,0.0,0.0,0.0,0.0,0.0,0.0,0.0,0.0,0.0,0.0,0.0,0.0,0.0,0.0,0.0,0.0,0.0,0.0,0.0,0.0,0.0,0.0,0.0,0.0,0.0,0.0,0.0,0.0,0.0,0.0,0.0,0.0,0.0,0.0,0.0,0.0,0.0,0.0,0.0,0.0,0.0,0.0,0.0,0.0,0.0,0.0,0.0,0.0,0.0,0.0,0.0,0.0,0.0,0.0,0.0,0.0,0.0,0.0,0.0,0.1846,0.1843,0.1843,0.0,0.0,0.0,0.0,0.0,0.0,0.0,0.0,0.0,0.0,0.0,0.0,0.0,0.0,0.0,0.0,0.0,0.0,0.0,0.0,0.0,0.0,0.0,0.0,0.0,0.0,0.0,0.0,0.0,0.0,0.0,0.0,0.0,0.0,0.0,0.0,0.0,0.0,0.0,0.0,0.0,0.0,0.0,0.0,0.0,0.0,0.0,0.0,0.0,0.0,0.0,0.0,0.0,0.0,0.0,0.0,0.0,0.0,0.0,0.0,0.0,0.0,0.0,0.0,0.0,0.0,0.0,0.0,0.0,0.0,0.0,0.0,0.0,0.0,0.0,0.0,0.0,0.0,0.0,0.0,0.0,0.0,0.0,0.0,0.0,0.0,0.0,0.0,0.0,0.0,0.0,0.0,0.0,0.0,0.0,0.0,0.0,0.0,0.0,0.0,0.0,0.0,0.0,0.0,0.0,0.0,0.0,0.0,0.0,0.0,0.1845,0.1972,0.1991,0.0,0.1966,0.0,0.0,0.0,0.0,0.0,0.0,0.0,0.0,0.0,0.0,0.0,0.0,0.0,0.0,0.0,0.0,0.0,0.0,0.0,0.0,0.0,0.0,0.0,0.0,0.0,0.0,0.0,0.0,0.0,0.0,0.0,0.0,0.0,0.0,0.0,0.0,0.0,0.0,0.0,0.0,0.0,0.0,0.0,0.0,0.0,0.0,0.0,0.0,0.0,0.0,0.0,0.0,0.0,0.0,0.0,0.0,0.0,0.0,0.0,0.0,0.0,0.0,0.0,0.0,0.0,0.0,0.0,0.0,0.0,0.0,0.0,0.0,0.0,0.0,0.0,0.0,0.0,0.0,0.0,0.0,0.0,0.0,0.0,0.0,0.0,0.0,0.0,0.0,0.0,0.0,0.0,0.0,0.0,0.0,0.0,0.0,0.0,0.0,0.0,0.0,0.0,0.0,0.0,0.0,0.0,0.0,0.0,0.0,0.0,0.0,0.1947,0.2008,0.2011,0.2011,0.0,0.0,0.0,0.0,0.0,0.0,0.0,0.0,0.0,0.0,0.0,0.0,0.0,0.0,0.0,0.0,0.0,0.0,0.0,0.0,0.0,0.0,0.0,0.0,0.0,0.0,0.0,0.0,0.0,0.0,0.0,0.0,0.0,0.0,0.0,0.0,0.0,0.0,0.0,0.0,0.0,0.0,0.0,0.0,0.0,0.0,0.0,0.0,0.0,0.0,0.0,0.0,0.0,0.0,0.0,0.0,0.0,0.0,0.0,0.0,0.0,0.0,0.0,0.0,0.0,0.0,0.0,0.0,0.0,0.0,0.0,0.0,0.0,0.0,0.0,0.0,0.0,0.0,0.0,0.0,0.0,0.0,0.0,0.0,0.0,0.0,0.0,0.0,0.0,0.0,0.0,0.0,0.0,0.0,0.0,0.0,0.0,0.0,0.0,0.0,0.0,0.0,0.0,0.0,0.0,0.0,0.0,0.0,0.0,0.0,0.1974,0.2016,0.2043,0.2047,0.203,0.2011,0.0,0.0,0.0,0.0,0.0,0.0,0.0,0.0,0.0,0.0,0.0,0.0,0.0,0.0,0.0,0.0,0.0,0.0,0.0,0.0,0.0,0.0,0.0,0.0,0.0,0.0,0.0,0.0,0.0,0.0,0.0,0.0,0.0,0.0,0.0,0.0,0.0,0.0,0.0,0.0,0.0,0.0,0.0,0.0,0.0,0.0,0.0,0.0,0.0,0.0,0.0,0.0,0.0,0.0,0.0,0.0,0.0,0.0,0.0,0.0,0.0,0.0,0.0,0.0,0.0,0.0,0.0,0.0,0.0,0.0,0.0,0.0,0.0,0.0,0.0,0.0,0.0,0.0,0.0,0.0,0.0,0.0,0.0,0.0,0.0,0.0,0.0,0.0,0.0,0.0,0.0,0.0,0.0,0.0,0.0,0.0,0.0,0.0,0.0,0.0,0.0,0.0,0.0,0.0,0.0,0.0,0.0,0.0,0.2164,0.2066,0.2066,0.2208,0.2201,0.213,0.0,0.0,0.0,0.0,0.0,0.0,0.0,0.0,0.0,0.0,0.0,0.0,0.0,0.0,0.0,0.0,0.0,0.0,0.0,0.0,0.0,0.0,0.0,0.0,0.0,0.0,0.0,0.0,0.0,0.0,0.0,0.0,0.0,0.0,0.0,0.0,0.0,0.0,0.0,0.0,0.0,0.0,0.0,0.0,0.0,0.0,0.0,0.0,0.0,0.0,0.0,0.0,0.0,0.0,0.0,0.0,0.0,0.0,0.0,0.0,0.0,0.0,0.0,0.0,0.0,0.0,0.0,0.0,0.0,0.0,0.0,0.0,0.0,0.0,0.0,0.0,0.0,0.0,0.0,0.0,0.0,0.0,0.0,0.0,0.0,0.0,0.0,0.0,0.0,0.0,0.0,0.0,0.0,0.0,0.0,0.0,0.0,0.0,0.0,0.0,0.0,0.0,0.0,0.0,0.0,0.0,0.0,0.0,0.0,0.1928,0.1984,0.2245,0.2735,0.2313,0.2214,0.0,0.0,0.0,0.0,0.0,0.0,0.0,0.0,0.0,0.0,0.0,0.0,0.0,0.0,0.0,0.0,0.0,0.0,0.0,0.0,0.0,0.0,0.0,0.0,0.0,0.0,0.0,0.0,0.0,0.0,0.0,0.0,0.0,0.0,0.0,0.0,0.0,0.0,0.0,0.0,0.0,0.0,0.0,0.0,0.0,0.0,0.0,0.0,0.0,0.0,0.0,0.0,0.0,0.0,0.0,0.0,0.0,0.0,0.0,0.0,0.0,0.0,0.0,0.0,0.0,0.0,0.0,0.0,0.0,0.0,0.0,0.0,0.0,0.0,0.0,0.0,0.0,0.0,0.0,0.0,0.0,0.0,0.0,0.0,0.0,0.0,0.0,0.0,0.0,0.0,0.0,0.0,0.0,0.0,0.0,0.0,0.0,0.0,0.0,0.0,0.0,0.0,0.0,0.0,0.0,0.0,0.0,0.0,0.0,0.2152,0.0,0.2759,0.312,0.2682,0.2506,0.0,0.0,0.0,0.0,0.0,0.0,0.0,0.0,0.0,0.0,0.0,0.0,0.0,0.0,0.0,0.0,0.0,0.0,0.0,0.0,0.0,0.0,0.0,0.0,0.0,0.0,0.0,0.0,0.0,0.0,0.0,0.0,0.0,0.0,0.0,0.0,0.0,0.0,0.0,0.0,0.0,0.0,0.0,0.0,0.0,0.0,0.0,0.0,0.0,0.0,0.0,0.0,0.0,0.0,0.0,0.0,0.0,0.0,0.0,0.0,0.0,0.0,0.0,0.0,0.0,0.0,0.0,0.0,0.0,0.0,0.0,0.0,0.0,0.0,0.0,0.0,0.0,0.0,0.0,0.0,0.0,0.0,0.0,0.0,0.0,0.0,0.0,0.0,0.0,0.0,0.0,0.0,0.0,0.0,0.0,0.0,0.0,0.0,0.0,0.0,0.0,0.0,0.0,0.0,0.0,0.0,0.0,0.0,0.218,0.2874,0.3456,0.3586,0.3323,0.3284,0.2939,0.0,0.0,0.0,0.0,0.0,0.0,0.0,0.0,0.0,0.0,0.0,0.0,0.0,0.0,0.0,0.0,0.0,0.0,0.0,0.0,0.0,0.0,0.0,0.0,0.0,0.0,0.0,0.0,0.0,0.0,0.0,0.0,0.0,0.0,0.0,0.0,0.0,0.0,0.0,0.0,0.0,0.0,0.0,0.0,0.0,0.0,0.0,0.0,0.0,0.0,0.0,0.0,0.0,0.0,0.0,0.0,0.0,0.0,0.0,0.0,0.0,0.0,0.0,0.0,0.0,0.0,0.0,0.0,0.0,0.0,0.0,0.0,0.0,0.0,0.0,0.0,0.0,0.0,0.0,0.0,0.0,0.0,0.0,0.0,0.0,0.0,0.0,0.0,0.0,0.0,0.0,0.0,0.0,0.0,0.0,0.0,0.0,0.0,0.0,0.0,0.0,0.0,0.0,0.0,0.0,0.0,0.0,0.0,0.0,0.3038,0.34,0.3752,0.4014,0.3475,0.3257,0.0,0.0,0.0,0.0,0.0,0.0,0.0,0.0,0.0,0.0,0.0,0.0,0.0,0.0,0.0,0.0,0.0,0.0,0.0,0.0,0.0,0.0,0.0,0.0,0.0,0.0,0.0,0.0,0.0,0.0,0.0,0.0,0.0,0.0,0.0,0.0,0.0,0.0,0.0,0.0,0.0,0.0,0.0,0.0,0.0,0.0,0.0,0.0,0.0,0.0,0.0,0.0,0.0,0.0,0.0,0.0,0.0,0.0,0.0,0.0,0.0,0.0,0.0,0.0,0.0,0.0,0.0,0.0,0.0,0.0,0.0,0.0,0.0,0.0,0.0,0.0,0.0,0.0,0.0,0.0,0.0,0.0,0.0,0.0,0.0,0.0,0.0,0.0,0.0,0.0,0.0,0.0,0.0,0.0,0.0,0.0,0.0,0.0,0.0,0.0,0.0,0.0,0.0,0.0,0.0,0.0,0.0,0.0,0.0,0.3752,0.4019,0.4285,0.4539,0.3928,0.3647,0.379,0.0,0.0,0.0,0.0,0.0,0.0,0.0,0.0,0.0,0.0,0.0,0.0,0.0,0.0,0.0,0.0,0.0,0.0,0.0,0.0,0.0,0.0,0.0,0.0,0.0,0.0,0.0,0.0,0.0,0.0,0.0,0.0,0.0,0.0,0.0,0.0,0.0,0.0,0.0,0.0,0.0,0.0,0.0,0.0,0.0,0.0,0.0,0.0,0.0,0.0,0.0,0.0,0.0,0.0,0.0,0.0,0.0,0.0,0.0,0.0,0.0,0.0,0.0,0.0,0.0,0.0,0.0,0.0,0.0,0.0,0.0,0.0,0.0,0.0,0.0,0.0,0.0,0.0,0.0,0.0,0.0,0.0,0.0,0.0,0.0,0.0,0.0,0.0,0.0,0.0,0.0,0.0,0.0,0.0,0.0,0.0,0.0,0.0,0.0,0.0,0.0,0.0,0.0,0.0,0.0,0.0,0.0,0.0,0.4766,0.5117,0.5137,0.4818,0.4535,0.4121,0.0,0.0,0.0,0.0,0.0,0.0,0.0,0.0,0.0,0.0,0.0,0.0,0.0,0.0,0.0,0.0,0.0,0.0,0.0,0.0,0.0,0.0,0.0,0.0,0.0,0.0,0.0,0.0,0.0,0.0,0.0,0.0,0.0,0.0,0.0,0.0,0.0,0.0,0.0,0.0,0.0,0.0,0.0,0.0,0.0,0.0,0.0,0.0,0.0,0.0,0.0,0.0,0.0,0.0,0.0,0.0,0.0,0.0,0.0,0.0,0.0,0.0,0.0,0.0,0.0,0.0,0.0,0.0,0.0,0.0,0.0,0.0,0.0,0.0,0.0,0.0,0.0,0.0,0.0,0.0,0.0,0.0,0.0,0.0,0.0,0.0,0.0,0.0,0.0,0.0,0.0,0.0,0.0,0.0,0.0,0.0,0.0,0.0,0.0,0.0,0.0,0.0,0.0,0.0,0.0,0.0,0.0,0.0,0.0,0.4502,0.5017,0.526,0.515,0.4669,0.4323,0.0,0.0,0.0,0.0,0.0,0.0,0.0,0.0,0.0,0.0,0.0,0.0,0.0,0.0,0.0,0.0,0.0,0.0,0.0,0.0,0.0,0.0,0.0,0.0,0.0,0.0,0.0,0.0,0.0,0.0,0.0,0.0,0.0,0.0,0.0,0.0,0.0,0.0,0.0,0.0,0.0,0.0,0.0,0.0,0.0,0.0,0.0,0.0,0.0,0.0,0.0,0.0,0.0,0.0,0.0,0.0,0.0,0.0,0.0,0.0,0.0,0.0,0.0,0.0,0.0,0.0,0.0,0.0,0.0,0.0,0.0,0.0,0.0,0.0,0.0,0.0,0.0,0.0,0.0,0.0,0.0,0.0,0.0,0.0,0.0,0.0,0.0,0.0,0.0,0.0,0.0,0.0,0.0,0.0,0.0,0.0,0.0,0.0,0.0,0.0,0.0,0.0,0.0,0.0,0.0,0.0,0.0,0.0,0.4529,0.477,0.5126,0.5309,0.5309,0.4965,0.467,0.0,0.0,0.0,0.0,0.0,0.0,0.0,0.0,0.0,0.0,0.0,0.0,0.0,0.0,0.0,0.0,0.0,0.0,0.0,0.0,0.0,0.0,0.0,0.0,0.0,0.0,0.0,0.0,0.0,0.0,0.0,0.0,0.0,0.0,0.0,0.0,0.0,0.0,0.0,0.0,0.0,0.0,0.0,0.0,0.0,0.0,0.0,0.0,0.0,0.0,0.0,0.0,0.0,0.0,0.0,0.0,0.0,0.0,0.0,0.0,0.0,0.0,0.0,0.0,0.0,0.0,0.0,0.0,0.0,0.0,0.0,0.0,0.0,0.0,0.0,0.0,0.0,0.0,0.0,0.0,0.0,0.0,0.0,0.0,0.0,0.0,0.0,0.0,0.0,0.0,0.0,0.0,0.0,0.0,0.0,0.0,0.0,0.0,0.0,0.0,0.0,0.0,0.0,0.0,0.0,0.0,0.0,0.0,0.4689,0.5233,0.528,0.5309,0.5309,0.526,0.4977,0.0,0.0,0.0,0.0,0.0,0.0,0.0,0.0,0.0,0.0,0.0,0.0,0.0,0.0,0.0,0.0,0.0,0.0,0.0,0.0,0.0,0.0,0.0,0.0,0.0,0.0,0.0,0.0,0.0,0.0,0.0,0.0,0.0,0.0,0.0,0.0,0.0,0.0,0.0,0.0,0.0,0.0,0.0,0.0,0.0,0.0,0.0,0.0,0.0,0.0,0.0,0.0,0.0,0.0,0.0,0.0,0.0,0.0,0.0,0.0,0.0,0.0,0.0,0.0,0.0,0.0,0.0,0.0,0.0,0.0,0.0,0.0,0.0,0.0,0.0,0.0,0.0,0.0,0.0,0.0,0.0,0.0,0.0,0.0,0.0,0.0,0.0,0.0,0.0,0.0,0.0,0.0,0.0,0.0,0.0,0.0,0.0,0.0,0.0,0.0,0.0,0.0,0.0,0.0,0.0,0.0,0.0,0.0,0.4781,0.4894,0.5157,0.5309,0.5309,0.505,0.4749,0.0,0.0,0.0,0.0,0.0,0.0,0.0,0.0,0.0,0.0,0.0,0.0,0.0,0.0,0.0,0.0,0.0,0.0,0.0,0.0,0.0,0.0,0.0,0.0,0.0,0.0,0.0,0.0,0.0,0.0,0.0,0.0,0.0,0.0,0.0,0.0,0.0,0.0,0.0,0.0,0.0,0.0,0.0,0.0,0.0,0.0,0.0,0.0,0.0,0.0,0.0,0.0,0.0,0.0,0.0,0.0,0.0,0.0,0.0,0.0,0.0,0.0,0.0,0.0,0.0,0.0,0.0,0.0,0.0,0.0,0.0,0.0,0.0,0.0,0.0,0.0,0.0,0.0,0.0,0.0,0.0,0.0,0.0,0.0,0.0,0.0,0.0,0.0,0.0,0.0,0.0,0.0,0.0,0.0,0.0,0.0,0.0,0.0,0.0,0.0,0.0,0.0,0.0,0.0,0.0,0.0,0.0,0.0,0.4874,0.5043,0.5197,0.5309,0.5293,0.513,0.4843,0.0,0.0,0.0,0.0,0.0,0.0,0.0,0.0,0.0,0.0,0.0,0.0,0.0,0.0,0.0,0.0,0.0,0.0,0.0,0.0,0.0,0.0,0.0,0.0,0.0,0.0,0.0,0.0,0.0,0.0,0.0,0.0,0.0,0.0,0.0,0.0,0.0,0.0,0.0,0.0,0.0,0.0,0.0,0.0,0.0,0.0,0.0,0.0,0.0,0.0,0.0,0.0,0.0,0.0,0.0,0.0,0.0,0.0,0.0,0.0,0.0,0.0,0.0,0.0,0.0,0.0,0.0,0.0,0.0,0.0,0.0,0.0,0.0,0.0,0.0,0.0,0.0,0.0,0.0,0.0,0.0,0.0,0.0,0.0,0.0,0.0,0.0,0.0,0.0,0.0,0.0,0.0,0.0,0.0,0.0,0.0,0.0,0.0,0.0,0.0,0.0,0.0,0.0,0.0,0.0,0.0,0.0,0.4681,0.4968,0.5302,0.5309,0.5309,0.5309,0.5309,0.5033,0.4436,0.0,0.0,0.0,0.0,0.0,0.0,0.0,0.0,0.0,0.0,0.0,0.0,0.0,0.0,0.0,0.0,0.0,0.0,0.0,0.0,0.0,0.0,0.0,0.0,0.0,0.0,0.0,0.0,0.0,0.0,0.0,0.0,0.0,0.0,0.0,0.0,0.0,0.0,0.0135,0.0339,0.0,0.0,0.0,0.0,0.0,0.0,0.0,0.0,0.0047,0.0,0.0,0.0,0.0,0.0,0.0,0.0,0.0,0.0,0.0,0.0,0.0,0.0,0.0,0.0,0.0,0.0,0.0,0.0,0.0,0.0,0.0,0.0,0.0,0.0,0.0,0.0,0.0,0.0,0.0,0.0,0.0,0.0,0.0,0.0,0.0,0.0,0.0,0.0,0.0,0.0,0.0,0.0,0.0,0.0,0.0,0.0,0.0,0.0,0.0,0.0,0.0,0.0,0.0,0.0,0.0,0.4734,0.4781,0.4962,0.5286,0.5309,0.5309,0.5309,0.5309,0.5018,0.4449,0.0,0.0,0.0,0.0,0.0,0.0,0.0,0.0,0.0,0.0,0.0,0.0,0.0,0.0,0.0,0.0,0.0,0.0,0.0,0.0,0.0,0.0,0.0,0.0,0.0,0.0,0.0,0.0,0.0,0.0,0.0,0.0,0.0,0.0,0.0,0.0,0.0,0.0,0.0,0.0792,0.0814,0.0,0.0,0.0,0.0,0.0,0.0,0.0,0.0,0.0201,0.0,0.0,0.0,0.0,0.0,0.0,0.0,0.0,0.0,0.0,0.0,0.0,0.0,0.0,0.0,0.0,0.0,0.0,0.0,0.0,0.0,0.0,0.0,0.0,0.0,0.0,0.0,0.0,0.0,0.0,0.0,0.0,0.0,0.0,0.0,0.0,0.0,0.0,0.0,0.0,0.0,0.0,0.0,0.0,0.0,0.0,0.0,0.0,0.0,0.0,0.0,0.0,0.0,0.0,0.0,0.4911,0.5413,0.5665,0.5625,0.5812,0.582,0.5602,0.5627,0.5318,0.0,0.0,0.0,0.0,0.0,0.0,0.0,0.0,0.0,0.0,0.0,0.0,0.0,0.0,0.0,0.0,0.0,0.0,0.0,0.0,0.0,0.0,0.0,0.0,0.0,0.0,0.0,0.0,0.0,0.0,0.0,0.0,0.0,0.0,0.0,0.0,0.0,0.0,0.0,0.0,0.0881,0.0948,0.1094,0.0,0.0,0.0,0.0,0.0,0.0,0.0245,0.0278,0.0,0.0,0.0,0.0,0.0,0.0,0.0,0.0,0.0,0.0,0.0,0.0,0.0,0.0,0.0,0.0,0.0,0.0,0.0,0.0,0.0,0.0,0.0,0.0,0.0,0.0,0.0,0.0,0.0,0.0,0.0,0.0,0.0,0.0,0.0,0.0,0.0,0.0,0.0,0.0,0.0,0.0,0.0,0.0,0.0,0.0,0.0,0.0,0.0,0.0,0.0,0.0,0.0,0.0,0.0,0.5021,0.5933,0.6299,0.6045,0.6336,0.6343,0.6029,0.6011,0.5696,0.0,0.0,0.0,0.0,0.0,0.0,0.0,0.0,0.0,0.0,0.0,0.0,0.0,0.0,0.0,0.0,0.0,0.0,0.0,0.0,0.0,0.0,0.0,0.0,0.0,0.0,0.0,0.0,0.0,0.0,0.0,0.0,0.0,0.0,0.0,0.0,0.0,0.0,0.0,0.0,0.0,0.1038,0.1208,0.1038,0.0,0.0,0.0,0.0,0.0285,0.0417,0.0,0.0,0.0,0.0,0.0,0.0,0.0,0.0,0.0,0.0,0.0,0.0,0.0,0.0,0.0,0.0,0.0,0.0,0.0,0.0,0.0,0.0,0.0,0.0,0.0,0.0,0.0,0.0,0.0,0.0,0.0,0.0,0.0,0.0,0.0,0.0,0.0,0.0,0.0,0.0,0.0,0.0,0.0,0.0,0.0,0.0,0.0,0.0,0.0,0.0,0.0,0.0,0.0,0.0,0.0,0.0,0.5017,0.5763,0.6259,0.6425,0.6473,0.6473,0.6427,0.6431,0.5971,0.0,0.0,0.0,0.0,0.0,0.0,0.0,0.0,0.0,0.0,0.0,0.0,0.0,0.0,0.0,0.0,0.0,0.0,0.0,0.0,0.0,0.0,0.0,0.0,0.0,0.0,0.0,0.0,0.0,0.0,0.0,0.0,0.0,0.0,0.0,0.0,0.0,0.0,0.0,0.0,0.0,0.1172,0.097,0.0925,0.0881,0.0,0.0,0.0783,0.11,0.1072,0.0,0.0,0.0,0.0,0.0,0.0,0.0,0.0,0.0,0.0,0.0,0.0,0.0,0.0,0.0,0.0,0.0,0.0,0.0,0.0,0.0,0.0,0.0,0.0,0.0,0.0,0.0,0.0,0.0,0.0,0.0,0.0,0.0,0.0,0.0,0.0,0.0,0.0,0.0,0.0,0.0,0.0,0.0,0.0,0.0,0.0,0.0,0.0,0.0,0.0,0.0,0.0,0.0,0.0,0.0,0.545,0.5604,0.652,0.6964,0.6847,0.7068,0.7068,0.685,0.6832,0.6434,0.0,0.0,0.0,0.0,0.0,0.0,0.0,0.0,0.0,0.0,0.0,0.0,0.0,0.0,0.0,0.0,0.0,0.0,0.0,0.0,0.0,0.0,0.0,0.0,0.0,0.0,0.0,0.0,0.0,0.0,0.0,0.0,0.0,0.0,0.0,0.0,0.0,0.0,0.0,0.0,0.0,0.0,0.1139,0.0992,0.0,0.0,0.0,0.0951,0.1052,0.0,0.0,0.0,0.0,0.0,0.0,0.0,0.0,0.0,0.0,0.0,0.0,0.0,0.0,0.0,0.0,0.0,0.0,0.0,0.0,0.0,0.0,0.0,0.0,0.0,0.0,0.0,0.0,0.0,0.0,0.0,0.0,0.0,0.0,0.0,0.0,0.0,0.0,0.0,0.0,0.0,0.0,0.0,0.0,0.0,0.0,0.0,0.0,0.0,0.0,0.0,0.0,0.0,0.0,0.0,0.0,0.0,0.6037,0.7124,0.7544,0.7261,0.7554,0.7554,0.7266,0.7258,0.0,0.0,0.0,0.0,0.0,0.0,0.0,0.0,0.0,0.0,0.0,0.0,0.0,0.0,0.0,0.0,0.0,0.0,0.0,0.0,0.0,0.0,0.0,0.0,0.0,0.0,0.0,0.0984,0.0,0.0,0.0,0.0,0.0,0.0,0.0,0.0,0.0,0.0,0.0,0.0,0.0,0.0,0.1359,0.1382,0.1228,0.1222,0.0,0.0,0.1219,0.1173,0.1434,0.1468,0.0,0.0,0.0,0.0,0.0,0.0,0.0,0.0,0.0,0.0,0.0,0.0,0.0,0.0,0.0,0.0,0.0,0.0,0.0,0.0,0.0,0.0,0.0,0.0,0.0,0.0,0.0,0.0,0.0,0.0,0.0,0.0,0.0,0.0,0.0,0.0,0.0,0.0,0.0,0.0,0.0,0.0,0.0,0.0,0.0,0.0,0.0,0.0,0.0,0.0,0.0,0.0,0.0,0.0,0.6015,0.6046,0.7137,0.7681,0.7652,0.7681,0.7695,0.7681,0.7661,0.7124,0.0,0.0,0.0,0.0,0.0,0.0,0.0,0.0,0.0,0.0,0.0,0.0,0.0,0.0,0.0,0.0,0.0,0.0,0.0,0.0,0.0,0.0,0.0,0.0,0.0,0.0,0.0,0.0,0.0,0.0,0.0,0.0,0.0,0.0,0.0,0.0,0.0,0.0,0.0,0.0,0.0,0.159,0.1568,0.1675,0.183,0.0,0.0,0.166,0.1883,0.1847,0.1569,0.0992,0.0,0.0,0.0,0.0,0.0,0.0,0.0,0.0,0.0,0.0,0.0,0.0,0.0,0.0,0.0,0.0,0.0,0.0,0.0,0.0,0.0,0.0,0.0,0.0,0.0,0.0,0.0,0.0,0.0,0.0,0.0,0.0,0.0,0.0,0.0,0.0,0.0,0.0,0.0,0.0,0.0,0.0,0.0,0.0,0.0,0.0,0.0,0.0,0.0,0.0,0.0,0.0,0.0,0.6248,0.6248,0.7207,0.7695,0.7695,0.7695,0.7695,0.7695,0.7695,0.7236,0.0,0.0,0.0,0.0,0.0,0.0,0.0,0.0,0.0,0.0,0.0,0.0,0.0,0.0,0.0,0.0,0.0,0.0,0.0,0.0,0.0,0.0,0.0,0.0,0.0,0.0,0.0,0.0,0.1101,0.1075,0.1089,0.0,0.0,0.0,0.0,0.0,0.0,0.0,0.0,0.0,0.0,0.1781,0.1629,0.1707,0.0,0.0,0.1993,0.1888,0.1988,0.2029,0.1899,0.1519,0.1272,0.0,0.0,0.0,0.0,0.0,0.0,0.0,0.0,0.0,0.0,0.0,0.0,0.0,0.0,0.0,0.0,0.0,0.0,0.0,0.0,0.0,0.0,0.0,0.0,0.0,0.0,0.0,0.0,0.0,0.0,0.0,0.0,0.0,0.0,0.0,0.0,0.0,0.0,0.0,0.0,0.0,0.0,0.0,0.0,0.0,0.0,0.0,0.0,0.0,0.0,0.0,0.0,0.6401,0.6416,0.7262,0.7695,0.7695,0.7695,0.7652,0.7511,0.7642,0.7291,0.0,0.0,0.0,0.0,0.0,0.0,0.0,0.0,0.0,0.0,0.0,0.0,0.0,0.0,0.0,0.0,0.0,0.0,0.0,0.0,0.0,0.0,0.0,0.0,0.0,0.0,0.0,0.0,0.1397,0.1268,0.1195,0.0,0.0,0.0,0.0,0.0,0.0,0.0,0.0,0.0,0.0,0.2347,0.2271,0.2259,0.2313,0.2495,0.231,0.2133,0.2064,0.213,0.2084,0.1695,0.0,0.0,0.0,0.0,0.0,0.0,0.0,0.0,0.0,0.0,0.0,0.0,0.0,0.0,0.0,0.0,0.0,0.0,0.0,0.0,0.0,0.0,0.0,0.0,0.0,0.0,0.0,0.616,0.0,0.0,0.5503,0.0,0.0,0.0,0.0,0.0,0.0,0.0,0.0,0.0,0.0,0.0,0.0,0.0,0.0,0.0,0.0,0.0,0.0,0.0,0.0,0.0,0.0,0.6406,0.6416,0.7248,0.7695,0.7695,0.7695,0.7511,0.7158,0.7505,0.7287,0.6433,0.0,0.0,0.0,0.0,0.0,0.0,0.0,0.0,0.0,0.0,0.0,0.0,0.0,0.0,0.0,0.0,0.0,0.0,0.0,0.0,0.0,0.0,0.0,0.0,0.0,0.0,0.2312,0.1843,0.1425,0.0,0.0,0.0,0.0,0.0,0.0,0.0,0.0,0.0,0.0,0.317,0.3383,0.3658,0.3474,0.3216,0.3241,0.2807,0.2434,0.2245,0.2207,0.2001,0.0,0.0,0.0,0.0,0.0,0.0,0.0,0.0,0.0,0.0,0.0,0.0,0.0,0.0,0.0,0.0,0.0,0.0,0.0,0.0,0.0,0.0,0.0,0.0,0.0,0.0,0.0,0.8008,0.7665,0.0,0.0,0.0,0.0,0.0,0.0,0.0,0.0,0.0,0.0,0.0,0.8828,0.9434,0.0,0.0,0.0,0.0,0.0,0.0,0.0,0.0,0.0,0.0,0.0,0.0,0.6416,0.6455,0.7248,0.7695,0.7695,0.7695,0.7627,0.7515,0.7618,0.7447,0.6872,0.0,0.0,0.0,0.0,0.0,0.0,0.0,0.0,0.0,0.0,0.0,0.0,0.0,0.0,0.0,0.0,0.0,0.0,0.0,0.0,0.0,0.0,0.0,0.0,0.0,0.237,0.0,0.0,0.0,0.0,0.0,0.0,0.0,0.0,0.0,0.0,0.0,0.2861,0.3069,0.3131,0.3224,0.3317,0.309,0.2907,0.0,0.0,0.0,0.0,0.0,0.0,0.0,0.0,0.0,0.0,0.0,0.0,0.0,0.0,0.1569,0.1009,0.0809,0.0642,0.0396,0.0,0.0,0.0,0.0,0.0,0.0,0.0,0.0,0.0,0.0,0.0,0.0,0.0,0.0,0.9659,0.0,0.9159,0.0,0.0,0.0,0.0,0.0,0.0,0.0,0.0,1.0103,1.0588,1.0213,1.0812,1.0687,0.0,0.9852,0.9108,0.0,0.0,0.0,0.0,0.0,0.0,0.0,0.0,0.6638,0.668,0.7349,0.7695,0.7695,0.7695,0.7627,0.7481,0.7481,0.7369,0.71,0.6258,0.5801,0.0,0.0,0.0,0.0,0.0,0.0,0.0,0.0,0.0,0.0,0.0,0.0,0.0,0.0,0.0,0.0,0.0,0.0,0.0,0.0,0.0,0.0,0.0,0.2696,0.0,0.0,0.0,0.0,0.0,0.0,0.0,0.0,0.0,0.2543,0.2937,0.3352,0.3648,0.3693,0.3685,0.3623,0.0,0.0,0.0,0.0,0.0,0.0,0.0,0.2501,0.2688,0.2502,0.2196,0.187,0.1804,0.1796,0.1801,0.0,0.0,0.1436,0.1275,0.109,0.0724,0.0496,0.0244,-0.0183,-0.0358,-0.0476,0.0,0.0,0.0,0.0,0.0,0.0,0.0,0.0,1.1167,1.1252,0.0,1.0704,0.0,0.0,0.0,0.0,0.0,1.012,0.0,0.0,1.1566,1.1964,1.2425,1.2438,1.2165,1.1711,1.2181,1.1727,1.0343,0.8557,0.0,0.0,0.0,0.0,0.0,0.0,0.7136,0.7126,0.7514,0.771,0.7695,0.7695,0.7511,0.7158,0.7139,0.7125,0.7129,0.7076,0.6702,0.5881,0.538,0.0,0.0,0.0,0.0,0.0,0.0,0.0,0.0,0.0,0.0,0.0,0.0,0.0,0.0,0.0,0.0,0.0,0.0,0.0,0.0,0.3105,0.0,0.0,0.0,0.0,0.0,0.0,0.0,0.0,0.0,0.0,0.3525,0.3543,0.3848,0.465,0.0,0.0,0.0,0.0,0.3811,0.3359,0.2975,0.2673,0.2572,0.2747,0.2794,0.2507,0.0,0.0,0.2292,0.2214,0.2123,0.1886,0.1859,0.1889,0.2144,0.1931,0.1632,0.1176,0.0867,0.0554,0.0128,-0.0025,0.0,1.6012,0.0,0.0,0.0,0.0,1.4156,1.4237,1.4191,1.3927,1.3595,1.3199,1.3084,0.0,0.0,0.0,0.0,0.0,0.0,1.2496,1.2331,1.3423,1.3828,1.3607,1.3619,1.3312,1.2735,1.2519,1.2015,1.126,1.0704,0.9463,0.7625,0.0,0.0,0.0,0.0,0.8125,0.7532,0.7907,0.799,0.7695,0.7695,0.7647,0.752,0.752,0.7535,0.7511,0.7256,0.6983,0.6736,0.6002,0.0,0.0,0.0,0.0,0.0,0.0,0.0,0.0,0.0,0.0,0.0,0.0,0.0,0.0,0.0,0.0,0.0,0.0,0.0,0.3169,0.3117,0.3109,0.0,0.0,0.0,0.0,0.0,0.0,0.0,0.0,0.0,0.4392,0.4431,0.4405,0.0,0.0,0.4546,0.4226,0.3863,0.3583,0.3457,0.3173,0.0,0.0,0.3093,0.2999,0.3291,0.3099,0.2833,0.26,0.2445,0.2363,0.2413,0.2242,0.211,0.2157,0.1979,0.1688,0.1316,0.103,0.0725,0.0361,0.0127,0.0,1.8694,1.7134,1.648,1.6078,1.5915,1.6128,1.6153,1.6019,1.594,1.5701,1.5394,1.5148,1.4394,1.3284,1.3139,0.0,0.0,0.0,1.3877,1.36,1.4475,1.4727,1.4425,1.4412,1.4236,1.3842,1.3099,1.2708,1.2571,1.2151,1.1099,0.9437,0.0,0.0,0.8423,0.8976,0.9003,0.8459,0.8364,0.8218,0.7978,0.7807,0.7695,0.7695,0.7695,0.7695,0.7695,0.7452,0.7332,0.7284,0.6475,0.5907,0.0,0.0,0.0,0.0,0.0,0.0,0.0,0.0,0.0,0.0,0.0,0.3303,0.2878,0.0,0.0,0.0,0.3672,0.393,0.3788,0.3882,0.0,0.0,0.0,0.0,0.0,0.0,0.0,0.3845,0.4276,0.4608,0.4766,0.4928,0.4905,0.4678,0.4769,0.473,0.4296,0.0,0.3878,0.373,0.356,0.355,0.3773,0.348,0.3322,0.3559,0.3364,0.3067,0.2883,0.2745,0.2681,0.2668,0.2432,0.2195,0.2195,0.1985,0.1738,0.1465,0.1288,0.1057,0.0684,0.0376,0.0151,2.0805,2.0641,1.9083,1.8116,1.7662,1.8078,1.7641,1.6738,1.7237,1.7461,1.7413,1.6864,1.66,1.65,1.555,0.0,1.5117,1.5097,1.5097,1.5104,1.5067,1.5022,1.5041,1.4972,1.4979,1.4947,1.3916,1.3673,1.4092,1.3125,1.2429,1.2053,1.1508,1.1018,1.0599,1.0201,0.9944,0.9851,0.909,0.8612,0.8464,0.7974,0.7695,0.7695,0.7695,0.7695,0.7695,0.7725,0.7709,0.7585,0.6875,0.6421,0.6276,0.0,0.0,0.0,0.0,0.0,0.0,0.0,0.0,0.0,0.0,0.0,0.0,0.0,0.0,0.0,0.4501,0.0,0.4577,0.5071,0.0,0.0,0.0,0.5065,0.5083,0.4764,0.4528,0.4489,0.0,0.0,0.4855,0.511,0.5309,0.5309,0.5309,0.5135,0.4666,0.4589,0.4471,0.413,0.4045,0.4024,0.4024,0.3852,0.364,0.3542,0.3509,0.3376,0.3151,0.3091,0.2988,0.2782,0.2453,0.2239,0.2241,0.2052,0.1804,0.1691,0.16,0.1415,0.1013,0.0639,0.0385,2.1681,2.1282,2.0865,2.0137,1.9208,1.892,1.8657,1.8393,1.8129,1.8003,1.799,1.7865,1.7576,1.7184,1.692,1.6807,1.6807,1.6807,1.6807,1.6782,1.6333,1.612,1.6095,1.5706,1.5492,1.5454,1.4842,1.4587,1.4657,1.405,1.3889,1.4113,1.3645,1.2729,1.1552,1.2061,1.2022,1.1307,1.1108,1.0306,0.8963,0.8119,0.7695,0.7695,0.7695,0.7695,0.7695,0.799,0.8011,0.7691,0.73,0.6886,0.6397,0.5673,0.0,0.0,0.0,0.0,0.0,0.0,0.0,0.0,0.0,0.4183,0.3769,0.0,0.4801,0.0,0.4778,0.5046,0.517,0.53,0.0,0.0,0.5619,0.5541,0.5733,0.572,0.5567,0.5193,0.5451,0.5518,0.5217,0.5253,0.5309,0.5309,0.5309,0.5141,0.4676,0.4682,0.4714,0.4603,0.4443,0.4304,0.4282,0.4088,0.3829,0.3548,0.3508,0.3415,0.3153,0.3111,0.3079,0.2993,0.2773,0.2611,0.2578,0.2324,0.2123,0.203,0.171,0.1356,0.1212,0.077,0.0399,2.2736,2.2234,2.2221,2.1857,2.1202,2.0425,2.0137,2.0075,1.9535,1.9321,1.9284,1.8794,1.8254,1.7752,1.7752,1.7752,1.7739,1.7752,1.7752,1.7727,1.7174,1.6898,1.6886,1.6333,1.6036,1.6045,1.5525,1.5261,1.5236,1.4695,1.4488,1.4538,1.4236,1.3663,1.2864,1.3337,1.3209,1.2436,1.2036,1.1027,0.9386,0.8814,0.8451,0.8268,0.8437,0.8441,0.8239,0.8511,0.8504,0.8184,0.7561,0.722,0.7189,0.6542,0.6086,0.0,0.0,0.0,0.0,0.0,0.0,0.0,0.0,0.0,0.0,0.0,0.5385,0.536,0.5737,0.6034,0.6145,0.6335,0.6521,0.6738,0.6453,0.6313,0.6484,0.6363,0.6176,0.5921,0.605,0.6098,0.5851,0.5672,0.557,0.5554,0.5419,0.5214,0.4995,0.497,0.5022,0.5015,0.4896,0.4722,0.4595,0.4449,0.4224,0.3815,0.3731,0.3621,0.3334,0.3287,0.3287,0.3266,0.3046,0.2886,0.2864,0.2637,0.2394,0.2182,0.1935,0.1681,0.153,0.1127,0.079,2.3766,2.3233,2.3208,2.317,2.302,2.2108,2.1656,2.1556,2.1031,2.0754,2.0641,1.966,1.8907,1.8417,1.8405,1.8405,1.8405,1.8318,1.8304,1.8279,1.7762,1.7451,1.7385,1.6861,1.6575,1.6475,1.6032,1.5806,1.5793,1.5261,1.4802,1.4431,1.4324,1.4318,1.43,1.4301,1.4009,1.3413,1.2419,1.1222,0.9927,0.9753,0.9506,0.913,0.9497,0.9477,0.9023,0.921,0.9211,0.8901,0.7988,0.7719,0.8254,0.7554,0.7069,0.0,0.6636,0.0,0.0,0.0,0.0,0.0,0.0,0.0,0.0,0.5919,0.6105,0.6462,0.6924,0.7178,0.7178,0.7496,0.7695,0.7681,0.7373,0.7168,0.7154,0.6865,0.6639,0.657,0.657,0.657,0.6449,0.616,0.5898,0.5836,0.5538,0.5293,0.5293,0.5286,0.5289,0.5309,0.5309,0.513,0.4907,0.4821,0.4635,0.4214,0.4074,0.3946,0.3692,0.3588,0.3555,0.3533,0.334,0.3164,0.3159,0.2929,0.2659,0.2405,0.2313,0.2143,0.1825,0.1507,0.133,2.4311,2.3841,2.3828,2.3534,2.3095,2.2882,2.2531,2.2108,2.1597,2.1106,2.0691,2.0478,2.0075,1.951,1.951,1.951,1.9484,1.9033,1.8857,1.882,1.8304,1.7815,1.741,1.7275,1.6974,1.6513,1.6387,1.6337,1.6337,1.5806,1.5726,1.6032,1.5625,1.5368,1.5338,0.0,0.0,0.0,1.2759,1.1676,1.1377,1.064,1.0223,1.0115,1.0244,0.0,0.953,1.024,1.0278,0.9495,0.9393,0.0,0.0,0.0,0.0,0.0,0.0,0.0,0.0,0.0,0.0,0.0,0.6552,0.6102,0.6279,0.6618,0.6895,0.6973,0.7349,0.7579,0.7588,0.7661,0.7695,0.7695,0.7613,0.7583,0.7583,0.751,0.7353,0.7029,0.6984,0.6865,0.6597,0.6137,0.5921,0.5944,0.5554,0.5325,0.5325,0.5325,0.5309,0.5309,0.5309,0.528,0.5226,0.4975,0.4801,0.4642,0.4462,0.4309,0.4202,0.4027,0.3899,0.3893,0.3643,0.3428,0.3417,0.3202,0.2993,0.2934,0.2751,0.2443,0.1913,0.1549,0.1308,2.4883,0.0,2.4406,2.4048,0.0,2.3534,2.3208,2.2656,2.2133,2.1581,2.1106,2.1094,2.0779,2.0251,2.0251,2.0075,1.9786,1.9535,1.9384,1.9359,1.8832,1.8444,1.8179,1.7639,1.7237,1.6936,1.6638,1.6513,1.6488,1.6224,1.6107,1.6107,1.5831,1.5537,1.5245,1.5022,1.4758,1.4513,1.3447,1.2675,1.2122,1.1622,1.1143,1.0632,0.0,0.0,0.0,0.0,0.0,0.0,0.0,0.0,0.0,0.0,0.0,0.8694,0.8524,0.8511,0.8658,0.8388,0.8264,0.8462,0.7792,0.7172,0.6771,0.7145,0.7398,0.7412,0.7593,0.7695,0.7695,0.7695,0.7695,0.7695,0.7695,0.7788,0.7993,0.8047,0.8048,0.8064,0.8029,0.795,0.7757,0.7203,0.6872,0.6808,0.6277,0.5897,0.5859,0.5531,0.5309,0.5309,0.5309,0.5309,0.5302,0.5186,0.496,0.4834,0.4702,0.4555,0.4409,0.4289,0.4188,0.4174,0.3941,0.3748,0.3723,0.3503,0.3255,0.3121,0.2977,0.2756,0.2328,0.1968,0.1703,2.5435,2.4926,2.4926,2.4612,2.4155,2.4142,2.3785,2.3208,0.0,0.0,0.0,2.1631,2.133,2.0842,2.0842,2.0515,1.9962,1.9962,1.9899,1.9786,1.9334,1.9096,1.8958,1.8091,1.7649,1.7524,1.6948,1.6672,1.6651,1.6538,1.6283,1.5869,1.5844,1.5575,1.5047,1.4601,1.4274,1.4116,1.3981,1.3455,1.2564,1.2527,1.2099,1.123,1.1652,1.1406,1.0484,1.0531,1.0348,0.9814,0.9356,0.9296,0.9594,0.9549,0.9607,0.9854,0.9646,0.9607,0.9867,0.958,0.9417,0.9432,0.8878,0.8146,0.7273,0.7515,0.7749,0.7817,0.7827,0.7841,0.7924,0.7934,0.7919,0.7919,0.7919,0.809,0.8444,0.8502,0.8613,0.8936,0.8938,0.8994,0.8904,0.8302,0.7901,0.7792,0.7191,0.6733,0.6623,0.5995,0.5451,0.5467,0.5388,0.5309,0.5309,0.5397,0.527,0.4977,0.4982,0.4888,0.4629,0.4502,0.4469,0.4469,0.4255,0.4079,0.3985,0.377,0.3508,0.3236,0.317,0.3079,0.2816,0.2557,0.2259,2.6034,2.5485,2.5485,2.5184,2.4662,2.4675,2.4393,2.3841,2.3246,2.2681,2.2196,2.2196,2.1895,2.1395,2.1368,2.1106,2.0578,2.0578,2.0302,1.9811,1.9736,1.9434,1.9008,1.8845,1.8531,1.8066,1.7549,1.7262,1.7234,1.676,1.645,1.6387,1.6375,1.612,1.5618,1.5505,1.5022,1.411,1.3544,1.3167,1.3018,1.3006,1.2933,1.2784,1.2883,1.2693,1.2107,1.2058,1.1852,1.1315,1.0744,1.047,1.0499,1.0102,0.9841,0.9893,0.9867,0.9867,0.9893,0.9594,0.9437,0.9559,0.9484,0.8919,0.7744,0.7666,0.7866,0.8248,0.8313,0.8453,0.8753,0.8772,0.877,0.8789,0.8792,0.8831,0.8916,0.8933,0.8955,0.9053,0.9004,0.9033,0.9038,0.8651,0.8362,0.8267,0.7928,0.7611,0.7433,0.6584,0.5896,0.5781,0.5529,0.5347,0.5419,0.5609,0.5612,0.5293,0.55,0.555,0.5204,0.4954,0.4818,0.4762,0.4536,0.4295,0.4086,0.3983,0.3796,0.3529,0.3454,0.3366,0.3101,0.2971,0.2762,2.6336,2.6076,2.6097,2.5737,2.5222,2.4946,2.4474,2.3991,2.3715,2.3246,2.2757,2.2732,2.2431,2.1958,2.1933,2.1631,2.1131,2.083,2.0553,2.0263,1.9936,1.9673,1.9409,1.9158,1.887,1.8618,1.8091,1.7827,1.78,1.7262,1.6986,1.6961,1.6672,1.6375,1.6145,1.5844,1.5462,1.4959,1.4093,1.3484,1.3155,1.3155,1.2992,1.273,1.2754,1.2513,1.1974,1.198,1.1839,1.1603,1.1337,1.1184,1.1186,1.0947,1.0823,1.0823,1.0822,1.0822,1.0822,1.0682,1.0534,1.0392,1.0374,1.0053,0.9277,0.921,0.9171,0.9121,0.9109,0.906,0.9018,0.9004,0.9004,0.9004,0.9004,0.9084,0.9279,0.9328,0.9416,0.9648,0.9707,0.9716,0.9716,0.933,0.9052,0.9025,0.8698,0.8454,0.8446,0.7789,0.7073,0.6634,0.6215,0.599,0.5952,0.5882,0.5828,0.5648,0.5774,0.5828,0.5641,0.5467,0.541,0.536,0.5003,0.4616,0.4456,0.4322,0.4102,0.3866,0.3761,0.3643,0.3397,0.3207,0.2886,2.6487,2.6487,2.6487,2.6235,2.5737,2.5222,2.4745,2.4356,2.423,2.3835,2.3321,2.317,2.2869,2.2493,2.2468,2.2196,2.1669,2.1257,2.093,2.0654,2.02,1.9924,1.9773,1.9346,1.9171,1.9108,1.8632,1.8392,1.8329,1.784,1.7511,1.7363,1.6936,1.6647,1.6488,1.6095,1.5819,1.5655,1.4871,1.4135,1.3446,1.3403,1.314,1.2626,1.2588,1.2404,1.1989,1.1839,1.1791,1.1763,1.1666,1.1603,1.1603,1.1603,1.1603,1.1603,1.1603,1.1603,1.1603,1.1603,1.1516,1.1353,1.1306,1.126,1.1122,1.1113,1.0783,1.0156,1.0019,0.99,0.975,0.9552,0.9462,0.9462,0.9349,0.9453,0.9698,0.9757,0.9902,1.0244,1.0322,1.0302,1.0244,0.999,0.9776,0.969,0.9474,0.9307,0.9252,0.8948,0.8366,0.7779,0.711,0.658,0.6521,0.6366,0.6175,0.6083,0.6137,0.6152,0.6091,0.6045,0.6029,0.5937,0.5508,0.5101,0.4945,0.4691,0.4402,0.4142,0.408,0.3975,0.3681,0.332,0.295,2.6487,2.6487,2.6487,2.6461,2.6323,2.5795,2.5485,2.536,2.4946,2.4443,2.3904,2.3346,2.3095,2.3032,2.3007,2.2694,2.2246,2.2184,2.1619,2.0792,2.0641,2.0339,1.9861,1.9761,1.9736,1.9648,1.9183,1.892,1.8895,1.8405,1.7865,1.7461,1.7348,1.7036,1.6584,1.6437,1.6162,1.5718,1.5613,1.5047,1.4103,1.4009,1.3715,1.3135,1.3123,1.311,1.2973,1.2576,1.2341,1.2287,1.1876,1.1615,1.1628,1.1615,1.1615,1.1628,1.1628,1.1603,1.1615,1.1603,1.1823,1.2218,1.2248,1.2431,1.2816,1.2891,1.2375,1.1343,1.1002,1.1112,1.1435,1.1036,1.0687,1.0601,1.0323,1.0205,1.0195,1.0225,1.0254,1.0264,1.0322,1.0322,1.0293,1.0224,1.0215,1.0166,1.0068,1.0029,0.999,0.971,0.9387,0.9052,0.8109,0.7078,0.6784,0.6805,0.6796,0.6567,0.673,0.6745,0.6564,0.6457,0.6457,0.6404,0.6083,0.568,0.5385,0.5054,0.4724,0.4595,0.4458,0.4287,0.3976,0.3562,0.3106,2.6487,2.6487,2.6487,2.6487,2.6449,2.6235,2.5946,2.5573,2.5372,2.4983,2.4506,2.423,2.3735,2.3108,2.3095,2.297,2.2757,2.246,2.2096,2.1619,2.1333,2.088,2.039,2.0313,2.015,1.9811,1.9585,1.9484,1.9397,1.8945,1.8393,1.7901,1.7586,1.7262,1.7024,1.6685,1.6375,1.6195,1.6162,1.5793,1.5097,1.4739,1.4293,1.3803,1.3722,1.3546,1.321,1.2973,1.286,1.286,1.2651,1.2538,1.2551,1.2538,1.2538,1.2551,1.2551,1.2538,1.2538,1.2551,1.2638,1.2864,1.2877,1.2973,1.3173,1.321,1.3042,1.287,1.2295,1.1912,1.1818,1.1319,1.0989,1.0924,1.0582,1.0332,1.0322,1.0322,1.0322,1.0322,1.0322,1.0322,1.0322,1.0322,1.0322,1.0322,1.0322,1.0322,1.0283,1.0117,0.9903,0.9603,0.8952,0.8485,0.8012,0.7641,0.7479,0.7313,0.7151,0.6999,0.694,0.6865,0.6865,0.6865,0.6518,0.6235,0.61,0.574,0.5406,0.5257,0.4921,0.466,0.4318,0.4042,0.3817,2.6487,2.6487,2.6487,2.6487,2.6487,2.6487,2.6248,2.5862,2.5858,2.5536,2.5026,2.5001,2.4474,2.3634,2.3421,2.3258,2.307,2.2681,2.2418,2.2284,2.1895,2.1418,2.0943,2.0742,2.0478,2.0075,1.9861,1.9798,1.9761,1.9421,1.8933,1.843,1.8028,1.7677,1.7385,1.6936,1.6651,1.6513,1.6513,1.63,1.5906,1.553,1.5009,1.4406,1.433,1.4042,1.3483,1.3471,1.3353,1.321,1.321,1.321,1.321,1.321,1.321,1.3223,1.3366,1.3366,1.3223,1.3504,1.3604,1.3483,1.3554,1.3667,1.3667,1.3667,1.386,1.4149,1.3607,1.3022,1.2684,1.2155,1.1858,1.182,1.1436,1.1152,1.1212,1.0952,1.0842,1.09,1.076,1.0505,1.0486,1.0409,1.0322,1.0322,1.0322,1.0322,1.0322,1.0283,1.0146,0.9845,0.9768,0.9542,0.9094,0.8534,0.8145,0.7924,0.7689,0.7487,0.7312,0.7261,0.7261,0.724,0.688,0.6667,0.6572,0.6316,0.6052,0.6026,0.5658,0.5094,0.4785,0.4569,0.4395,2.6487,2.6487,2.6487,2.6521,2.6487,2.6487,2.6521,2.6467,2.6424,2.6122,2.5598,2.5627,2.5259,2.4714,2.428,2.3665,2.317,2.3058,2.2769,2.2355,2.2309,2.1983,2.1443,2.0943,2.0691,2.0603,2.0112,1.9849,1.9811,1.9773,1.951,1.8983,1.887,1.8405,1.7601,1.7423,1.7096,1.6635,1.6563,1.6509,1.6437,1.6421,1.5881,1.5009,1.4859,1.4614,1.4154,1.4065,1.3815,1.3248,1.3286,1.3248,1.3235,1.3265,1.3286,1.3328,1.3765,1.3815,1.3478,1.4174,1.4544,1.4229,1.4431,1.4771,1.4657,1.4657,1.4733,1.4846,1.4757,1.4643,1.4622,1.3946,1.3686,1.369,1.34,1.3137,1.3139,1.2254,1.209,1.2168,1.1593,1.1134,1.1023,1.0582,1.0467,1.0438,1.038,1.038,1.038,1.0361,1.0302,1.0244,1.0175,0.9961,0.9228,0.8938,0.8735,0.8515,0.8313,0.8116,0.7875,0.7681,0.7652,0.7583,0.7275,0.7074,0.6999,0.6811,0.6562,0.6344,0.6003,0.556,0.5416,0.4815,0.4692,2.6487,2.6487,2.6487,2.6782,2.7196,2.6726,2.6782,2.7196,2.6714,2.6386,2.6312,2.6719,2.6628,2.6116,2.5966,2.5044,2.3703,2.3283,2.2995,2.2807,2.2807,2.2518,2.2033,2.1794,2.1506,2.1142,2.0641,2.0189,1.9823,1.9798,1.9723,1.9497,1.9158,1.8782,1.8442,1.8078,1.7626,1.7124,1.7074,1.6898,1.6538,1.6513,1.6274,1.5944,1.56,1.516,1.462,1.4614,1.4513,1.4274,1.4287,1.4305,1.4287,1.4305,1.4287,1.4299,1.4494,1.4525,1.4368,1.4657,1.4808,1.4676,1.4777,1.4921,1.4884,1.4909,1.5035,1.5324,1.5412,1.5517,1.5611,1.4858,1.4118,1.4038,1.37,1.3493,1.3363,1.3085,1.2932,1.2966,1.246,1.2064,1.1929,1.1581,1.1284,1.1244,1.1274,1.1107,1.0821,1.0745,1.0699,1.04,1.0293,1.0205,0.9932,0.9542,0.9281,0.9065,0.8824,0.847,0.8174,0.7841,0.7768,0.7758,0.7543,0.7417,0.7329,0.7314,0.7038,0.6612,0.6259,0.6182,0.615,0.5564,0.5499,2.7161,2.7216,2.7273,2.7438,2.7637,2.7404,2.7604,2.8051,2.7537,2.7284,2.7417,2.7901,2.7908,2.7591,2.739,2.6671,2.5309,2.4291,2.365,2.3484,2.3484,2.328,2.2907,2.2501,2.2121,2.1707,2.1232,2.0666,2.0137,2.0075,1.9987,1.9773,1.9409,1.9183,1.8958,1.8642,1.8188,1.776,1.7488,1.7194,1.6807,1.6575,1.6513,1.645,1.6145,1.5706,1.5185,1.516,1.5047,1.4921,1.4884,1.4884,1.4884,1.4884,1.4884,1.4896,1.506,1.5072,1.4984,1.523,1.5349,1.5185,1.5316,1.5404,1.5424,1.5424,1.5605,1.5869,1.5948,1.6124,1.6207,1.5517,1.487,1.4849,1.4583,1.442,1.4375,1.4134,1.3833,1.3625,1.3328,1.3104,1.3027,1.262,1.2369,1.2332,1.2302,1.2096,1.1665,1.1507,1.1327,1.09,1.0869,1.0764,1.0546,1.0257,0.9786,0.9523,0.924,0.8867,0.8512,0.8158,0.7924,0.791,0.7817,0.7734,0.7695,0.7695,0.7397,0.694,0.6791,0.6716,0.6565,0.6342,0.6223,2.8601,2.8678,2.8912,2.8519,2.8051,2.8524,2.8925,2.8971,2.8907,2.8748,2.8671,2.8957,2.8961,2.8868,2.8484,2.8152,2.7638,2.6133,2.4972,2.444,2.4387,2.4347,2.4158,2.3065,2.2463,2.2324,2.1788,2.1287,2.0811,2.0669,2.0365,1.9924,1.9786,1.951,1.9045,1.9018,1.874,1.825,1.7801,1.7466,1.732,1.6848,1.6563,1.6513,1.645,1.622,1.5731,1.5693,1.5492,1.5072,1.4997,1.4934,1.5035,1.5035,1.4979,1.511,1.5449,1.5417,1.516,1.5881,1.612,1.5856,1.6158,1.6325,1.6274,1.6325,1.6362,1.6387,1.6425,1.6488,1.6488,1.6345,1.6261,1.6441,1.615,1.615,1.6092,1.555,1.4794,1.4345,1.4189,1.411,1.4018,1.3701,1.3411,1.3403,1.3374,1.3208,1.2717,1.2588,1.2377,1.1961,1.1707,1.1532,1.1246,1.095,1.043,0.9958,0.9654,0.9318,0.8994,0.8646,0.8314,0.8223,0.7837,0.7734,0.7695,0.7695,0.7695,0.7368,0.729,0.7163,0.7023,0.6829,0.6669,2.9974,2.9605,2.9674,2.9617,2.9439,2.916,2.9303,2.9782,2.9286,2.8989,2.9083,2.9628,2.9889,2.9846,2.9692,2.9408,2.8966,2.8216,2.7205,2.5957,2.5763,2.5473,2.4963,2.4094,2.3462,2.3098,2.289,2.2527,2.1939,2.115,2.0578,2.039,2.0025,1.9736,1.9598,1.9535,1.9284,1.8795,1.8597,1.8185,1.7501,1.7234,1.6936,1.655,1.65,1.6421,1.6249,1.6258,1.6183,1.5969,1.6007,1.6007,1.5994,1.5994,1.6007,1.6019,1.6145,1.622,1.6082,1.6283,1.6437,1.63,1.6434,1.6488,1.6513,1.6513,1.6513,1.6513,1.6513,1.6513,1.6513,1.6513,1.6513,1.6513,1.6513,1.6513,1.6488,1.6197,1.5984,1.5764,1.543,1.522,1.5089,1.476,1.4441,1.4437,1.4437,1.4256,1.3793,1.3643,1.3433,1.3012,1.2687,1.2347,1.2049,1.1743,1.1313,1.068,1.0222,1.0021,0.9664,0.9084,0.8789,0.8489,0.8091,0.7852,0.7803,0.7744,0.7783,0.7715,0.753,0.7471,0.7456,0.7299,0.7068,3.1556,3.1162,3.0998,3.0819,3.0602,3.0095,3.0238,3.0614,3.0178,2.9919,3.0072,3.0494,3.0733,3.0733,3.0733,3.0543,3.0192,3.0134,2.9334,2.7897,2.7018,2.6568,2.605,2.5159,2.4548,2.4227,2.4146,2.3837,2.3259,2.2256,2.174,2.1694,2.0914,2.0515,2.0489,2.0271,1.9915,1.9384,1.9095,1.8684,1.8118,1.779,1.7526,1.72,1.7127,1.7014,1.6873,1.6835,1.6713,1.655,1.6513,1.6513,1.6513,1.6488,1.6513,1.6513,1.65,1.6488,1.6513,1.6475,1.6513,1.6513,1.6513,1.6513,1.6513,1.6513,1.6513,1.6513,1.6513,1.6513,1.6513,1.6513,1.6575,1.6835,1.6626,1.6525,1.6513,1.6513,1.6488,1.6353,1.6174,1.6045,1.5894,1.5768,1.5492,1.55,1.55,1.5322,1.4889,1.4691,1.4401,1.4097,1.3819,1.3394,1.2896,1.2552,1.2203,1.152,1.0825,1.0754,1.0568,0.9697,0.9143,0.8938,0.8604,0.8427,0.8332,0.8122,0.8047,0.7895,0.7773,0.7642,0.7569,0.7525,0.7368,3.3248,3.3195,3.2789,3.2119,3.1471,3.1456,3.147,3.1527,3.1424,3.1307,3.1365,3.1336,3.1438,3.1467,3.1365,3.132,3.1452,3.1319,3.0949,2.9947,2.8702,2.7703,2.7281,2.6314,2.5744,2.555,2.5425,2.5121,2.4594,2.3716,2.3555,2.3434,2.2334,2.1744,2.165,2.1197,2.0655,2.0041,1.9543,1.9274,1.9029,1.8684,1.8273,1.815,1.8147,1.7945,1.7511,1.7413,1.7137,1.6613,1.6513,1.6513,1.6513,1.6513,1.6513,1.6513,1.6513,1.6513,1.6513,1.6513,1.6563,1.6647,1.6563,1.6581,1.6717,1.6737,1.6713,1.6776,1.6751,1.6713,1.6726,1.6738,1.6974,1.7285,1.6986,1.6676,1.6575,1.6563,1.6513,1.6513,1.6488,1.6497,1.6412,1.6396,1.6362,1.6362,1.6312,1.6053,1.5819,1.5533,1.5459,1.5179,1.4834,1.447,1.3989,1.3627,1.3271,1.2639,1.1871,1.1542,1.1275,1.0419,0.9821,0.9583,0.934,0.9129,0.887,0.8701,0.8414,0.8203,0.8032,0.7802,0.7749,0.7782,0.7739,3.4584,3.4159,3.402,3.354,3.2866,3.2467,3.2213,3.2183,3.169,3.1496,3.1496,3.1496,3.1496,3.1496,3.1496,3.1496,3.1496,3.1496,3.1451,3.1108,3.0235,2.9106,2.8359,2.7927,2.7432,2.6953,2.6486,2.6144,2.5877,2.4815,2.4323,2.4249,2.359,2.2914,2.2506,2.2319,2.1852,2.1283,2.1091,2.0506,1.9893,2.0054,1.9502,1.8335,1.8683,1.857,1.8061,1.799,1.7501,1.66,1.6513,1.6513,1.6575,1.6575,1.6613,1.66,1.6563,1.6538,1.6538,1.655,1.6735,1.7061,1.6835,1.6879,1.7678,1.7377,1.7383,1.7614,1.7765,1.7727,1.7739,1.7727,1.784,1.7865,1.7513,1.7187,1.7087,1.6773,1.6513,1.6513,1.6563,1.6588,1.6563,1.6563,1.6538,1.6525,1.6488,1.645,1.6224,1.6195,1.6019,1.5994,1.5728,1.5441,1.5102,1.4734,1.4299,1.376,1.3063,1.2387,1.192,1.1167,1.083,1.0641,1.0404,1.0179,0.9733,0.9411,0.9046,0.8776,0.8702,0.8665,0.8371,0.8263,0.8158,3.5265,3.4876,3.4638,3.4294,3.3799,3.2901,3.2497,3.2363,3.1809,3.1496,3.1496,3.1496,3.1496,3.1496,3.1496,3.1496,3.1496,3.1496,3.1496,3.1436,3.1062,3.015,2.9214,2.8982,2.8782,2.8355,2.7688,2.7425,2.7158,2.5999,2.5542,2.5609,2.489,2.4267,2.3985,2.3614,2.3059,2.229,2.2102,2.1639,2.0833,2.1037,2.0737,1.9866,2.002,1.992,1.9406,1.912,1.8445,1.7508,1.7215,1.7202,1.7225,1.7202,1.7225,1.7225,1.7202,1.7215,1.7202,1.7237,1.7375,1.7614,1.7363,1.7571,1.7978,1.7897,1.7919,1.8117,1.8199,1.8182,1.8218,1.8392,1.853,1.8494,1.8254,1.7978,1.7777,1.7451,1.724,1.7202,1.7202,1.7089,1.6923,1.6886,1.6748,1.6575,1.6513,1.65,1.6463,1.6513,1.6488,1.6362,1.6249,1.5928,1.564,1.5294,1.4944,1.4456,1.3896,1.3249,1.2569,1.1906,1.1716,1.1532,1.1393,1.1129,1.0632,1.0227,1.0053,0.9846,0.9718,0.9547,0.9317,0.9059,0.8895,3.5489,3.5444,3.4863,3.4608,3.4397,3.3275,3.2796,3.2497,3.1959,3.1585,3.1511,3.1496,3.1496,3.1496,3.1496,3.1496,3.1496,3.1496,3.1496,3.1481,3.1346,3.0826,2.999,2.9719,2.9642,2.9456,2.8996,2.8689,2.8281,2.7275,2.7088,2.7093,2.6269,2.5727,2.5408,2.5096,2.4228,2.3374,2.3209,2.2774,2.2169,2.2114,2.1908,2.1362,2.1287,2.1203,2.0818,2.0442,1.9732,1.8643,1.8469,1.8363,1.8331,1.8276,1.827,1.823,1.8213,1.8274,1.8363,1.8318,1.832,1.8405,1.8356,1.8336,1.8458,1.849,1.853,1.858,1.8376,1.8495,1.8568,1.8857,1.9058,1.907,1.9045,1.882,1.8469,1.8279,1.8204,1.8204,1.8155,1.794,1.7687,1.7426,1.731,1.6898,1.6763,1.671,1.6613,1.6513,1.6513,1.6475,1.6375,1.6287,1.6024,1.5793,1.5454,1.5046,1.4507,1.3896,1.3251,1.2734,1.2526,1.2342,1.2207,1.1881,1.1417,1.1138,1.1002,1.0799,1.0605,1.0554,1.0472,1.0217,1.002,3.5489,3.5489,3.534,3.528,3.516,3.4412,3.3724,3.3185,3.2527,3.1899,3.1585,3.1496,3.1496,3.1496,3.1496,3.1496,3.1496,3.1496,3.1496,3.1496,3.1496,3.1406,3.0928,3.0567,3.0313,3.0163,2.9696,2.9427,2.9125,2.8583,2.8196,2.8144,2.7512,2.6867,2.6396,2.6199,2.5818,2.5103,2.4938,2.4301,2.352,2.358,2.3149,2.2025,2.1805,2.1702,2.1582,2.1416,2.1233,2.0826,2.0192,1.9619,1.9167,1.9006,1.9012,1.9035,1.8996,1.9175,1.9499,1.93,1.914,1.9509,1.93,1.9058,1.9432,1.9547,1.9551,1.951,1.9446,1.9497,1.9522,1.956,1.9687,1.9725,1.9712,1.9623,1.9371,1.8743,1.8355,1.8279,1.8279,1.8166,1.8053,1.8028,1.7777,1.7325,1.7112,1.6974,1.681,1.6613,1.655,1.6575,1.6475,1.6387,1.6312,1.612,1.5906,1.5567,1.5072,1.4708,1.4056,1.3478,1.3258,1.311,1.2993,1.2603,1.2094,1.2083,1.1954,1.1728,1.1507,1.1423,1.1323,1.1188,1.1169,3.531,3.5026,3.5026,3.4846,3.4487,3.3844,3.3365,3.2946,3.2332,3.1824,3.157,3.1496,3.1496,3.1496,3.1496,3.1496,3.1496,3.1496,3.1496,3.1496,3.1496,3.1496,3.1466,3.1182,3.0971,3.0881,3.0313,3.0043,2.9849,2.94,2.885,2.8607,2.8244,2.7684,2.7165,2.7076,2.6692,2.615,2.6063,2.5569,2.4802,2.4504,2.4104,2.2872,2.2606,2.2606,2.2622,2.2614,2.2603,2.2449,2.2015,2.1276,2.0506,2.0324,2.0309,2.0309,2.0309,2.0424,2.0635,2.0566,2.0471,2.0732,2.0471,2.0493,2.0625,2.0758,2.0761,2.0731,2.0701,2.0693,2.0682,2.0706,2.0682,2.0706,2.0695,2.0584,2.0192,1.9471,1.8945,1.8945,1.902,1.882,1.8707,1.8667,1.8304,1.7865,1.7752,1.7601,1.7209,1.6999,1.676,1.6663,1.655,1.6488,1.6488,1.64,1.6312,1.5986,1.5618,1.5374,1.5017,1.4456,1.3949,1.3754,1.3511,1.3154,1.2746,1.282,1.2768,1.2594,1.2399,1.2276,1.2211,1.2212,1.2203,3.516,3.4653,3.4548,3.4174,3.3589,3.3006,3.2691,3.2422,3.1914,3.1705,3.1496,3.1496,3.1496,3.1496,3.1496,3.1496,3.1496,3.1496,3.1496,3.1496,3.1496,3.1496,3.1481,3.1436,3.1391,3.1436,3.0928,3.0702,3.0507,3.0028,2.9535,2.8996,2.8786,2.8382,2.7899,2.772,2.742,2.6826,2.6761,2.6422,2.5753,2.5239,2.4656,2.4075,2.3896,2.3911,2.3926,2.3919,2.3918,2.3908,2.3826,2.3164,2.2463,2.1895,2.1852,2.181,2.1722,2.182,2.193,2.1876,2.1778,2.1852,2.181,2.1722,2.1639,2.1676,2.1773,2.1851,2.187,2.2007,2.2,2.2007,2.2014,2.2021,2.2004,2.1718,2.1175,2.0538,2.0283,1.9711,1.9724,1.9671,1.9433,1.9269,1.8842,1.8504,1.8404,1.819,1.7785,1.7496,1.7307,1.7061,1.7011,1.6626,1.655,1.6568,1.6484,1.6355,1.6028,1.5948,1.5772,1.5273,1.4683,1.4205,1.3898,1.3568,1.3301,1.3151,1.3139,1.3235,1.3104,1.2798,1.2904,1.3181,1.3071,3.5444,3.528,3.4711,3.4429,3.4234,3.3589,3.2961,3.2557,3.2303,3.1989,3.1525,3.1496,3.1496,3.1496,3.1496,3.1496,3.1496,3.1496,3.1496,3.1496,3.1496,3.1496,3.1496,3.1496,3.1496,3.1496,3.1316,3.1241,3.1107,3.0702,3.0238,3.0058,2.9654,2.9071,2.8592,2.8382,2.8023,2.751,2.736,2.7001,2.6512,2.6168,2.5749,2.5151,2.5031,2.5076,2.5151,2.5211,2.5265,2.5221,2.4725,2.4357,2.3891,2.3138,2.2695,2.2543,2.2543,2.268,2.306,2.2806,2.2603,2.2543,2.2658,2.2346,2.2126,2.228,2.2705,2.2808,2.3108,2.3376,2.337,2.3364,2.3351,2.3364,2.3303,2.3089,2.2548,2.2174,2.1486,2.0514,2.0474,2.0483,2.0239,1.9985,1.9668,1.9351,1.9152,1.8859,1.8427,1.8228,1.8082,1.7821,1.7551,1.7074,1.6622,1.6619,1.659,1.6573,1.6405,1.6435,1.6212,1.5872,1.5412,1.5004,1.4488,1.4054,1.3797,1.3584,1.3416,1.3416,1.3328,1.3223,1.321,1.321,1.321,3.5295,3.4936,3.4607,3.4309,3.3919,3.326,3.2826,3.2497,3.2123,3.1809,3.157,3.1496,3.1496,3.1496,3.1496,3.1496,3.1496,3.1496,3.1496,3.1496,3.1496,3.1496,3.1496,3.1496,3.1496,3.1496,3.1496,3.1496,3.1481,3.1197,3.0823,3.0477,3.0163,2.9744,2.9146,2.8727,2.8487,2.8098,2.7794,2.7465,2.7091,2.6811,2.6273,2.5809,2.5644,2.56,2.56,2.56,2.56,2.551,2.5262,2.5148,2.4928,2.4553,2.3847,2.3348,2.3201,2.3459,2.3992,2.3821,2.3864,2.4179,2.4164,2.4065,2.3877,2.4063,2.4128,2.4249,2.4365,2.4679,2.4684,2.4687,2.4693,2.4679,2.4683,2.4367,2.3953,2.378,2.2785,2.1561,2.1417,2.1342,2.1002,2.0737,2.0489,2.0225,1.9971,1.9586,1.9158,1.9107,1.9068,1.866,1.839,1.8007,1.754,1.7441,1.7295,1.7128,1.7003,1.7033,1.6904,1.6648,1.6319,1.5918,1.5351,1.484,1.4349,1.4142,1.3891,1.3609,1.3509,1.3391,1.3261,1.321,1.3328,3.5175,3.4681,3.4563,3.4173,3.3634,3.2991,3.2736,3.2602,3.2183,3.1899,3.1705,3.1705,3.1645,3.154,3.1496,3.1496,3.1496,3.1496,3.1496,3.1496,3.1496,3.1496,3.1496,3.1496,3.1496,3.1496,3.1496,3.1496,3.1496,3.1436,3.1152,3.0883,3.0703,3.0402,2.9804,2.9385,2.9011,2.8607,2.8169,2.7794,2.748,2.7076,2.6557,2.6078,2.6004,2.6078,2.6153,2.6183,2.6165,2.6096,2.5932,2.5798,2.5786,2.5678,2.5106,2.4223,2.4014,2.4328,2.4605,2.4776,2.4871,2.5214,2.5501,2.5531,2.5553,2.5393,2.5717,2.5809,2.5971,2.5988,2.6005,2.5992,2.6007,2.6022,2.5974,2.5792,2.5297,2.4956,2.4549,2.3567,2.2842,2.2158,2.1784,2.1629,2.1394,2.0995,2.0753,2.0724,2.0348,2.0321,2.0164,1.9655,1.9277,1.898,1.8729,1.8669,1.8449,1.8208,1.8057,1.7995,1.7819,1.7578,1.7205,1.6842,1.6524,1.6008,1.5357,1.4676,1.4393,1.4104,1.3785,1.3722,1.3885,1.3883,1.3919,3.5459,3.5325,3.4758,3.4459,3.4294,3.3664,3.338,3.3365,3.323,3.2931,3.2363,3.2332,3.2004,3.1615,3.1496,3.1496,3.1496,3.1496,3.1496,3.1496,3.1496,3.1496,3.1496,3.1496,3.1496,3.1496,3.1496,3.1496,3.1496,3.1496,3.1466,3.1301,3.1212,3.1047,3.0447,3.0118,2.9998,2.9445,2.8816,2.8218,2.775,2.754,2.7405,2.7285,2.724,2.718,2.7121,2.7106,2.7156,2.7156,2.6737,2.6512,2.6398,2.589,2.563,2.5405,2.5375,2.5382,2.548,2.5495,2.56,2.5824,2.5794,2.5644,2.5899,2.6243,2.6507,2.6497,2.6926,2.7151,2.7106,2.7255,2.7315,2.7225,2.7051,2.6826,2.647,2.6105,2.5688,2.5305,2.4471,2.3288,2.2474,2.2414,2.23,2.1899,2.1564,2.1533,2.1478,2.1405,2.1309,2.0809,2.0366,2.0053,1.994,1.9852,1.948,1.9236,1.9245,1.9029,1.8604,1.8323,1.8123,1.7758,1.7466,1.7002,1.6251,1.5595,1.5057,1.4853,1.4831,1.48,1.4752,1.4702,1.4662,3.5489,3.5474,3.5175,3.5055,3.4966,3.4337,3.4069,3.3994,3.3649,3.335,3.3021,3.2647,3.2123,3.166,3.1496,3.1496,3.1496,3.1496,3.1496,3.1496,3.1496,3.1496,3.1496,3.1496,3.1496,3.1496,3.1496,3.1496,3.1496,3.1496,3.1496,3.1496,3.1496,3.1391,3.0957,3.0672,3.0387,2.9983,2.9475,2.8858,2.8364,2.8154,2.7989,2.7645,2.763,2.763,2.766,2.7585,2.7585,2.7555,2.7255,2.718,2.7121,2.6911,2.6746,2.6722,2.6722,2.6542,2.6243,2.6198,2.6318,2.6617,2.6716,2.6791,2.6782,2.6941,2.7151,2.718,2.7405,2.757,2.7585,2.7585,2.7585,2.7585,2.7585,2.7465,2.721,2.7195,2.6857,2.6488,2.6054,2.4842,2.3789,2.3506,2.3302,2.274,2.2418,2.2305,2.2262,2.2206,2.2121,2.1979,2.1554,2.1158,2.1102,2.1025,2.0469,2.0251,2.0649,2.0261,1.9393,1.9005,1.8962,1.8666,1.8249,1.7718,1.7076,1.6658,1.6239,1.611,1.6019,1.5923,1.5804,1.58,1.5775,3.5489,3.5489,3.5489,3.5489,3.5459,3.4951,3.4726,3.4698,3.4262,3.3918,3.3589,3.308,3.2497,3.2034,3.1884,3.1824,3.178,3.1585,3.1511,3.1496,3.1496,3.1496,3.1496,3.1496,3.1496,3.1496,3.1496,3.1496,3.1496,3.1496,3.1496,3.1496,3.1496,3.1481,3.1376,3.1047,3.0731,3.0387,3.0028,2.9475,2.8966,2.8846,2.8562,2.8259,2.7989,2.7914,2.8064,2.7914,2.7884,2.8169,2.8199,2.8124,2.7899,2.7794,2.7764,2.7705,2.7585,2.754,2.7315,2.7255,2.7225,2.7405,2.7585,2.7405,2.7465,2.7585,2.7585,2.751,2.7555,2.7585,2.7585,2.7585,2.7585,2.7585,2.7585,2.7585,2.757,2.7465,2.739,2.7121,2.6746,2.6437,2.5505,2.4881,2.4326,2.3649,2.3298,2.3115,2.2991,2.2939,2.2846,2.2744,2.2582,2.2251,2.2235,2.2048,2.1485,2.1284,2.1657,2.1593,2.0756,2.0289,2.0172,1.9745,1.9162,1.8812,1.8427,1.796,1.7472,1.7232,1.7009,1.6959,1.6895,1.6876,1.6782,3.5489,3.5489,3.5489,3.5489,3.5489,3.5459,3.5415,3.534,3.531,3.4891,3.4294,3.3739,3.338,3.3155,3.2662,3.2437,3.2437,3.178,3.1704,3.1629,3.1511,3.1613,3.1627,3.1553,3.1553,3.1524,3.164,3.1625,3.1496,3.1496,3.1496,3.1496,3.1553,3.1524,3.1466,3.1331,3.1017,3.0761,3.0492,3.0133,2.9684,2.9532,2.9415,2.925,2.8891,2.8786,2.9367,2.8831,2.8697,2.9187,2.9172,2.8992,2.8607,2.8532,2.8558,2.8468,2.8154,2.8304,2.8543,2.8079,2.766,2.7615,2.772,2.7884,2.7959,2.772,2.7645,2.7824,2.7989,2.7869,2.7764,2.763,2.7929,2.7974,2.8034,2.7884,2.7809,2.76,2.754,2.7525,2.7315,2.6986,2.6821,2.6085,2.5331,2.4678,2.4294,2.4094,2.3681,2.3563,2.3481,2.3399,2.3413,2.3325,2.3347,2.3044,2.2578,2.2409,2.2574,2.2572,2.2209,2.1859,2.1258,2.0773,2.0234,2.0008,1.9771,1.93,1.8796,1.8277,1.801,1.7979,1.7972,1.7949,1.7744,3.5489,3.5489,3.5489,3.5489,3.5489,3.5489,3.5489,3.5489,3.5489,3.5115,3.4518,3.4203,3.3873,3.3529,3.332,3.311,3.3171,3.3465,3.2894,3.252,3.25,3.2273,3.2049,3.194,3.1979,3.1768,3.1894,3.1838,3.1524,3.1653,3.1866,3.1923,3.1809,3.1553,3.1496,3.1524,3.1301,3.1212,3.1032,3.0763,3.0283,3.0118,2.9968,2.9549,2.9472,2.9337,2.9532,2.9355,2.94,2.9535,2.9639,2.9475,2.928,2.922,2.9205,2.9202,2.8858,2.9127,2.9367,2.8873,2.8438,2.8798,2.8843,2.8783,2.8693,2.8783,2.8828,2.8858,2.8753,2.8648,2.8813,2.8843,2.8918,2.8783,2.8577,2.8338,2.8199,2.8034,2.7779,2.7809,2.766,2.7405,2.7315,2.7171,2.6413,2.5711,2.5367,2.4993,2.453,2.4208,2.4133,2.3924,2.3864,2.3759,2.3744,2.3684,2.361,2.3475,2.3377,2.3152,2.2897,2.2643,2.2073,2.165,2.1291,2.1028,2.0763,2.0553,2.006,1.9296,1.9065,1.9082,1.9049,1.8925,1.8699,3.6196,3.6211,3.6196,3.591,3.5522,3.5489,3.5489,3.5522,3.575,3.5604,3.5151,3.509,3.4737,3.4252,3.4121,3.4152,3.4347,3.4587,3.4262,3.4084,3.3936,3.351,3.3027,3.2838,3.3014,3.2432,3.2489,3.2598,3.2312,3.2145,3.2461,3.2625,3.2407,3.2173,3.1824,3.1611,3.1496,3.1496,3.1451,3.1316,3.0836,3.0763,3.0702,3.0223,3.0028,3.0073,3.0118,3.0073,3.0043,3.0193,3.0238,3.0073,2.9953,2.9864,2.9849,2.9831,2.9741,2.9771,2.9864,2.9472,2.9146,2.9367,2.9472,2.9502,2.9594,2.9594,2.9412,2.9487,2.9532,2.9609,2.9651,2.9457,2.9397,2.9205,2.9131,2.8951,2.8858,2.8708,2.8334,2.8068,2.7959,2.7899,2.757,2.7435,2.7001,2.6387,2.6063,2.5644,2.5113,2.4866,2.4777,2.4522,2.4238,2.4088,2.3939,2.3804,2.367,2.358,2.346,2.337,2.3182,2.2987,2.2733,2.2239,2.1949,2.1909,2.1605,2.1183,2.0708,2.0169,1.9945,1.966,1.95,1.9342,1.9441,3.7677,3.7748,3.7706,3.6875,3.5701,3.5537,3.5602,3.5846,3.6306,3.6553,3.6445,3.6461,3.6136,3.5624,3.5553,3.5578,3.5646,3.5851,3.5735,3.5573,3.5591,3.5246,3.4766,3.4468,3.4202,3.3732,3.3684,3.368,3.3365,3.3209,3.3391,3.3547,3.3401,3.3103,3.2559,3.1881,3.1568,3.1553,3.1653,3.1635,3.1533,3.1488,3.1426,3.1289,3.0927,3.094,3.1313,3.1128,3.1144,3.142,3.147,3.1245,3.0774,3.0702,3.0603,3.0492,2.9998,3.0313,3.1137,3.0178,2.9864,2.9879,3.0043,2.9953,2.9744,2.9699,2.9849,3.0073,2.9894,2.9789,2.9699,2.9714,2.9819,2.9849,2.9819,2.9669,2.9564,2.9355,2.9011,2.8667,2.8532,2.8382,2.7959,2.7585,2.733,2.6971,2.6701,2.6273,2.5749,2.554,2.545,2.5076,2.4732,2.4664,2.4492,2.3954,2.3714,2.3655,2.3565,2.3475,2.346,2.337,2.3071,2.2733,2.2628,2.2547,2.2143,2.169,2.1365,2.1036,2.0333,2.0015,1.9839,1.9813,1.9932,3.7822,3.7822,3.7822,3.7501,3.7041,3.7011,3.7041,3.7055,3.7279,3.7397,3.7397,3.7397,3.7308,3.705,3.7001,3.7015,3.7112,3.766,3.7622,3.6603,3.6999,3.6384,3.5936,3.5802,3.5484,3.4749,3.4632,3.445,3.3531,3.3921,3.4052,3.4137,3.4382,3.3887,3.3391,3.296,3.2917,3.2891,3.2879,3.2718,3.2299,3.2216,3.2216,3.2216,3.1968,3.216,3.2703,3.2344,3.2469,3.2671,3.2691,3.2427,3.1955,3.183,3.164,3.1334,3.0879,3.1002,3.1406,3.0987,3.0883,3.0849,3.0761,3.0731,3.0823,3.0838,3.0853,3.0806,3.0687,3.0717,3.0911,3.0896,3.0956,3.0971,3.0853,3.0582,3.0387,3.0088,2.9774,2.9415,2.9205,2.9225,2.8937,2.8733,2.8434,2.8036,2.7794,2.703,2.6441,2.6252,2.6108,2.5644,2.5307,2.5277,2.5106,2.4709,2.438,2.4298,2.3954,2.3565,2.358,2.3714,2.3505,2.3191,2.3206,2.3212,2.2994,2.2748,2.2374,2.1924,2.1549,2.108,2.0884,2.0678,2.0438,3.8596,3.8596,3.8596,3.8596,3.8502,3.8035,3.7921,3.8149,3.8206,3.8177,3.8161,3.8161,3.7978,3.7905,3.8048,3.8161,3.8246,3.8935,3.912,3.8029,3.8434,3.7971,3.7489,3.7208,3.6895,3.618,3.6067,3.5952,3.5407,3.5193,3.5465,3.5758,3.5481,3.5256,3.4701,3.4205,3.3479,3.3443,3.3391,3.3313,3.3039,3.2933,3.2933,3.2949,3.2955,3.313,3.3469,3.3608,3.3608,3.3633,3.3572,3.3443,3.3066,3.2868,3.2707,3.2351,3.2213,3.2253,3.2293,3.2293,3.2127,3.1842,3.1682,3.1496,3.1496,3.1361,3.1376,3.1406,3.1524,3.1509,3.1523,3.1553,3.1768,3.1737,3.1688,3.1384,3.114,3.0867,3.0721,3.0362,3.0285,3.0197,3.008,2.9945,2.9763,2.9325,2.893,2.809,2.7263,2.6994,2.6892,2.6579,2.6201,2.6188,2.6023,2.5629,2.5289,2.4994,2.462,2.4286,2.3962,2.4141,2.3887,2.3719,2.3746,2.3829,2.403,2.3887,2.3579,2.3465,2.3347,2.2798,2.2139,2.1744,2.145,4.007,4.0113,4.0096,4.002,3.9825,3.8569,3.8374,3.8918,3.8935,3.8951,3.8935,3.8935,3.8707,3.8218,3.8663,3.8908,3.9005,3.9705,3.9757,3.9817,3.9674,3.9253,3.9,3.8823,3.8245,3.7997,3.7752,3.753,3.7725,3.7172,3.7295,3.7472,3.6868,3.6606,3.5987,3.5284,3.4361,3.4192,3.4053,3.3928,3.3684,3.3649,3.3649,3.3649,3.3659,3.3761,3.3937,3.3978,3.3928,3.3878,3.3802,3.371,3.3633,3.3633,3.3608,3.3531,3.3453,3.3375,3.3339,3.3287,3.3103,3.2598,3.2104,3.1739,3.1682,3.1838,3.1951,3.1809,3.1752,3.1682,3.164,3.1966,3.2272,3.2327,3.2394,3.2164,3.1929,3.1774,3.1683,3.1574,3.1561,3.1481,3.1254,3.1083,3.1054,3.0701,3.0223,2.961,2.8722,2.7728,2.768,2.7758,2.7446,2.7248,2.6988,2.6763,2.6531,2.6325,2.5878,2.5518,2.5114,2.4835,2.4848,2.4785,2.4441,2.4415,2.457,2.4768,2.4913,2.4805,2.4518,2.415,2.3389,2.3088,2.2866,4.0113,4.0113,4.0113,4.0113,4.0045,3.9644,3.9558,3.9756,3.9756,3.9756,3.9756,3.9756,3.9506,3.948,3.9679,3.9731,3.9825,3.9969,4.0045,4.0113,4.0096,3.996,3.9825,3.9673,3.9276,3.8903,3.8633,3.8481,3.8017,3.799,3.8007,3.7763,3.7736,3.7618,3.7364,3.6939,3.5978,3.5276,3.5022,3.4682,3.4415,3.4309,3.4309,3.4309,3.4309,3.4471,3.4752,3.4864,3.4887,3.4951,3.4998,3.4887,3.4309,3.4284,3.4211,3.3633,3.3582,3.3582,3.3608,3.3608,3.3531,3.3401,3.3103,3.2734,3.2598,3.2571,3.268,3.2407,3.2284,3.2256,3.2339,3.2571,3.2815,3.2949,3.3039,3.2997,3.281,3.2801,3.2756,3.2788,3.277,3.2716,3.2488,3.2398,3.2329,3.1997,3.158,3.1022,3.0171,2.9149,2.8568,2.8683,2.8529,2.8256,2.8313,2.8177,2.7917,2.7636,2.719,2.6836,2.6579,2.6339,2.6141,2.5873,2.5595,2.5274,2.5067,2.5362,2.5767,2.5513,2.5225,2.4989,2.4714,2.4396,2.4128,4.0113,4.0113,4.0113,4.0265,4.0493,4.0527,4.0671,4.084,4.0383,4.0113,4.0113,4.007,4.0113,4.002,4.0045,4.0045,4.0045,4.007,4.0113,4.0113,4.0113,4.0079,4.0096,4.0079,3.9825,3.9554,3.9377,3.9242,3.8785,3.8734,3.8802,3.8819,3.8565,3.8345,3.8162,3.781,3.731,3.6662,3.6167,3.5675,3.5288,3.5031,3.5005,3.4998,3.5015,3.5287,3.5515,3.56,3.5616,3.5616,3.5616,3.5447,3.5005,3.4965,3.4941,3.4496,3.4512,3.452,3.452,3.4496,3.426,3.4137,3.4202,3.4028,3.3624,3.3443,3.3261,3.305,3.3039,3.3013,3.3103,3.3235,3.3391,3.3572,3.3684,3.3836,3.3836,3.3862,3.3896,3.3946,3.3939,3.3922,3.3843,3.3746,3.3622,3.3403,3.3134,3.2707,3.1681,3.0418,2.9856,2.9681,2.9487,2.9272,2.9353,2.9366,2.9065,2.8742,2.8468,2.815,2.7976,2.7681,2.7336,2.7062,2.6776,2.6593,2.6528,2.6377,2.6541,2.6319,2.6155,2.5895,2.5746,2.5637,2.5389,4.0113,4.0113,4.018,4.0646,4.1255,4.1288,4.1627,4.21,4.0942,4.0282,4.0265,4.0214,4.0214,4.013,4.0113,4.0113,4.0113,4.0113,4.0113,4.0113,4.0113,4.0113,4.0113,4.0096,4.0011,4.0062,4.0011,3.9791,3.9994,3.9825,3.9723,4.0045,3.9428,3.9089,3.9005,3.865,3.821,3.7821,3.7297,3.6787,3.6145,3.5825,3.5735,3.569,3.569,3.5701,3.5633,3.5616,3.5616,3.5616,3.56,3.5577,3.5515,3.5492,3.547,3.547,3.531,3.5293,3.527,3.5247,3.5052,3.5028,3.5191,3.5005,3.4585,3.4301,3.4103,3.3786,3.3684,3.3684,3.3744,3.3912,3.4087,3.4276,3.4447,3.4496,3.4447,3.452,3.464,3.4681,3.4681,3.4681,3.4695,3.4555,3.4562,3.4555,3.4429,3.4112,3.3375,3.1994,3.1384,3.092,3.0419,3.0266,3.0277,3.0243,3.0053,2.9789,2.9551,2.9416,2.9222,2.8882,2.8489,2.8243,2.8023,2.8246,2.8243,2.7891,2.7572,2.7524,2.7292,2.691,2.6708,2.6589,2.6302,4.0113,4.0163,4.0696,4.1373,4.1999,4.2033,4.2117,4.2269,4.1948,4.1474,4.1001,4.0899,4.0646,4.0316,4.0299,4.0299,4.0265,4.0417,4.0146,4.018,4.0197,4.018,4.0113,4.0113,4.0113,4.0113,4.0113,4.0113,4.0113,4.0113,4.0113,4.0096,3.9791,3.9723,3.9723,3.9385,3.9157,3.8751,3.8481,3.799,3.7466,3.7263,3.7178,3.6755,3.6485,3.6197,3.6028,3.5718,3.5667,3.5616,3.5616,3.56,3.56,3.5616,3.5616,3.5616,3.5616,3.5616,3.5616,3.5616,3.5447,3.5424,3.547,3.547,3.5339,3.5184,3.4934,3.4568,3.4358,3.4341,3.439,3.4576,3.4736,3.4965,3.5161,3.5075,3.5005,3.5144,3.5276,3.5299,3.5316,3.5339,3.5362,3.5385,3.547,3.5436,3.5363,3.515,3.4852,3.3907,3.3217,3.2608,3.1517,3.1242,3.1264,3.1083,3.0875,3.0738,3.0563,3.0492,3.0399,2.9969,2.9506,2.9426,2.9336,2.9407,2.9272,2.8869,2.8634,2.8602,2.8197,2.7672,2.7385,2.7214,2.6894,4.0578,4.0663,4.1373,4.2117,4.2709,4.2794,4.298,4.3295,4.3301,4.2895,4.2168,4.1847,4.1467,4.1077,4.1094,4.101,4.1027,4.1094,4.0942,4.0739,4.0553,4.035,4.0282,4.018,4.0113,4.0113,4.0113,4.0113,4.0113,4.0113,4.0113,4.0113,4.0113,4.0113,4.0113,4.0062,3.991,3.952,3.9445,3.9174,3.865,3.8294,3.7838,3.733,3.7178,3.6924,3.6874,3.6614,3.6631,3.6485,3.64,3.5893,3.5752,3.5616,3.5616,3.5616,3.5616,3.5616,3.565,3.5701,3.5718,3.5735,3.565,3.5605,3.5554,3.5402,3.5362,3.5052,3.5052,3.5052,3.5052,3.5168,3.5207,3.5362,3.5424,3.5402,3.5362,3.5424,3.5492,3.5492,3.5509,3.5509,3.5492,3.5492,3.5554,3.5554,3.5583,3.5583,3.5414,3.5301,3.4754,3.4187,3.3004,3.2426,3.2442,3.2122,3.1692,3.159,3.1495,3.1145,3.0874,3.0738,3.0528,3.0309,3.019,3.0224,3.004,2.9687,2.9516,2.9431,2.8941,2.8349,2.8129,2.7943,2.7826,4.1407,4.1576,4.2168,4.2861,4.3504,4.3572,4.391,4.4479,4.4564,4.4164,4.3521,4.2878,4.254,4.2303,4.2313,4.2286,4.2185,4.1897,4.1694,4.1474,4.1356,4.1136,4.0747,4.04,4.0299,4.0163,4.0113,4.0113,4.0113,4.0113,4.0113,4.0113,4.0113,4.0113,4.0113,4.0096,3.9994,3.996,3.9943,4.0028,3.952,3.8903,3.8396,3.8159,3.8041,3.8007,3.7939,3.7889,3.7848,3.7635,3.7195,3.6755,3.6377,3.6259,3.6174,3.6225,3.6259,3.6208,3.6124,3.6191,3.6124,3.6005,3.587,3.5893,3.5926,3.5921,3.5898,3.5752,3.5729,3.5571,3.5571,3.5538,3.5577,3.56,3.56,3.5616,3.5616,3.5616,3.5616,3.5616,3.5616,3.5616,3.5616,3.5616,3.5616,3.5616,3.5616,3.5616,3.5583,3.5498,3.5228,3.4906,3.4268,3.3874,3.3609,3.3017,3.2425,3.2357,3.2222,3.1732,3.1376,3.1343,3.1241,3.1038,3.0954,3.0835,3.0751,3.048,3.0362,3.0173,2.9651,2.911,2.9047,2.8914,2.8934,4.2455,4.2987,4.3149,4.3639,4.431,4.4333,4.4479,4.4581,4.4598,4.4496,4.4282,4.4147,4.3572,4.232,4.2286,4.2405,4.2658,4.2557,4.2354,4.21,4.21,4.1982,4.166,4.1102,4.0646,4.0485,4.035,4.0163,4.0519,4.0367,4.0163,4.0248,4.0231,4.0197,4.018,4.0214,4.0333,4.035,4.0273,4.0239,4.0163,3.9706,3.9377,3.9073,3.8802,3.8413,3.8108,3.7939,3.7882,3.7855,3.7787,3.755,3.7307,3.7155,3.7138,3.7053,3.7104,3.7121,3.707,3.707,3.7036,3.7104,3.7094,3.7157,3.7191,3.7202,3.6981,3.6491,3.6299,3.5785,3.5678,3.5594,3.56,3.56,3.5616,3.5616,3.5616,3.5616,3.5616,3.5616,3.5616,3.5616,3.5616,3.5616,3.5616,3.5616,3.5616,3.5616,3.5616,3.5616,3.5616,3.5397,3.5143,3.4856,3.4387,3.3694,3.3169,3.3119,3.2949,3.2493,3.2188,3.2107,3.1955,3.1579,3.1326,3.1157,3.1089,3.0937,3.0937,3.07,3.0277,2.989,2.9846,2.9874,2.9898]}]]